Wetterdaten: Sonntag, 08.11.2015
Datum Zeit Temp. A. Feuchte A. Luftdruck Regen Wind Richtung Richtung Sonnenschein ET UV Solar Taupunkt Windchill Windben Empfang
08.11.2015 00:00 11,7 C 96 % 1027,2 hPa 0,0 l/m 3,2 km/h (1 Bft) S-SW 193 0 min 0,000 mm 0,0 UV-I 0 W/m 11,1 C 11,7 C 4,8 km/h (1 Bft) 100,00 %
08.11.2015 00:02 11,7 C 96 % 1027,2 hPa 0,0 l/m 3,4 km/h (1 Bft) S 189 0 min 0,000 mm 0,0 UV-I 0 W/m 11,1 C 11,7 C 4,8 km/h (1 Bft) 97,62 %
08.11.2015 00:03 11,7 C 96 % 1027,2 hPa 0,0 l/m 3,6 km/h (1 Bft) S-SW 206 0 min 0,000 mm 0,0 UV-I 0 W/m 11,1 C 11,7 C 4,8 km/h (1 Bft) 100,00 %
08.11.2015 00:04 11,7 C 96 % 1027,2 hPa 0,0 l/m 2,8 km/h (1 Bft) SW 229 0 min 0,000 mm 0,0 UV-I 0 W/m 11,1 C 11,7 C 4,8 km/h (1 Bft) 100,00 %
08.11.2015 00:05 11,7 C 96 % 1027,2 hPa 0,0 l/m 2,8 km/h (1 Bft) S-SW 198 0 min 0,000 mm 0,0 UV-I 0 W/m 11,1 C 11,7 C 4,8 km/h (1 Bft) 100,00 %
08.11.2015 00:06 11,6 C 96 % 1027,2 hPa 0,0 l/m 4,1 km/h (1 Bft) W-SW 252 0 min 0,000 mm 0,0 UV-I 0 W/m 11,0 C 11,6 C 6,4 km/h (2 Bft) 100,00 %
08.11.2015 00:07 11,6 C 96 % 1027,2 hPa 0,0 l/m 3,5 km/h (1 Bft) S-SW 192 0 min 0,000 mm 0,0 UV-I 0 W/m 11,0 C 11,6 C 4,8 km/h (1 Bft) 100,00 %
08.11.2015 00:08 11,6 C 96 % 1027,2 hPa 0,0 l/m 3,2 km/h (1 Bft) S-SW 192 0 min 0,000 mm 0,0 UV-I 0 W/m 11,0 C 11,6 C 4,8 km/h (1 Bft) 100,00 %
08.11.2015 00:09 11,6 C 96 % 1027,2 hPa 0,0 l/m 3,2 km/h (1 Bft) S-SW 203 0 min 0,000 mm 0,0 UV-I 0 W/m 11,0 C 11,6 C 4,8 km/h (1 Bft) 100,00 %
08.11.2015 00:10 11,6 C 96 % 1027,2 hPa 0,0 l/m 3,3 km/h (1 Bft) S 189 0 min 0,000 mm 0,0 UV-I 0 W/m 11,0 C 11,6 C 4,8 km/h (1 Bft) 95,83 %
08.11.2015 00:11 11,6 C 96 % 1027,2 hPa 0,0 l/m 4,2 km/h (1 Bft) S 182 0 min 0,000 mm 0,0 UV-I 0 W/m 11,0 C 11,6 C 6,4 km/h (2 Bft) 95,65 %
08.11.2015 00:12 11,6 C 96 % 1027,1 hPa 0,0 l/m 3,8 km/h (1 Bft) S-SW 194 0 min 0,000 mm 0,0 UV-I 0 W/m 11,0 C 11,6 C 6,4 km/h (2 Bft) 100,00 %
08.11.2015 00:13 11,6 C 96 % 1027,1 hPa 0,0 l/m 3,7 km/h (1 Bft) S-SW 205 0 min 0,000 mm 0,0 UV-I 0 W/m 11,0 C 11,6 C 4,8 km/h (1 Bft) 100,00 %
08.11.2015 00:14 11,7 C 96 % 1027,2 hPa 0,0 l/m 5,0 km/h (1 Bft) S 175 0 min 0,000 mm 0,0 UV-I 0 W/m 11,1 C 11,7 C 8,0 km/h (2 Bft) 100,00 %
08.11.2015 00:15 11,7 C 96 % 1027,1 hPa 0,0 l/m 6,2 km/h (2 Bft) S 190 0 min 0,000 mm 0,0 UV-I 0 W/m 11,1 C 11,7 C 8,0 km/h (2 Bft) 100,00 %
08.11.2015 00:16 11,7 C 97 % 1027,1 hPa 0,0 l/m 5,0 km/h (1 Bft) S-SW 197 0 min 0,000 mm 0,0 UV-I 0 W/m 11,2 C 11,7 C 8,0 km/h (2 Bft) 100,00 %
08.11.2015 00:17 11,8 C 96 % 1027,1 hPa 0,0 l/m 3,3 km/h (1 Bft) SW 229 0 min 0,000 mm 0,0 UV-I 0 W/m 11,2 C 11,8 C 4,8 km/h (1 Bft) 100,00 %
08.11.2015 00:18 11,8 C 96 % 1027,1 hPa 0,0 l/m 5,0 km/h (1 Bft) S 187 0 min 0,000 mm 0,0 UV-I 0 W/m 11,2 C 11,8 C 8,0 km/h (2 Bft) 91,67 %
08.11.2015 00:19 11,8 C 96 % 1027,1 hPa 0,0 l/m 5,2 km/h (1 Bft) S-SW 202 0 min 0,000 mm 0,0 UV-I 0 W/m 11,2 C 11,8 C 8,0 km/h (2 Bft) 100,00 %
08.11.2015 00:20 11,8 C 96 % 1027,1 hPa 0,0 l/m 4,1 km/h (1 Bft) S 188 0 min 0,000 mm 0,0 UV-I 0 W/m 11,2 C 11,8 C 4,8 km/h (1 Bft) 100,00 %
08.11.2015 00:21 11,8 C 96 % 1027,1 hPa 0,0 l/m 3,0 km/h (1 Bft) S 188 0 min 0,000 mm 0,0 UV-I 0 W/m 11,2 C 11,8 C 4,8 km/h (1 Bft) 100,00 %
08.11.2015 00:22 11,8 C 96 % 1027,1 hPa 0,0 l/m 2,5 km/h (1 Bft) S-SW 196 0 min 0,000 mm 0,0 UV-I 0 W/m 11,2 C 11,8 C 4,8 km/h (1 Bft) 100,00 %
08.11.2015 00:23 11,8 C 96 % 1027,1 hPa 0,0 l/m 3,4 km/h (1 Bft) S-SW 197 0 min 0,000 mm 0,0 UV-I 0 W/m 11,2 C 11,8 C 4,8 km/h (1 Bft) 100,00 %
08.11.2015 00:24 11,8 C 96 % 1027,1 hPa 0,0 l/m 2,6 km/h (1 Bft) S-SW 197 0 min 0,000 mm 0,0 UV-I 0 W/m 11,2 C 11,8 C 3,2 km/h (1 Bft) 100,00 %
08.11.2015 00:25 11,8 C 96 % 1027,1 hPa 0,0 l/m 2,7 km/h (1 Bft) S-SW 197 0 min 0,000 mm 0,0 UV-I 0 W/m 11,2 C 11,8 C 3,2 km/h (1 Bft) 100,00 %
08.11.2015 00:26 11,8 C 96 % 1027,1 hPa 0,0 l/m 1,9 km/h (1 Bft) S-SW 197 0 min 0,000 mm 0,0 UV-I 0 W/m 11,2 C 11,8 C 3,2 km/h (1 Bft) 93,10 %
08.11.2015 00:27 11,7 C 95 % 1027,1 hPa 0,0 l/m 3,2 km/h (1 Bft) S 187 0 min 0,000 mm 0,0 UV-I 0 W/m 10,9 C 11,7 C 6,4 km/h (2 Bft) 100,00 %
08.11.2015 00:28 11,7 C 96 % 1027,1 hPa 0,0 l/m 3,4 km/h (1 Bft) S-SW 208 0 min 0,000 mm 0,0 UV-I 0 W/m 11,1 C 11,7 C 8,0 km/h (2 Bft) 100,00 %
08.11.2015 00:29 11,7 C 96 % 1027,1 hPa 0,0 l/m 3,4 km/h (1 Bft) SW 224 0 min 0,000 mm 0,0 UV-I 0 W/m 11,1 C 11,7 C 4,8 km/h (1 Bft) 100,00 %
08.11.2015 00:30 11,7 C 96 % 1027,1 hPa 0,0 l/m 3,2 km/h (1 Bft) S-SW 198 0 min 0,000 mm 0,0 UV-I 0 W/m 11,1 C 11,7 C 6,4 km/h (2 Bft) 100,00 %
08.11.2015 00:31 11,7 C 96 % 1027,1 hPa 0,0 l/m 2,7 km/h (1 Bft) S-SW 199 0 min 0,000 mm 0,0 UV-I 0 W/m 11,1 C 11,7 C 4,8 km/h (1 Bft) 100,00 %
08.11.2015 00:32 11,7 C 96 % 1027,1 hPa 0,0 l/m 2,5 km/h (1 Bft) S-SW 196 0 min 0,000 mm 0,0 UV-I 0 W/m 11,1 C 11,7 C 3,2 km/h (1 Bft) 100,00 %
08.11.2015 00:33 11,7 C 96 % 1027,1 hPa 0,0 l/m 1,6 km/h (1 Bft) S-SW 196 0 min 0,000 mm 0,0 UV-I 0 W/m 11,1 C 11,7 C 3,2 km/h (1 Bft) 100,00 %
08.11.2015 00:34 11,7 C 96 % 1027,1 hPa 0,0 l/m 2,0 km/h (1 Bft) S-SW 198 0 min 0,000 mm 0,0 UV-I 0 W/m 11,1 C 11,7 C 3,2 km/h (1 Bft) 100,00 %
08.11.2015 00:35 11,7 C 96 % 1027,1 hPa 0,0 l/m 0,5 km/h (0 Bft) S-SW 198 0 min 0,000 mm 0,0 UV-I 0 W/m 11,1 C 11,7 C 1,6 km/h (1 Bft) 100,00 %
08.11.2015 00:36 11,7 C 96 % 1027,1 hPa 0,0 l/m 0,0 km/h (0 Bft) S-SW 198 0 min 0,000 mm 0,0 UV-I 0 W/m 11,1 C 11,7 C 0,0 km/h (0 Bft) 100,00 %
08.11.2015 00:37 11,7 C 96 % 1027,1 hPa 0,0 l/m 0,0 km/h (0 Bft) S-SW 198 0 min 0,000 mm 0,0 UV-I 0 W/m 11,1 C 11,7 C 0,0 km/h (0 Bft) 100,00 %
08.11.2015 00:38 11,6 C 96 % 1027,1 hPa 0,0 l/m 0,0 km/h (0 Bft) S-SW 198 0 min 0,000 mm 0,0 UV-I 0 W/m 11,0 C 11,6 C 0,0 km/h (0 Bft) 100,00 %
08.11.2015 00:39 11,6 C 96 % 1027,2 hPa 0,0 l/m 0,0 km/h (0 Bft) S-SW 198 0 min 0,000 mm 0,0 UV-I 0 W/m 11,0 C 11,6 C 0,0 km/h (0 Bft) 96,15 %
08.11.2015 00:40 11,6 C 96 % 1027,3 hPa 0,0 l/m 0,0 km/h (0 Bft) S-SW 198 0 min 0,000 mm 0,0 UV-I 0 W/m 11,0 C 11,6 C 0,0 km/h (0 Bft) 100,00 %
08.11.2015 00:41 11,6 C 96 % 1027,3 hPa 0,0 l/m 0,8 km/h (0 Bft) S-SW 198 0 min 0,000 mm 0,0 UV-I 0 W/m 11,0 C 11,6 C 1,6 km/h (1 Bft) 100,00 %
08.11.2015 00:42 11,5 C 96 % 1027,3 hPa 0,0 l/m 1,5 km/h (1 Bft) W-SW 240 0 min 0,000 mm 0,0 UV-I 0 W/m 10,9 C 11,5 C 3,2 km/h (1 Bft) 100,00 %
08.11.2015 00:43 11,5 C 96 % 1027,4 hPa 0,0 l/m 1,2 km/h (1 Bft) W-SW 243 0 min 0,000 mm 0,0 UV-I 0 W/m 10,9 C 11,5 C 1,6 km/h (1 Bft) 100,00 %
08.11.2015 00:44 11,4 C 96 % 1027,4 hPa 0,0 l/m 0,9 km/h (0 Bft) W-SW 243 0 min 0,000 mm 0,0 UV-I 0 W/m 10,8 C 11,4 C 1,6 km/h (1 Bft) 100,00 %
08.11.2015 00:45 11,4 C 96 % 1027,4 hPa 0,0 l/m 0,0 km/h (0 Bft) W-SW 243 0 min 0,000 mm 0,0 UV-I 0 W/m 10,8 C 11,4 C 0,0 km/h (0 Bft) 100,00 %
08.11.2015 00:46 11,3 C 96 % 1027,4 hPa 0,0 l/m 0,0 km/h (0 Bft) W-SW 243 0 min 0,000 mm 0,0 UV-I 0 W/m 10,7 C 11,3 C 0,0 km/h (0 Bft) 100,00 %
08.11.2015 00:47 11,3 C 96 % 1027,4 hPa 0,0 l/m 0,0 km/h (0 Bft) W-SW 243 0 min 0,000 mm 0,0 UV-I 0 W/m 10,7 C 11,3 C 0,0 km/h (0 Bft) 95,65 %
08.11.2015 00:48 11,3 C 96 % 1027,4 hPa 0,0 l/m 0,0 km/h (0 Bft) W-SW 243 0 min 0,000 mm 0,0 UV-I 0 W/m 10,7 C 11,3 C 0,0 km/h (0 Bft) 95,83 %
08.11.2015 00:49 11,3 C 96 % 1027,4 hPa 0,0 l/m 0,0 km/h (0 Bft) W-SW 243 0 min 0,000 mm 0,0 UV-I 0 W/m 10,7 C 11,3 C 0,0 km/h (0 Bft) 100,00 %
08.11.2015 00:50 11,3 C 97 % 1027,4 hPa 0,0 l/m 0,0 km/h (0 Bft) W-SW 243 0 min 0,000 mm 0,0 UV-I 0 W/m 10,8 C 11,3 C 0,0 km/h (0 Bft) 95,83 %
08.11.2015 00:51 11,2 C 97 % 1027,4 hPa 0,0 l/m 0,0 km/h (0 Bft) W-SW 243 0 min 0,000 mm 0,0 UV-I 0 W/m 10,7 C 11,2 C 0,0 km/h (0 Bft) 100,00 %
08.11.2015 00:52 11,3 C 97 % 1027,4 hPa 0,0 l/m 0,1 km/h (0 Bft) W-SW 243 0 min 0,000 mm 0,0 UV-I 0 W/m 10,8 C 11,3 C 1,6 km/h (1 Bft) 100,00 %
08.11.2015 00:53 11,2 C 97 % 1027,4 hPa 0,0 l/m 0,0 km/h (0 Bft) W-SW 243 0 min 0,000 mm 0,0 UV-I 0 W/m 10,7 C 11,2 C 0,0 km/h (0 Bft) 100,00 %
08.11.2015 00:54 11,2 C 97 % 1027,4 hPa 0,0 l/m 0,2 km/h (0 Bft) W-SW 243 0 min 0,000 mm 0,0 UV-I 0 W/m 10,7 C 11,2 C 1,6 km/h (1 Bft) 100,00 %
08.11.2015 00:55 11,2 C 97 % 1027,4 hPa 0,0 l/m 0,6 km/h (0 Bft) W-SW 243 0 min 0,000 mm 0,0 UV-I 0 W/m 10,7 C 11,2 C 1,6 km/h (1 Bft) 100,00 %
08.11.2015 00:56 11,2 C 97 % 1027,4 hPa 0,0 l/m 0,0 km/h (0 Bft) W-SW 243 0 min 0,000 mm 0,0 UV-I 0 W/m 10,7 C 11,2 C 0,0 km/h (0 Bft) 100,00 %
08.11.2015 00:57 11,1 C 97 % 1027,4 hPa 0,0 l/m 0,6 km/h (0 Bft) W-SW 243 0 min 0,000 mm 0,0 UV-I 0 W/m 10,6 C 11,1 C 1,6 km/h (1 Bft) 96,15 %
08.11.2015 00:58 11,1 C 97 % 1027,4 hPa 0,0 l/m 1,3 km/h (1 Bft) W-SW 244 0 min 0,000 mm 0,0 UV-I 0 W/m 10,6 C 11,1 C 3,2 km/h (1 Bft) 100,00 %
08.11.2015 00:59 11,1 C 97 % 1027,4 hPa 0,0 l/m 1,8 km/h (1 Bft) W-SW 244 0 min 0,000 mm 0,0 UV-I 0 W/m 10,6 C 11,1 C 3,2 km/h (1 Bft) 100,00 %
08.11.2015 01:00 11,1 C 97 % 1027,5 hPa 0,0 l/m 1,3 km/h (1 Bft) W-SW 244 0 min 0,000 mm 0,0 UV-I 0 W/m 10,6 C 11,1 C 3,2 km/h (1 Bft) 100,00 %
08.11.2015 01:01 11,1 C 97 % 1027,5 hPa 0,0 l/m 2,1 km/h (1 Bft) W-SW 249 0 min 0,000 mm 0,0 UV-I 0 W/m 10,6 C 11,1 C 3,2 km/h (1 Bft) 100,00 %
08.11.2015 01:02 11,1 C 97 % 1027,4 hPa 0,0 l/m 3,7 km/h (1 Bft) SW 216 0 min 0,000 mm 0,0 UV-I 0 W/m 10,6 C 11,1 C 6,4 km/h (2 Bft) 100,00 %
08.11.2015 01:03 11,1 C 97 % 1027,4 hPa 0,0 l/m 3,0 km/h (1 Bft) SW 225 0 min 0,000 mm 0,0 UV-I 0 W/m 10,6 C 11,1 C 4,8 km/h (1 Bft) 100,00 %
08.11.2015 01:04 11,1 C 97 % 1027,4 hPa 0,0 l/m 3,1 km/h (1 Bft) SW 227 0 min 0,000 mm 0,0 UV-I 0 W/m 10,6 C 11,1 C 4,8 km/h (1 Bft) 100,00 %
08.11.2015 01:05 11,1 C 97 % 1027,4 hPa 0,0 l/m 4,9 km/h (1 Bft) SW 228 0 min 0,000 mm 0,0 UV-I 0 W/m 10,6 C 11,1 C 6,4 km/h (2 Bft) 95,83 %
08.11.2015 01:06 11,1 C 97 % 1027,5 hPa 0,0 l/m 3,1 km/h (1 Bft) SW 236 0 min 0,000 mm 0,0 UV-I 0 W/m 10,6 C 11,1 C 4,8 km/h (1 Bft) 100,00 %
08.11.2015 01:07 11,1 C 97 % 1027,5 hPa 0,0 l/m 4,3 km/h (1 Bft) SW 228 0 min 0,000 mm 0,0 UV-I 0 W/m 10,6 C 11,1 C 6,4 km/h (2 Bft) 100,00 %
08.11.2015 01:08 11,1 C 97 % 1027,5 hPa 0,0 l/m 4,0 km/h (1 Bft) SW 234 0 min 0,000 mm 0,0 UV-I 0 W/m 10,6 C 11,1 C 6,4 km/h (2 Bft) 100,00 %
08.11.2015 01:09 11,2 C 97 % 1027,5 hPa 0,0 l/m 3,4 km/h (1 Bft) SW 214 0 min 0,000 mm 0,0 UV-I 0 W/m 10,7 C 11,2 C 4,8 km/h (1 Bft) 100,00 %
08.11.2015 01:10 11,1 C 97 % 1027,5 hPa 0,0 l/m 2,8 km/h (1 Bft) W-SW 257 0 min 0,000 mm 0,0 UV-I 0 W/m 10,6 C 11,1 C 4,8 km/h (1 Bft) 100,00 %
08.11.2015 01:11 11,1 C 97 % 1027,6 hPa 0,0 l/m 3,0 km/h (1 Bft) S-SW 211 0 min 0,000 mm 0,0 UV-I 0 W/m 10,6 C 11,1 C 4,8 km/h (1 Bft) 100,00 %
08.11.2015 01:12 11,1 C 97 % 1027,6 hPa 0,0 l/m 2,4 km/h (1 Bft) SW 223 0 min 0,000 mm 0,0 UV-I 0 W/m 10,6 C 11,1 C 4,8 km/h (1 Bft) 100,00 %
08.11.2015 01:13 11,1 C 97 % 1027,6 hPa 0,0 l/m 3,8 km/h (1 Bft) SW 219 0 min 0,000 mm 0,0 UV-I 0 W/m 10,6 C 11,1 C 4,8 km/h (1 Bft) 100,00 %
08.11.2015 01:14 11,1 C 97 % 1027,5 hPa 0,0 l/m 2,5 km/h (1 Bft) SW 219 0 min 0,000 mm 0,0 UV-I 0 W/m 10,6 C 11,1 C 4,8 km/h (1 Bft) 100,00 %
08.11.2015 01:15 11,1 C 97 % 1027,5 hPa 0,0 l/m 2,8 km/h (1 Bft) SW 219 0 min 0,000 mm 0,0 UV-I 0 W/m 10,6 C 11,1 C 3,2 km/h (1 Bft) 100,00 %
08.11.2015 01:16 11,1 C 96 % 1027,5 hPa 0,0 l/m 2,1 km/h (1 Bft) SW 219 0 min 0,000 mm 0,0 UV-I 0 W/m 10,5 C 11,1 C 3,2 km/h (1 Bft) 100,00 %
08.11.2015 01:17 11,1 C 96 % 1027,5 hPa 0,0 l/m 2,5 km/h (1 Bft) SW 223 0 min 0,000 mm 0,0 UV-I 0 W/m 10,5 C 11,1 C 3,2 km/h (1 Bft) 100,00 %
08.11.2015 01:18 11,0 C 96 % 1027,5 hPa 0,0 l/m 1,9 km/h (1 Bft) SW 223 0 min 0,000 mm 0,0 UV-I 0 W/m 10,4 C 11,0 C 3,2 km/h (1 Bft) 100,00 %
08.11.2015 01:19 10,9 C 96 % 1027,5 hPa 0,0 l/m 1,7 km/h (1 Bft) SW 223 0 min 0,000 mm 0,0 UV-I 0 W/m 10,3 C 10,9 C 3,2 km/h (1 Bft) 100,00 %
08.11.2015 01:20 10,9 C 96 % 1027,5 hPa 0,0 l/m 2,1 km/h (1 Bft) SW 223 0 min 0,000 mm 0,0 UV-I 0 W/m 10,3 C 10,9 C 3,2 km/h (1 Bft) 100,00 %
08.11.2015 01:21 10,9 C 96 % 1027,5 hPa 0,0 l/m 2,2 km/h (1 Bft) SW 223 0 min 0,000 mm 0,0 UV-I 0 W/m 10,3 C 10,9 C 3,2 km/h (1 Bft) 100,00 %
08.11.2015 01:22 10,8 C 97 % 1027,5 hPa 0,0 l/m 2,8 km/h (1 Bft) SW 230 0 min 0,000 mm 0,0 UV-I 0 W/m 10,3 C 10,8 C 4,8 km/h (1 Bft) 100,00 %
08.11.2015 01:23 10,8 C 97 % 1027,5 hPa 0,0 l/m 3,1 km/h (1 Bft) SW 230 0 min 0,000 mm 0,0 UV-I 0 W/m 10,3 C 10,8 C 4,8 km/h (1 Bft) 100,00 %
08.11.2015 01:24 10,8 C 97 % 1027,6 hPa 0,0 l/m 3,2 km/h (1 Bft) SW 230 0 min 0,000 mm 0,0 UV-I 0 W/m 10,3 C 10,8 C 4,8 km/h (1 Bft) 100,00 %
08.11.2015 01:25 10,8 C 97 % 1027,6 hPa 0,0 l/m 1,3 km/h (1 Bft) SW 230 0 min 0,000 mm 0,0 UV-I 0 W/m 10,3 C 10,8 C 1,6 km/h (1 Bft) 100,00 %
08.11.2015 01:26 10,8 C 97 % 1027,6 hPa 0,0 l/m 1,6 km/h (1 Bft) SW 229 0 min 0,000 mm 0,0 UV-I 0 W/m 10,3 C 10,8 C 3,2 km/h (1 Bft) 100,00 %
08.11.2015 01:27 10,8 C 97 % 1027,6 hPa 0,0 l/m 2,2 km/h (1 Bft) SW 229 0 min 0,000 mm 0,0 UV-I 0 W/m 10,3 C 10,8 C 3,2 km/h (1 Bft) 100,00 %
08.11.2015 01:28 10,8 C 97 % 1027,6 hPa 0,0 l/m 1,7 km/h (1 Bft) SW 229 0 min 0,000 mm 0,0 UV-I 0 W/m 10,3 C 10,8 C 3,2 km/h (1 Bft) 100,00 %
08.11.2015 01:29 10,8 C 97 % 1027,6 hPa 0,0 l/m 1,6 km/h (1 Bft) SW 229 0 min 0,000 mm 0,0 UV-I 0 W/m 10,3 C 10,8 C 3,2 km/h (1 Bft) 96,15 %
08.11.2015 01:30 10,8 C 97 % 1027,5 hPa 0,0 l/m 1,5 km/h (1 Bft) SW 229 0 min 0,000 mm 0,0 UV-I 0 W/m 10,3 C 10,8 C 3,2 km/h (1 Bft) 100,00 %
08.11.2015 01:31 10,8 C 97 % 1027,5 hPa 0,0 l/m 1,6 km/h (1 Bft) SW 229 0 min 0,000 mm 0,0 UV-I 0 W/m 10,3 C 10,8 C 1,6 km/h (1 Bft) 100,00 %
08.11.2015 01:32 10,7 C 97 % 1027,4 hPa 0,0 l/m 1,9 km/h (1 Bft) SW 229 0 min 0,000 mm 0,0 UV-I 0 W/m 10,2 C 10,7 C 3,2 km/h (1 Bft) 100,00 %
08.11.2015 01:33 10,7 C 97 % 1027,4 hPa 0,0 l/m 1,6 km/h (1 Bft) SW 229 0 min 0,000 mm 0,0 UV-I 0 W/m 10,2 C 10,7 C 3,2 km/h (1 Bft) 100,00 %
08.11.2015 01:34 10,7 C 97 % 1027,5 hPa 0,0 l/m 1,9 km/h (1 Bft) SW 229 0 min 0,000 mm 0,0 UV-I 0 W/m 10,2 C 10,7 C 3,2 km/h (1 Bft) 100,00 %
08.11.2015 01:35 10,6 C 97 % 1027,5 hPa 0,0 l/m 1,9 km/h (1 Bft) SW 229 0 min 0,000 mm 0,0 UV-I 0 W/m 10,1 C 10,6 C 3,2 km/h (1 Bft) 100,00 %
08.11.2015 01:36 10,6 C 97 % 1027,5 hPa 0,0 l/m 1,8 km/h (1 Bft) SW 229 0 min 0,000 mm 0,0 UV-I 0 W/m 10,1 C 10,6 C 3,2 km/h (1 Bft) 100,00 %
08.11.2015 01:37 10,6 C 97 % 1027,4 hPa 0,0 l/m 1,3 km/h (1 Bft) SW 229 0 min 0,000 mm 0,0 UV-I 0 W/m 10,1 C 10,6 C 3,2 km/h (1 Bft) 100,00 %
08.11.2015 01:38 10,6 C 97 % 1027,5 hPa 0,0 l/m 1,5 km/h (1 Bft) SW 229 0 min 0,000 mm 0,0 UV-I 0 W/m 10,1 C 10,6 C 1,6 km/h (1 Bft) 100,00 %
08.11.2015 01:39 10,6 C 97 % 1027,5 hPa 0,0 l/m 0,7 km/h (0 Bft) SW 229 0 min 0,000 mm 0,0 UV-I 0 W/m 10,1 C 10,6 C 1,6 km/h (1 Bft) 100,00 %
08.11.2015 01:40 10,5 C 97 % 1027,5 hPa 0,0 l/m 1,7 km/h (1 Bft) SW 229 0 min 0,000 mm 0,0 UV-I 0 W/m 10,0 C 10,5 C 3,2 km/h (1 Bft) 100,00 %
08.11.2015 01:41 10,5 C 97 % 1027,5 hPa 0,0 l/m 1,1 km/h (1 Bft) SW 229 0 min 0,000 mm 0,0 UV-I 0 W/m 10,0 C 10,5 C 1,6 km/h (1 Bft) 100,00 %
08.11.2015 01:42 10,5 C 97 % 1027,4 hPa 0,0 l/m 1,5 km/h (1 Bft) SW 229 0 min 0,000 mm 0,0 UV-I 0 W/m 10,0 C 10,5 C 3,2 km/h (1 Bft) 100,00 %
08.11.2015 01:43 10,5 C 97 % 1027,4 hPa 0,0 l/m 1,7 km/h (1 Bft) SW 229 0 min 0,000 mm 0,0 UV-I 0 W/m 10,0 C 10,5 C 3,2 km/h (1 Bft) 100,00 %
08.11.2015 01:44 10,5 C 97 % 1027,5 hPa 0,0 l/m 1,8 km/h (1 Bft) SW 229 0 min 0,000 mm 0,0 UV-I 0 W/m 10,0 C 10,5 C 3,2 km/h (1 Bft) 100,00 %
08.11.2015 01:45 10,5 C 97 % 1027,5 hPa 0,0 l/m 2,2 km/h (1 Bft) S-SW 205 0 min 0,000 mm 0,0 UV-I 0 W/m 10,0 C 10,5 C 3,2 km/h (1 Bft) 95,83 %
08.11.2015 01:46 10,6 C 97 % 1027,5 hPa 0,0 l/m 1,4 km/h (1 Bft) S-SW 205 0 min 0,000 mm 0,0 UV-I 0 W/m 10,1 C 10,6 C 3,2 km/h (1 Bft) 100,00 %
08.11.2015 01:47 10,6 C 97 % 1027,5 hPa 0,0 l/m 1,7 km/h (1 Bft) S-SW 205 0 min 0,000 mm 0,0 UV-I 0 W/m 10,1 C 10,6 C 3,2 km/h (1 Bft) 96,30 %
08.11.2015 01:48 10,6 C 97 % 1027,5 hPa 0,0 l/m 2,0 km/h (1 Bft) S-SW 201 0 min 0,000 mm 0,0 UV-I 0 W/m 10,1 C 10,6 C 3,2 km/h (1 Bft) 100,00 %
08.11.2015 01:49 10,5 C 97 % 1027,5 hPa 0,0 l/m 1,9 km/h (1 Bft) S-SW 194 0 min 0,000 mm 0,0 UV-I 0 W/m 10,0 C 10,5 C 3,2 km/h (1 Bft) 100,00 %
08.11.2015 01:50 10,5 C 97 % 1027,5 hPa 0,0 l/m 1,7 km/h (1 Bft) S-SW 194 0 min 0,000 mm 0,0 UV-I 0 W/m 10,0 C 10,5 C 3,2 km/h (1 Bft) 95,65 %
08.11.2015 01:51 10,5 C 97 % 1027,5 hPa 0,0 l/m 0,7 km/h (0 Bft) S-SW 194 0 min 0,000 mm 0,0 UV-I 0 W/m 10,0 C 10,5 C 1,6 km/h (1 Bft) 95,83 %
08.11.2015 01:52 10,4 C 97 % 1027,5 hPa 0,0 l/m 0,4 km/h (0 Bft) S-SW 194 0 min 0,000 mm 0,0 UV-I 0 W/m 9,9 C 10,4 C 1,6 km/h (1 Bft) 95,65 %
08.11.2015 01:53 10,4 C 97 % 1027,5 hPa 0,0 l/m 2,7 km/h (1 Bft) S-SW 208 0 min 0,000 mm 0,0 UV-I 0 W/m 9,9 C 10,4 C 4,8 km/h (1 Bft) 100,00 %
08.11.2015 01:54 10,4 C 97 % 1027,6 hPa 0,0 l/m 2,0 km/h (1 Bft) S-SW 211 0 min 0,000 mm 0,0 UV-I 0 W/m 9,9 C 10,4 C 3,2 km/h (1 Bft) 100,00 %
08.11.2015 01:55 10,4 C 97 % 1027,6 hPa 0,0 l/m 2,2 km/h (1 Bft) S-SW 211 0 min 0,000 mm 0,0 UV-I 0 W/m 9,9 C 10,4 C 3,2 km/h (1 Bft) 100,00 %
08.11.2015 01:56 10,4 C 97 % 1027,6 hPa 0,0 l/m 2,2 km/h (1 Bft) S-SW 210 0 min 0,000 mm 0,0 UV-I 0 W/m 9,9 C 10,4 C 3,2 km/h (1 Bft) 100,00 %
08.11.2015 01:57 10,4 C 97 % 1027,6 hPa 0,0 l/m 1,9 km/h (1 Bft) SW 228 0 min 0,000 mm 0,0 UV-I 0 W/m 9,9 C 10,4 C 3,2 km/h (1 Bft) 100,00 %
08.11.2015 01:58 10,3 C 97 % 1027,6 hPa 0,0 l/m 0,7 km/h (0 Bft) SW 228 0 min 0,000 mm 0,0 UV-I 0 W/m 9,8 C 10,3 C 1,6 km/h (1 Bft) 100,00 %
08.11.2015 01:59 10,3 C 97 % 1027,6 hPa 0,0 l/m 0,7 km/h (0 Bft) SW 228 0 min 0,000 mm 0,0 UV-I 0 W/m 9,8 C 10,3 C 1,6 km/h (1 Bft) 100,00 %
08.11.2015 02:00 10,3 C 97 % 1027,6 hPa 0,0 l/m 0,4 km/h (0 Bft) SW 228 0 min 0,000 mm 0,0 UV-I 0 W/m 9,8 C 10,3 C 1,6 km/h (1 Bft) 95,83 %
08.11.2015 02:01 10,3 C 97 % 1027,6 hPa 0,0 l/m 0,6 km/h (0 Bft) SW 228 0 min 0,000 mm 0,0 UV-I 0 W/m 9,8 C 10,3 C 1,6 km/h (1 Bft) 100,00 %
08.11.2015 02:02 10,3 C 97 % 1027,6 hPa 0,0 l/m 0,1 km/h (0 Bft) SW 228 0 min 0,000 mm 0,0 UV-I 0 W/m 9,8 C 10,3 C 1,6 km/h (1 Bft) 100,00 %
08.11.2015 02:03 10,3 C 97 % 1027,6 hPa 0,0 l/m 0,1 km/h (0 Bft) SW 228 0 min 0,000 mm 0,0 UV-I 0 W/m 9,8 C 10,3 C 1,6 km/h (1 Bft) 95,65 %
08.11.2015 02:04 10,3 C 97 % 1027,6 hPa 0,0 l/m 0,1 km/h (0 Bft) SW 228 0 min 0,000 mm 0,0 UV-I 0 W/m 9,8 C 10,3 C 1,6 km/h (1 Bft) 100,00 %
08.11.2015 02:05 10,3 C 97 % 1027,6 hPa 0,0 l/m 0,0 km/h (0 Bft) SW 228 0 min 0,000 mm 0,0 UV-I 0 W/m 9,8 C 10,3 C 0,0 km/h (0 Bft) 100,00 %
08.11.2015 02:06 10,3 C 97 % 1027,6 hPa 0,0 l/m 0,0 km/h (0 Bft) SW 228 0 min 0,000 mm 0,0 UV-I 0 W/m 9,8 C 10,3 C 0,0 km/h (0 Bft) 100,00 %
08.11.2015 02:07 10,3 C 97 % 1027,6 hPa 0,0 l/m 0,0 km/h (0 Bft) SW 228 0 min 0,000 mm 0,0 UV-I 0 W/m 9,8 C 10,3 C 0,0 km/h (0 Bft) 100,00 %
08.11.2015 02:08 10,3 C 97 % 1027,7 hPa 0,0 l/m 0,0 km/h (0 Bft) SW 228 0 min 0,000 mm 0,0 UV-I 0 W/m 9,8 C 10,3 C 0,0 km/h (0 Bft) 100,00 %
08.11.2015 02:09 10,3 C 97 % 1027,7 hPa 0,0 l/m 0,0 km/h (0 Bft) SW 228 0 min 0,000 mm 0,0 UV-I 0 W/m 9,8 C 10,3 C 0,0 km/h (0 Bft) 100,00 %
08.11.2015 02:10 10,3 C 97 % 1027,7 hPa 0,0 l/m 0,2 km/h (0 Bft) SW 228 0 min 0,000 mm 0,0 UV-I 0 W/m 9,8 C 10,3 C 1,6 km/h (1 Bft) 100,00 %
08.11.2015 02:11 10,3 C 97 % 1027,7 hPa 0,0 l/m 1,3 km/h (1 Bft) W-NW 286 0 min 0,000 mm 0,0 UV-I 0 W/m 9,8 C 10,3 C 3,2 km/h (1 Bft) 100,00 %
08.11.2015 02:12 10,2 C 96 % 1027,7 hPa 0,0 l/m 1,2 km/h (1 Bft) NW 311 0 min 0,000 mm 0,0 UV-I 0 W/m 9,6 C 10,2 C 1,6 km/h (1 Bft) 100,00 %
08.11.2015 02:13 10,1 C 96 % 1027,7 hPa 0,0 l/m 0,4 km/h (0 Bft) NW 311 0 min 0,000 mm 0,0 UV-I 0 W/m 9,5 C 10,1 C 1,6 km/h (1 Bft) 100,00 %
08.11.2015 02:14 9,9 C 95 % 1027,7 hPa 0,0 l/m 1,1 km/h (1 Bft) N 355 0 min 0,000 mm 0,0 UV-I 0 W/m 9,1 C 9,9 C 3,2 km/h (1 Bft) 100,00 %
08.11.2015 02:15 9,8 C 96 % 1027,8 hPa 0,0 l/m 0,4 km/h (0 Bft) N 355 0 min 0,000 mm 0,0 UV-I 0 W/m 9,2 C 9,8 C 1,6 km/h (1 Bft) 100,00 %
08.11.2015 02:16 9,8 C 96 % 1027,8 hPa 0,0 l/m 0,7 km/h (0 Bft) N 355 0 min 0,000 mm 0,0 UV-I 0 W/m 9,2 C 9,8 C 1,6 km/h (1 Bft) 100,00 %
08.11.2015 02:17 9,7 C 97 % 1027,7 hPa 0,0 l/m 0,1 km/h (0 Bft) N 355 0 min 0,000 mm 0,0 UV-I 0 W/m 9,2 C 9,7 C 1,6 km/h (1 Bft) 100,00 %
08.11.2015 02:18 9,8 C 97 % 1027,8 hPa 0,0 l/m 0,0 km/h (0 Bft) N 355 0 min 0,000 mm 0,0 UV-I 0 W/m 9,3 C 9,8 C 0,0 km/h (0 Bft) 100,00 %
08.11.2015 02:19 9,8 C 97 % 1027,8 hPa 0,0 l/m 0,0 km/h (0 Bft) N 355 0 min 0,000 mm 0,0 UV-I 0 W/m 9,3 C 9,8 C 0,0 km/h (0 Bft) 100,00 %
08.11.2015 02:20 9,8 C 97 % 1027,7 hPa 0,0 l/m 0,0 km/h (0 Bft) N 355 0 min 0,000 mm 0,0 UV-I 0 W/m 9,3 C 9,8 C 0,0 km/h (0 Bft) 100,00 %
08.11.2015 02:21 9,8 C 97 % 1027,7 hPa 0,0 l/m 0,0 km/h (0 Bft) N 355 0 min 0,000 mm 0,0 UV-I 0 W/m 9,3 C 9,8 C 0,0 km/h (0 Bft) 100,00 %
08.11.2015 02:22 9,9 C 98 % 1027,8 hPa 0,0 l/m 0,0 km/h (0 Bft) N 355 0 min 0,000 mm 0,0 UV-I 0 W/m 9,6 C 9,9 C 0,0 km/h (0 Bft) 95,65 %
08.11.2015 02:23 9,9 C 98 % 1027,8 hPa 0,0 l/m 0,0 km/h (0 Bft) N 355 0 min 0,000 mm 0,0 UV-I 0 W/m 9,6 C 9,9 C 0,0 km/h (0 Bft) 100,00 %
08.11.2015 02:24 9,9 C 98 % 1027,7 hPa 0,0 l/m 0,0 km/h (0 Bft) N 355 0 min 0,000 mm 0,0 UV-I 0 W/m 9,6 C 9,9 C 0,0 km/h (0 Bft) 100,00 %
08.11.2015 02:25 9,8 C 98 % 1027,7 hPa 0,0 l/m 0,0 km/h (0 Bft) N 355 0 min 0,000 mm 0,0 UV-I 0 W/m 9,5 C 9,8 C 0,0 km/h (0 Bft) 100,00 %
08.11.2015 02:26 9,8 C 97 % 1027,8 hPa 0,0 l/m 0,0 km/h (0 Bft) N 355 0 min 0,000 mm 0,0 UV-I 0 W/m 9,3 C 9,8 C 0,0 km/h (0 Bft) 100,00 %
08.11.2015 02:27 9,8 C 97 % 1027,8 hPa 0,0 l/m 0,0 km/h (0 Bft) N 355 0 min 0,000 mm 0,0 UV-I 0 W/m 9,3 C 9,8 C 0,0 km/h (0 Bft) 100,00 %
08.11.2015 02:28 9,8 C 97 % 1027,8 hPa 0,0 l/m 0,0 km/h (0 Bft) N 355 0 min 0,000 mm 0,0 UV-I 0 W/m 9,3 C 9,8 C 0,0 km/h (0 Bft) 100,00 %
08.11.2015 02:29 9,8 C 97 % 1027,8 hPa 0,0 l/m 0,1 km/h (0 Bft) N 355 0 min 0,000 mm 0,0 UV-I 0 W/m 9,3 C 9,8 C 1,6 km/h (1 Bft) 100,00 %
08.11.2015 02:30 9,8 C 97 % 1027,8 hPa 0,0 l/m 0,9 km/h (0 Bft) S 172 0 min 0,000 mm 0,0 UV-I 0 W/m 9,3 C 9,8 C 1,6 km/h (1 Bft) 100,00 %
08.11.2015 02:31 9,8 C 97 % 1027,8 hPa 0,0 l/m 0,4 km/h (0 Bft) S 172 0 min 0,000 mm 0,0 UV-I 0 W/m 9,3 C 9,8 C 1,6 km/h (1 Bft) 100,00 %
08.11.2015 02:32 9,8 C 97 % 1027,8 hPa 0,0 l/m 0,5 km/h (0 Bft) S 172 0 min 0,000 mm 0,0 UV-I 0 W/m 9,3 C 9,8 C 1,6 km/h (1 Bft) 95,83 %
08.11.2015 02:33 9,7 C 97 % 1027,8 hPa 0,0 l/m 0,3 km/h (0 Bft) S 172 0 min 0,000 mm 0,0 UV-I 0 W/m 9,2 C 9,7 C 1,6 km/h (1 Bft) 100,00 %
08.11.2015 02:34 9,7 C 97 % 1027,8 hPa 0,0 l/m 0,4 km/h (0 Bft) S 172 0 min 0,000 mm 0,0 UV-I 0 W/m 9,2 C 9,7 C 1,6 km/h (1 Bft) 100,00 %
08.11.2015 02:35 9,7 C 97 % 1027,8 hPa 0,0 l/m 0,0 km/h (0 Bft) S 172 0 min 0,000 mm 0,0 UV-I 0 W/m 9,2 C 9,7 C 0,0 km/h (0 Bft) 100,00 %
08.11.2015 02:36 9,6 C 97 % 1027,8 hPa 0,0 l/m 0,0 km/h (0 Bft) S 172 0 min 0,000 mm 0,0 UV-I 0 W/m 9,1 C 9,6 C 0,0 km/h (0 Bft) 100,00 %
08.11.2015 02:37 9,6 C 97 % 1027,8 hPa 0,0 l/m 0,3 km/h (0 Bft) S 172 0 min 0,000 mm 0,0 UV-I 0 W/m 9,1 C 9,6 C 1,6 km/h (1 Bft) 100,00 %
08.11.2015 02:38 9,6 C 97 % 1027,8 hPa 0,0 l/m 0,3 km/h (0 Bft) S 172 0 min 0,000 mm 0,0 UV-I 0 W/m 9,1 C 9,6 C 1,6 km/h (1 Bft) 96,30 %
08.11.2015 02:39 9,7 C 97 % 1027,8 hPa 0,0 l/m 0,1 km/h (0 Bft) S 172 0 min 0,000 mm 0,0 UV-I 0 W/m 9,2 C 9,7 C 1,6 km/h (1 Bft) 100,00 %
08.11.2015 02:40 9,7 C 97 % 1027,8 hPa 0,0 l/m 0,5 km/h (0 Bft) S 172 0 min 0,000 mm 0,0 UV-I 0 W/m 9,2 C 9,7 C 1,6 km/h (1 Bft) 100,00 %
08.11.2015 02:41 9,7 C 97 % 1027,8 hPa 0,0 l/m 0,1 km/h (0 Bft) S 172 0 min 0,000 mm 0,0 UV-I 0 W/m 9,2 C 9,7 C 1,6 km/h (1 Bft) 100,00 %
08.11.2015 02:42 9,7 C 97 % 1027,8 hPa 0,0 l/m 0,0 km/h (0 Bft) S 172 0 min 0,000 mm 0,0 UV-I 0 W/m 9,2 C 9,7 C 0,0 km/h (0 Bft) 100,00 %
08.11.2015 02:43 9,7 C 97 % 1027,8 hPa 0,0 l/m 0,1 km/h (0 Bft) S 172 0 min 0,000 mm 0,0 UV-I 0 W/m 9,2 C 9,7 C 1,6 km/h (1 Bft) 100,00 %
08.11.2015 02:44 9,8 C 97 % 1027,7 hPa 0,0 l/m 0,1 km/h (0 Bft) S 172 0 min 0,000 mm 0,0 UV-I 0 W/m 9,3 C 9,8 C 1,6 km/h (1 Bft) 95,83 %
08.11.2015 02:45 9,8 C 97 % 1027,8 hPa 0,0 l/m 0,0 km/h (0 Bft) S 172 0 min 0,000 mm 0,0 UV-I 0 W/m 9,3 C 9,8 C 0,0 km/h (0 Bft) 95,65 %
08.11.2015 02:46 9,8 C 97 % 1027,8 hPa 0,0 l/m 0,3 km/h (0 Bft) S 172 0 min 0,000 mm 0,0 UV-I 0 W/m 9,3 C 9,8 C 1,6 km/h (1 Bft) 95,83 %
08.11.2015 02:47 9,8 C 97 % 1027,8 hPa 0,0 l/m 0,3 km/h (0 Bft) S 172 0 min 0,000 mm 0,0 UV-I 0 W/m 9,3 C 9,8 C 1,6 km/h (1 Bft) 100,00 %
08.11.2015 02:48 9,9 C 97 % 1027,8 hPa 0,0 l/m 1,2 km/h (1 Bft) S 172 0 min 0,000 mm 0,0 UV-I 0 W/m 9,4 C 9,9 C 3,2 km/h (1 Bft) 100,00 %
08.11.2015 02:49 9,9 C 98 % 1027,8 hPa 0,0 l/m 1,7 km/h (1 Bft) S 176 0 min 0,000 mm 0,0 UV-I 0 W/m 9,6 C 9,9 C 3,2 km/h (1 Bft) 96,15 %
08.11.2015 02:50 9,9 C 98 % 1027,8 hPa 0,0 l/m 1,5 km/h (1 Bft) S 176 0 min 0,000 mm 0,0 UV-I 0 W/m 9,6 C 9,9 C 1,6 km/h (1 Bft) 100,00 %
08.11.2015 02:51 10,0 C 98 % 1027,7 hPa 0,0 l/m 0,9 km/h (0 Bft) S 176 0 min 0,000 mm 0,0 UV-I 0 W/m 9,7 C 10,0 C 3,2 km/h (1 Bft) 100,00 %
08.11.2015 02:52 10,0 C 97 % 1027,7 hPa 0,0 l/m 0,4 km/h (0 Bft) S 176 0 min 0,000 mm 0,0 UV-I 0 W/m 9,5 C 10,0 C 1,6 km/h (1 Bft) 95,83 %
08.11.2015 02:53 10,0 C 97 % 1027,7 hPa 0,0 l/m 2,0 km/h (1 Bft) S 185 0 min 0,000 mm 0,0 UV-I 0 W/m 9,5 C 10,0 C 3,2 km/h (1 Bft) 91,67 %
08.11.2015 02:54 10,0 C 97 % 1027,7 hPa 0,0 l/m 1,7 km/h (1 Bft) S-SW 196 0 min 0,000 mm 0,0 UV-I 0 W/m 9,5 C 10,0 C 3,2 km/h (1 Bft) 100,00 %
08.11.2015 02:55 10,0 C 97 % 1027,7 hPa 0,0 l/m 1,8 km/h (1 Bft) S-SW 196 0 min 0,000 mm 0,0 UV-I 0 W/m 9,5 C 10,0 C 3,2 km/h (1 Bft) 100,00 %
08.11.2015 02:56 10,1 C 97 % 1027,8 hPa 0,0 l/m 1,1 km/h (1 Bft) S-SW 196 0 min 0,000 mm 0,0 UV-I 0 W/m 9,6 C 10,1 C 1,6 km/h (1 Bft) 100,00 %
08.11.2015 02:57 10,0 C 97 % 1027,8 hPa 0,0 l/m 0,9 km/h (0 Bft) S-SW 196 0 min 0,000 mm 0,0 UV-I 0 W/m 9,5 C 10,0 C 1,6 km/h (1 Bft) 100,00 %
08.11.2015 02:58 10,0 C 97 % 1027,8 hPa 0,0 l/m 0,0 km/h (0 Bft) S-SW 196 0 min 0,000 mm 0,0 UV-I 0 W/m 9,5 C 10,0 C 0,0 km/h (0 Bft) 100,00 %
08.11.2015 02:59 10,0 C 97 % 1027,8 hPa 0,0 l/m 0,0 km/h (0 Bft) S-SW 196 0 min 0,000 mm 0,0 UV-I 0 W/m 9,5 C 10,0 C 0,0 km/h (0 Bft) 100,00 %
08.11.2015 03:00 10,0 C 97 % 1027,8 hPa 0,0 l/m 0,0 km/h (0 Bft) S-SW 196 0 min 0,000 mm 0,0 UV-I 0 W/m 9,5 C 10,0 C 0,0 km/h (0 Bft) 95,65 %
08.11.2015 03:01 9,9 C 97 % 1027,8 hPa 0,0 l/m 0,0 km/h (0 Bft) S-SW 196 0 min 0,000 mm 0,0 UV-I 0 W/m 9,4 C 9,9 C 0,0 km/h (0 Bft) 100,00 %
08.11.2015 03:02 10,0 C 97 % 1027,8 hPa 0,0 l/m 0,0 km/h (0 Bft) S-SW 196 0 min 0,000 mm 0,0 UV-I 0 W/m 9,5 C 10,0 C 0,0 km/h (0 Bft) 100,00 %
08.11.2015 03:03 9,9 C 97 % 1027,8 hPa 0,0 l/m 0,0 km/h (0 Bft) S-SW 196 0 min 0,000 mm 0,0 UV-I 0 W/m 9,4 C 9,9 C 0,0 km/h (0 Bft) 95,83 %
08.11.2015 03:04 9,9 C 97 % 1027,8 hPa 0,0 l/m 0,5 km/h (0 Bft) S-SW 196 0 min 0,000 mm 0,0 UV-I 0 W/m 9,4 C 9,9 C 1,6 km/h (1 Bft) 100,00 %
08.11.2015 03:05 9,9 C 97 % 1027,9 hPa 0,0 l/m 0,0 km/h (0 Bft) S-SW 196 0 min 0,000 mm 0,0 UV-I 0 W/m 9,4 C 9,9 C 0,0 km/h (0 Bft) 100,00 %
08.11.2015 03:06 9,9 C 97 % 1027,9 hPa 0,0 l/m 0,0 km/h (0 Bft) S-SW 196 0 min 0,000 mm 0,0 UV-I 0 W/m 9,4 C 9,9 C 0,0 km/h (0 Bft) 100,00 %
08.11.2015 03:07 9,9 C 97 % 1027,9 hPa 0,0 l/m 0,0 km/h (0 Bft) S-SW 196 0 min 0,000 mm 0,0 UV-I 0 W/m 9,4 C 9,9 C 0,0 km/h (0 Bft) 100,00 %
08.11.2015 03:08 9,9 C 97 % 1028,0 hPa 0,0 l/m 0,0 km/h (0 Bft) S-SW 196 0 min 0,000 mm 0,0 UV-I 0 W/m 9,4 C 9,9 C 0,0 km/h (0 Bft) 100,00 %
08.11.2015 03:09 9,9 C 97 % 1028,0 hPa 0,0 l/m 0,0 km/h (0 Bft) S-SW 196 0 min 0,000 mm 0,0 UV-I 0 W/m 9,4 C 9,9 C 0,0 km/h (0 Bft) 100,00 %
08.11.2015 03:10 9,9 C 97 % 1028,0 hPa 0,0 l/m 0,0 km/h (0 Bft) S-SW 196 0 min 0,000 mm 0,0 UV-I 0 W/m 9,4 C 9,9 C 0,0 km/h (0 Bft) 100,00 %
08.11.2015 03:11 9,9 C 97 % 1028,0 hPa 0,0 l/m 0,0 km/h (0 Bft) S-SW 196 0 min 0,000 mm 0,0 UV-I 0 W/m 9,4 C 9,9 C 0,0 km/h (0 Bft) 100,00 %
08.11.2015 03:12 9,9 C 97 % 1028,0 hPa 0,0 l/m 0,0 km/h (0 Bft) S-SW 196 0 min 0,000 mm 0,0 UV-I 0 W/m 9,4 C 9,9 C 0,0 km/h (0 Bft) 95,65 %
08.11.2015 03:13 9,9 C 97 % 1027,9 hPa 0,0 l/m 0,0 km/h (0 Bft) S-SW 196 0 min 0,000 mm 0,0 UV-I 0 W/m 9,4 C 9,9 C 0,0 km/h (0 Bft) 100,00 %
08.11.2015 03:14 9,9 C 97 % 1028,0 hPa 0,0 l/m 0,7 km/h (0 Bft) S-SW 196 0 min 0,000 mm 0,0 UV-I 0 W/m 9,4 C 9,9 C 1,6 km/h (1 Bft) 96,15 %
08.11.2015 03:15 9,9 C 97 % 1028,0 hPa 0,0 l/m 0,6 km/h (0 Bft) S-SW 196 0 min 0,000 mm 0,0 UV-I 0 W/m 9,4 C 9,9 C 1,6 km/h (1 Bft) 100,00 %
08.11.2015 03:16 9,9 C 97 % 1028,0 hPa 0,0 l/m 0,1 km/h (0 Bft) S-SW 196 0 min 0,000 mm 0,0 UV-I 0 W/m 9,4 C 9,9 C 1,6 km/h (1 Bft) 100,00 %
08.11.2015 03:17 9,8 C 97 % 1028,0 hPa 0,0 l/m 0,1 km/h (0 Bft) S-SW 196 0 min 0,000 mm 0,0 UV-I 0 W/m 9,3 C 9,8 C 1,6 km/h (1 Bft) 96,43 %
08.11.2015 03:18 9,8 C 97 % 1028,1 hPa 0,0 l/m 0,1 km/h (0 Bft) S-SW 196 0 min 0,000 mm 0,0 UV-I 0 W/m 9,3 C 9,8 C 1,6 km/h (1 Bft) 100,00 %
08.11.2015 03:19 9,8 C 97 % 1028,1 hPa 0,0 l/m 0,0 km/h (0 Bft) S-SW 196 0 min 0,000 mm 0,0 UV-I 0 W/m 9,3 C 9,8 C 0,0 km/h (0 Bft) 100,00 %
08.11.2015 03:20 9,8 C 97 % 1028,1 hPa 0,0 l/m 0,3 km/h (0 Bft) S-SW 196 0 min 0,000 mm 0,0 UV-I 0 W/m 9,3 C 9,8 C 1,6 km/h (1 Bft) 100,00 %
08.11.2015 03:21 9,8 C 97 % 1028,1 hPa 0,0 l/m 0,7 km/h (0 Bft) S-SW 196 0 min 0,000 mm 0,0 UV-I 0 W/m 9,3 C 9,8 C 1,6 km/h (1 Bft) 100,00 %
08.11.2015 03:22 9,8 C 97 % 1028,2 hPa 0,0 l/m 0,0 km/h (0 Bft) S-SW 196 0 min 0,000 mm 0,0 UV-I 0 W/m 9,3 C 9,8 C 0,0 km/h (0 Bft) 100,00 %
08.11.2015 03:23 9,8 C 97 % 1028,2 hPa 0,0 l/m 0,0 km/h (0 Bft) S-SW 196 0 min 0,000 mm 0,0 UV-I 0 W/m 9,3 C 9,8 C 0,0 km/h (0 Bft) 100,00 %
08.11.2015 03:24 9,8 C 97 % 1028,2 hPa 0,0 l/m 0,4 km/h (0 Bft) S-SW 196 0 min 0,000 mm 0,0 UV-I 0 W/m 9,3 C 9,8 C 1,6 km/h (1 Bft) 100,00 %
08.11.2015 03:25 9,8 C 97 % 1028,2 hPa 0,0 l/m 0,2 km/h (0 Bft) S-SW 196 0 min 0,000 mm 0,0 UV-I 0 W/m 9,3 C 9,8 C 1,6 km/h (1 Bft) 100,00 %
08.11.2015 03:26 9,8 C 97 % 1028,3 hPa 0,0 l/m 0,6 km/h (0 Bft) S-SW 196 0 min 0,000 mm 0,0 UV-I 0 W/m 9,3 C 9,8 C 1,6 km/h (1 Bft) 100,00 %
08.11.2015 03:27 9,9 C 97 % 1028,2 hPa 0,0 l/m 2,1 km/h (1 Bft) S-SW 202 0 min 0,000 mm 0,0 UV-I 0 W/m 9,4 C 9,9 C 3,2 km/h (1 Bft) 100,00 %
08.11.2015 03:28 9,9 C 97 % 1028,2 hPa 0,0 l/m 1,6 km/h (1 Bft) S-SW 202 0 min 0,000 mm 0,0 UV-I 0 W/m 9,4 C 9,9 C 3,2 km/h (1 Bft) 100,00 %
08.11.2015 03:29 10,0 C 98 % 1028,2 hPa 0,0 l/m 1,7 km/h (1 Bft) S-SW 202 0 min 0,000 mm 0,0 UV-I 0 W/m 9,7 C 10,0 C 3,2 km/h (1 Bft) 96,15 %
08.11.2015 03:30 10,1 C 98 % 1028,2 hPa 0,0 l/m 1,9 km/h (1 Bft) S-SW 202 0 min 0,000 mm 0,0 UV-I 0 W/m 9,8 C 10,1 C 3,2 km/h (1 Bft) 100,00 %
08.11.2015 03:31 10,1 C 97 % 1028,2 hPa 0,0 l/m 1,6 km/h (1 Bft) S-SW 202 0 min 0,000 mm 0,0 UV-I 0 W/m 9,6 C 10,1 C 3,2 km/h (1 Bft) 100,00 %
08.11.2015 03:32 10,1 C 97 % 1028,1 hPa 0,0 l/m 2,5 km/h (1 Bft) S-SW 204 0 min 0,000 mm 0,0 UV-I 0 W/m 9,6 C 10,1 C 3,2 km/h (1 Bft) 100,00 %
08.11.2015 03:33 10,2 C 97 % 1028,2 hPa 0,0 l/m 2,0 km/h (1 Bft) S-SW 211 0 min 0,000 mm 0,0 UV-I 0 W/m 9,7 C 10,2 C 3,2 km/h (1 Bft) 100,00 %
08.11.2015 03:34 10,2 C 97 % 1028,2 hPa 0,0 l/m 2,4 km/h (1 Bft) S-SW 197 0 min 0,000 mm 0,0 UV-I 0 W/m 9,7 C 10,2 C 3,2 km/h (1 Bft) 100,00 %
08.11.2015 03:35 10,2 C 97 % 1028,2 hPa 0,0 l/m 1,4 km/h (1 Bft) S-SW 197 0 min 0,000 mm 0,0 UV-I 0 W/m 9,7 C 10,2 C 1,6 km/h (1 Bft) 100,00 %
08.11.2015 03:36 10,2 C 97 % 1028,2 hPa 0,0 l/m 0,9 km/h (0 Bft) S-SW 197 0 min 0,000 mm 0,0 UV-I 0 W/m 9,7 C 10,2 C 1,6 km/h (1 Bft) 100,00 %
08.11.2015 03:37 10,2 C 97 % 1028,2 hPa 0,0 l/m 0,3 km/h (0 Bft) S-SW 197 0 min 0,000 mm 0,0 UV-I 0 W/m 9,7 C 10,2 C 1,6 km/h (1 Bft) 96,30 %
08.11.2015 03:38 10,3 C 97 % 1028,2 hPa 0,0 l/m 0,7 km/h (0 Bft) S-SW 197 0 min 0,000 mm 0,0 UV-I 0 W/m 9,8 C 10,3 C 1,6 km/h (1 Bft) 100,00 %
08.11.2015 03:39 10,3 C 97 % 1028,3 hPa 0,0 l/m 0,4 km/h (0 Bft) S-SW 197 0 min 0,000 mm 0,0 UV-I 0 W/m 9,8 C 10,3 C 3,2 km/h (1 Bft) 100,00 %
08.11.2015 03:40 10,3 C 97 % 1028,3 hPa 0,0 l/m 1,7 km/h (1 Bft) S-SW 197 0 min 0,000 mm 0,0 UV-I 0 W/m 9,8 C 10,3 C 3,2 km/h (1 Bft) 100,00 %
08.11.2015 03:41 10,3 C 97 % 1028,4 hPa 0,0 l/m 1,1 km/h (1 Bft) S-SW 197 0 min 0,000 mm 0,0 UV-I 0 W/m 9,8 C 10,3 C 1,6 km/h (1 Bft) 100,00 %
08.11.2015 03:42 10,4 C 97 % 1028,4 hPa 0,0 l/m 0,0 km/h (0 Bft) S-SW 197 0 min 0,000 mm 0,0 UV-I 0 W/m 9,9 C 10,4 C 0,0 km/h (0 Bft) 100,00 %
08.11.2015 03:43 10,4 C 97 % 1028,4 hPa 0,0 l/m 0,3 km/h (0 Bft) S-SW 197 0 min 0,000 mm 0,0 UV-I 0 W/m 9,9 C 10,4 C 1,6 km/h (1 Bft) 100,00 %
08.11.2015 03:44 10,4 C 97 % 1028,4 hPa 0,0 l/m 0,2 km/h (0 Bft) S-SW 197 0 min 0,000 mm 0,0 UV-I 0 W/m 9,9 C 10,4 C 1,6 km/h (1 Bft) 100,00 %
08.11.2015 03:45 10,4 C 97 % 1028,4 hPa 0,0 l/m 0,2 km/h (0 Bft) S-SW 197 0 min 0,000 mm 0,0 UV-I 0 W/m 9,9 C 10,4 C 1,6 km/h (1 Bft) 100,00 %
08.11.2015 03:46 10,4 C 97 % 1028,5 hPa 0,0 l/m 0,8 km/h (0 Bft) S-SW 197 0 min 0,000 mm 0,0 UV-I 0 W/m 9,9 C 10,4 C 1,6 km/h (1 Bft) 96,15 %
08.11.2015 03:47 10,4 C 97 % 1028,5 hPa 0,0 l/m 0,9 km/h (0 Bft) S-SW 197 0 min 0,000 mm 0,0 UV-I 0 W/m 9,9 C 10,4 C 1,6 km/h (1 Bft) 100,00 %
08.11.2015 03:48 10,4 C 97 % 1028,5 hPa 0,0 l/m 0,9 km/h (0 Bft) S-SW 197 0 min 0,000 mm 0,0 UV-I 0 W/m 9,9 C 10,4 C 1,6 km/h (1 Bft) 100,00 %
08.11.2015 03:49 10,4 C 96 % 1028,5 hPa 0,0 l/m 1,3 km/h (1 Bft) S-SW 197 0 min 0,000 mm 0,0 UV-I 0 W/m 9,8 C 10,4 C 3,2 km/h (1 Bft) 100,00 %
08.11.2015 03:50 10,5 C 96 % 1028,5 hPa 0,0 l/m 2,2 km/h (1 Bft) S-SW 197 0 min 0,000 mm 0,0 UV-I 0 W/m 9,9 C 10,5 C 3,2 km/h (1 Bft) 100,00 %
08.11.2015 03:51 10,5 C 96 % 1028,5 hPa 0,0 l/m 1,9 km/h (1 Bft) S-SW 197 0 min 0,000 mm 0,0 UV-I 0 W/m 9,9 C 10,5 C 3,2 km/h (1 Bft) 95,83 %
08.11.2015 03:52 10,5 C 96 % 1028,5 hPa 0,0 l/m 2,3 km/h (1 Bft) S-SW 205 0 min 0,000 mm 0,0 UV-I 0 W/m 9,9 C 10,5 C 3,2 km/h (1 Bft) 100,00 %
08.11.2015 03:53 10,4 C 96 % 1028,5 hPa 0,0 l/m 1,5 km/h (1 Bft) S-SW 205 0 min 0,000 mm 0,0 UV-I 0 W/m 9,8 C 10,4 C 3,2 km/h (1 Bft) 95,83 %
08.11.2015 03:54 10,4 C 96 % 1028,6 hPa 0,0 l/m 0,9 km/h (0 Bft) S-SW 205 0 min 0,000 mm 0,0 UV-I 0 W/m 9,8 C 10,4 C 1,6 km/h (1 Bft) 100,00 %
08.11.2015 03:55 10,4 C 96 % 1028,5 hPa 0,0 l/m 1,6 km/h (1 Bft) SW 229 0 min 0,000 mm 0,0 UV-I 0 W/m 9,8 C 10,4 C 3,2 km/h (1 Bft) 100,00 %
08.11.2015 03:56 10,4 C 97 % 1028,6 hPa 0,0 l/m 1,9 km/h (1 Bft) W-SW 241 0 min 0,000 mm 0,0 UV-I 0 W/m 9,9 C 10,4 C 3,2 km/h (1 Bft) 100,00 %
08.11.2015 03:57 10,4 C 97 % 1028,7 hPa 0,0 l/m 2,1 km/h (1 Bft) W-SW 241 0 min 0,000 mm 0,0 UV-I 0 W/m 9,9 C 10,4 C 3,2 km/h (1 Bft) 100,00 %
08.11.2015 03:58 10,4 C 97 % 1028,8 hPa 0,0 l/m 1,6 km/h (1 Bft) W 270 0 min 0,000 mm 0,0 UV-I 0 W/m 9,9 C 10,4 C 3,2 km/h (1 Bft) 91,67 %
08.11.2015 03:59 10,4 C 97 % 1029,0 hPa 0,0 l/m 2,9 km/h (1 Bft) SW 225 0 min 0,000 mm 0,0 UV-I 0 W/m 9,9 C 10,4 C 4,8 km/h (1 Bft) 100,00 %
08.11.2015 04:00 10,4 C 97 % 1029,0 hPa 0,0 l/m 2,7 km/h (1 Bft) SW 228 0 min 0,000 mm 0,0 UV-I 0 W/m 9,9 C 10,4 C 3,2 km/h (1 Bft) 95,83 %
08.11.2015 04:01 10,4 C 97 % 1029,0 hPa 0,0 l/m 2,5 km/h (1 Bft) SW 216 0 min 0,000 mm 0,0 UV-I 0 W/m 9,9 C 10,4 C 3,2 km/h (1 Bft) 100,00 %
08.11.2015 04:02 10,4 C 96 % 1028,9 hPa 0,0 l/m 2,5 km/h (1 Bft) S-SW 192 0 min 0,000 mm 0,0 UV-I 0 W/m 9,8 C 10,4 C 3,2 km/h (1 Bft) 100,00 %
08.11.2015 04:03 10,4 C 97 % 1028,9 hPa 0,0 l/m 2,7 km/h (1 Bft) S-SW 213 0 min 0,000 mm 0,0 UV-I 0 W/m 9,9 C 10,4 C 4,8 km/h (1 Bft) 95,65 %
08.11.2015 04:04 10,4 C 96 % 1028,8 hPa 0,0 l/m 2,4 km/h (1 Bft) SW 217 0 min 0,000 mm 0,0 UV-I 0 W/m 9,8 C 10,4 C 4,8 km/h (1 Bft) 100,00 %
08.11.2015 04:05 10,4 C 96 % 1028,7 hPa 0,0 l/m 3,9 km/h (1 Bft) S-SW 192 0 min 0,000 mm 0,0 UV-I 0 W/m 9,8 C 10,4 C 4,8 km/h (1 Bft) 100,00 %
08.11.2015 04:06 10,4 C 96 % 1028,6 hPa 0,0 l/m 4,3 km/h (1 Bft) S 188 0 min 0,000 mm 0,0 UV-I 0 W/m 9,8 C 10,4 C 8,0 km/h (2 Bft) 100,00 %
08.11.2015 04:07 10,4 C 97 % 1028,6 hPa 0,0 l/m 3,6 km/h (1 Bft) S-SW 194 0 min 0,000 mm 0,0 UV-I 0 W/m 9,9 C 10,4 C 4,8 km/h (1 Bft) 100,00 %
08.11.2015 04:08 10,4 C 97 % 1028,6 hPa 0,0 l/m 4,2 km/h (1 Bft) S 191 0 min 0,000 mm 0,0 UV-I 0 W/m 9,9 C 10,4 C 6,4 km/h (2 Bft) 100,00 %
08.11.2015 04:09 10,4 C 97 % 1028,6 hPa 0,0 l/m 4,1 km/h (1 Bft) S-SW 212 0 min 0,000 mm 0,0 UV-I 0 W/m 9,9 C 10,4 C 6,4 km/h (2 Bft) 99,43 %
08.11.2015 04:10 10,5 C 97 % 1028,6 hPa 0,0 l/m 4,6 km/h (1 Bft) S-SW 204 0 min 0,000 mm 0,0 UV-I 0 W/m 10,0 C 10,5 C 6,4 km/h (2 Bft) 100,00 %
08.11.2015 04:11 10,5 C 97 % 1028,6 hPa 0,0 l/m 5,1 km/h (1 Bft) S-SW 209 0 min 0,000 mm 0,0 UV-I 0 W/m 10,0 C 10,5 C 6,4 km/h (2 Bft) 100,00 %
08.11.2015 04:12 10,6 C 96 % 1028,6 hPa 0,0 l/m 3,9 km/h (1 Bft) S-SW 205 0 min 0,000 mm 0,0 UV-I 0 W/m 10,0 C 10,6 C 6,4 km/h (2 Bft) 100,00 %
08.11.2015 04:13 10,6 C 96 % 1028,6 hPa 0,0 l/m 6,7 km/h (2 Bft) S-SW 208 0 min 0,000 mm 0,0 UV-I 0 W/m 10,0 C 10,4 C 11,3 km/h (2 Bft) 100,00 %
08.11.2015 04:14 10,6 C 96 % 1028,6 hPa 0,0 l/m 7,0 km/h (2 Bft) S-SW 200 0 min 0,000 mm 0,0 UV-I 0 W/m 10,0 C 10,2 C 9,7 km/h (2 Bft) 100,00 %
08.11.2015 04:15 10,7 C 96 % 1028,6 hPa 0,0 l/m 6,3 km/h (2 Bft) S 191 0 min 0,000 mm 0,0 UV-I 0 W/m 10,1 C 10,7 C 8,0 km/h (2 Bft) 100,00 %
08.11.2015 04:16 10,7 C 96 % 1028,7 hPa 0,0 l/m 8,2 km/h (2 Bft) S-SW 213 0 min 0,000 mm 0,0 UV-I 0 W/m 10,1 C 9,5 C 12,9 km/h (3 Bft) 100,00 %
08.11.2015 04:17 10,7 C 96 % 1028,7 hPa 0,0 l/m 7,6 km/h (2 Bft) SW 229 0 min 0,000 mm 0,0 UV-I 0 W/m 10,1 C 9,9 C 9,7 km/h (2 Bft) 100,00 %
08.11.2015 04:18 10,7 C 96 % 1028,7 hPa 0,0 l/m 7,1 km/h (2 Bft) S-SW 207 0 min 0,000 mm 0,0 UV-I 0 W/m 10,1 C 10,2 C 9,7 km/h (2 Bft) 100,00 %
08.11.2015 04:19 10,7 C 96 % 1028,7 hPa 0,0 l/m 6,6 km/h (2 Bft) SW 223 0 min 0,000 mm 0,0 UV-I 0 W/m 10,1 C 10,6 C 9,7 km/h (2 Bft) 100,00 %
08.11.2015 04:20 10,7 C 96 % 1028,7 hPa 0,0 l/m 7,4 km/h (2 Bft) SW 226 0 min 0,000 mm 0,0 UV-I 0 W/m 10,1 C 10,0 C 9,7 km/h (2 Bft) 100,00 %
08.11.2015 04:21 10,7 C 96 % 1028,8 hPa 0,0 l/m 8,1 km/h (2 Bft) W-SW 240 0 min 0,000 mm 0,0 UV-I 0 W/m 10,1 C 9,5 C 11,3 km/h (2 Bft) 100,00 %
08.11.2015 04:22 10,7 C 96 % 1028,8 hPa 0,0 l/m 6,0 km/h (2 Bft) SW 229 0 min 0,000 mm 0,0 UV-I 0 W/m 10,1 C 10,7 C 8,0 km/h (2 Bft) 100,00 %
08.11.2015 04:23 10,7 C 96 % 1028,9 hPa 0,0 l/m 4,0 km/h (1 Bft) SW 231 0 min 0,000 mm 0,0 UV-I 0 W/m 10,1 C 10,7 C 8,0 km/h (2 Bft) 95,83 %
08.11.2015 04:24 10,7 C 96 % 1028,9 hPa 0,0 l/m 2,1 km/h (1 Bft) SW 233 0 min 0,000 mm 0,0 UV-I 0 W/m 10,1 C 10,7 C 3,2 km/h (1 Bft) 100,00 %
08.11.2015 04:25 10,7 C 96 % 1028,9 hPa 0,0 l/m 2,8 km/h (1 Bft) W-SW 244 0 min 0,000 mm 0,0 UV-I 0 W/m 10,1 C 10,7 C 4,8 km/h (1 Bft) 100,00 %
08.11.2015 04:26 10,7 C 96 % 1029,0 hPa 0,0 l/m 3,5 km/h (1 Bft) SW 226 0 min 0,000 mm 0,0 UV-I 0 W/m 10,1 C 10,7 C 4,8 km/h (1 Bft) 100,00 %
08.11.2015 04:27 10,7 C 96 % 1028,9 hPa 0,0 l/m 3,4 km/h (1 Bft) SW 232 0 min 0,000 mm 0,0 UV-I 0 W/m 10,1 C 10,7 C 4,8 km/h (1 Bft) 100,00 %
08.11.2015 04:28 10,6 C 96 % 1028,9 hPa 0,0 l/m 4,2 km/h (1 Bft) W-SW 241 0 min 0,000 mm 0,0 UV-I 0 W/m 10,0 C 10,6 C 6,4 km/h (2 Bft) 100,00 %
08.11.2015 04:29 10,6 C 96 % 1029,0 hPa 0,0 l/m 3,3 km/h (1 Bft) SW 232 0 min 0,000 mm 0,0 UV-I 0 W/m 10,0 C 10,6 C 4,8 km/h (1 Bft) 100,00 %
08.11.2015 04:30 10,6 C 96 % 1029,0 hPa 0,0 l/m 3,4 km/h (1 Bft) SW 219 0 min 0,000 mm 0,0 UV-I 0 W/m 10,0 C 10,6 C 6,4 km/h (2 Bft) 91,67 %
08.11.2015 04:31 10,6 C 96 % 1029,0 hPa 0,0 l/m 1,8 km/h (1 Bft) S-SW 205 0 min 0,000 mm 0,0 UV-I 0 W/m 10,0 C 10,6 C 4,8 km/h (1 Bft) 100,00 %
08.11.2015 04:32 10,6 C 96 % 1029,0 hPa 0,0 l/m 3,0 km/h (1 Bft) SW 222 0 min 0,000 mm 0,0 UV-I 0 W/m 10,0 C 10,6 C 4,8 km/h (1 Bft) 100,00 %
08.11.2015 04:33 10,6 C 96 % 1029,0 hPa 0,0 l/m 3,6 km/h (1 Bft) SW 221 0 min 0,000 mm 0,0 UV-I 0 W/m 10,0 C 10,6 C 4,8 km/h (1 Bft) 100,00 %
08.11.2015 04:34 10,6 C 96 % 1029,1 hPa 0,0 l/m 3,2 km/h (1 Bft) SW 226 0 min 0,000 mm 0,0 UV-I 0 W/m 10,0 C 10,6 C 4,8 km/h (1 Bft) 100,00 %
08.11.2015 04:35 10,7 C 96 % 1029,1 hPa 0,0 l/m 3,2 km/h (1 Bft) SW 234 0 min 0,000 mm 0,0 UV-I 0 W/m 10,1 C 10,7 C 4,8 km/h (1 Bft) 100,00 %
08.11.2015 04:36 10,7 C 96 % 1029,0 hPa 0,0 l/m 3,4 km/h (1 Bft) SW 231 0 min 0,000 mm 0,0 UV-I 0 W/m 10,1 C 10,7 C 4,8 km/h (1 Bft) 100,00 %
08.11.2015 04:37 10,7 C 96 % 1029,0 hPa 0,0 l/m 3,0 km/h (1 Bft) SW 223 0 min 0,000 mm 0,0 UV-I 0 W/m 10,1 C 10,7 C 4,8 km/h (1 Bft) 100,00 %
08.11.2015 04:38 10,7 C 96 % 1029,0 hPa 0,0 l/m 3,6 km/h (1 Bft) S-SW 205 0 min 0,000 mm 0,0 UV-I 0 W/m 10,1 C 10,7 C 6,4 km/h (2 Bft) 100,00 %
08.11.2015 04:39 10,7 C 96 % 1029,0 hPa 0,0 l/m 4,6 km/h (1 Bft) S-SW 207 0 min 0,000 mm 0,0 UV-I 0 W/m 10,1 C 10,7 C 8,0 km/h (2 Bft) 100,00 %
08.11.2015 04:40 10,7 C 96 % 1029,0 hPa 0,0 l/m 5,5 km/h (1 Bft) S-SW 212 0 min 0,000 mm 0,0 UV-I 0 W/m 10,1 C 10,7 C 8,0 km/h (2 Bft) 100,00 %
08.11.2015 04:41 10,7 C 96 % 1029,0 hPa 0,0 l/m 5,1 km/h (1 Bft) S-SW 204 0 min 0,000 mm 0,0 UV-I 0 W/m 10,1 C 10,7 C 8,0 km/h (2 Bft) 100,00 %
08.11.2015 04:42 10,7 C 96 % 1029,0 hPa 0,0 l/m 4,8 km/h (1 Bft) SW 214 0 min 0,000 mm 0,0 UV-I 0 W/m 10,1 C 10,7 C 6,4 km/h (2 Bft) 100,00 %
08.11.2015 04:43 10,8 C 96 % 1029,0 hPa 0,0 l/m 4,9 km/h (1 Bft) S-SW 213 0 min 0,000 mm 0,0 UV-I 0 W/m 10,2 C 10,8 C 6,4 km/h (2 Bft) 96,15 %
08.11.2015 04:44 10,8 C 96 % 1028,9 hPa 0,0 l/m 3,8 km/h (1 Bft) S-SW 208 0 min 0,000 mm 0,0 UV-I 0 W/m 10,2 C 10,8 C 4,8 km/h (1 Bft) 100,00 %
08.11.2015 04:45 10,8 C 96 % 1028,9 hPa 0,0 l/m 2,2 km/h (1 Bft) S-SW 192 0 min 0,000 mm 0,0 UV-I 0 W/m 10,2 C 10,8 C 4,8 km/h (1 Bft) 100,00 %
08.11.2015 04:46 10,8 C 96 % 1028,9 hPa 0,0 l/m 4,0 km/h (1 Bft) S-SW 204 0 min 0,000 mm 0,0 UV-I 0 W/m 10,2 C 10,8 C 8,0 km/h (2 Bft) 100,00 %
08.11.2015 04:47 10,8 C 96 % 1028,9 hPa 0,0 l/m 2,9 km/h (1 Bft) S-SW 205 0 min 0,000 mm 0,0 UV-I 0 W/m 10,2 C 10,8 C 4,8 km/h (1 Bft) 100,00 %
08.11.2015 04:48 10,8 C 96 % 1028,8 hPa 0,0 l/m 3,3 km/h (1 Bft) S-SW 204 0 min 0,000 mm 0,0 UV-I 0 W/m 10,2 C 10,8 C 4,8 km/h (1 Bft) 100,00 %
08.11.2015 04:49 10,8 C 96 % 1028,8 hPa 0,0 l/m 3,0 km/h (1 Bft) SW 216 0 min 0,000 mm 0,0 UV-I 0 W/m 10,2 C 10,8 C 4,8 km/h (1 Bft) 100,00 %
08.11.2015 04:50 10,8 C 96 % 1028,9 hPa 0,0 l/m 2,6 km/h (1 Bft) S-SW 209 0 min 0,000 mm 0,0 UV-I 0 W/m 10,2 C 10,8 C 4,8 km/h (1 Bft) 95,83 %
08.11.2015 04:51 10,8 C 95 % 1028,9 hPa 0,0 l/m 3,0 km/h (1 Bft) S-SW 192 0 min 0,000 mm 0,0 UV-I 0 W/m 10,0 C 10,8 C 4,8 km/h (1 Bft) 100,00 %
08.11.2015 04:52 10,8 C 95 % 1028,8 hPa 0,0 l/m 3,1 km/h (1 Bft) S-SW 198 0 min 0,000 mm 0,0 UV-I 0 W/m 10,0 C 10,8 C 4,8 km/h (1 Bft) 95,83 %
08.11.2015 04:53 10,8 C 95 % 1028,8 hPa 0,0 l/m 3,6 km/h (1 Bft) S-SW 200 0 min 0,000 mm 0,0 UV-I 0 W/m 10,0 C 10,8 C 4,8 km/h (1 Bft) 100,00 %
08.11.2015 04:54 10,8 C 95 % 1028,8 hPa 0,0 l/m 2,6 km/h (1 Bft) SW 220 0 min 0,000 mm 0,0 UV-I 0 W/m 10,0 C 10,8 C 3,2 km/h (1 Bft) 100,00 %
08.11.2015 04:55 10,8 C 95 % 1028,8 hPa 0,0 l/m 3,1 km/h (1 Bft) S 188 0 min 0,000 mm 0,0 UV-I 0 W/m 10,0 C 10,8 C 4,8 km/h (1 Bft) 100,00 %
08.11.2015 04:56 10,8 C 95 % 1028,8 hPa 0,0 l/m 2,4 km/h (1 Bft) S-SW 212 0 min 0,000 mm 0,0 UV-I 0 W/m 10,0 C 10,8 C 4,8 km/h (1 Bft) 100,00 %
08.11.2015 04:57 10,8 C 95 % 1028,8 hPa 0,0 l/m 3,6 km/h (1 Bft) SW 229 0 min 0,000 mm 0,0 UV-I 0 W/m 10,0 C 10,8 C 4,8 km/h (1 Bft) 100,00 %
08.11.2015 04:58 10,8 C 95 % 1028,8 hPa 0,0 l/m 2,8 km/h (1 Bft) SW 217 0 min 0,000 mm 0,0 UV-I 0 W/m 10,0 C 10,8 C 4,8 km/h (1 Bft) 95,65 %
08.11.2015 04:59 10,8 C 95 % 1028,8 hPa 0,0 l/m 2,7 km/h (1 Bft) SW 221 0 min 0,000 mm 0,0 UV-I 0 W/m 10,0 C 10,8 C 4,8 km/h (1 Bft) 96,30 %
08.11.2015 05:00 10,7 C 95 % 1028,8 hPa 0,0 l/m 3,8 km/h (1 Bft) SW 236 0 min 0,000 mm 0,0 UV-I 0 W/m 9,9 C 10,7 C 4,8 km/h (1 Bft) 100,00 %
08.11.2015 05:01 10,7 C 96 % 1028,9 hPa 0,0 l/m 4,0 km/h (1 Bft) SW 232 0 min 0,000 mm 0,0 UV-I 0 W/m 10,1 C 10,7 C 4,8 km/h (1 Bft) 100,00 %
08.11.2015 05:02 10,7 C 96 % 1028,9 hPa 0,0 l/m 3,4 km/h (1 Bft) SW 225 0 min 0,000 mm 0,0 UV-I 0 W/m 10,1 C 10,7 C 4,8 km/h (1 Bft) 100,00 %
08.11.2015 05:03 10,7 C 96 % 1028,9 hPa 0,0 l/m 2,0 km/h (1 Bft) W-NW 286 0 min 0,000 mm 0,0 UV-I 0 W/m 10,1 C 10,7 C 3,2 km/h (1 Bft) 100,00 %
08.11.2015 05:04 10,7 C 96 % 1028,9 hPa 0,0 l/m 1,9 km/h (1 Bft) W 265 0 min 0,000 mm 0,0 UV-I 0 W/m 10,1 C 10,7 C 3,2 km/h (1 Bft) 100,00 %
08.11.2015 05:05 10,7 C 96 % 1028,9 hPa 0,0 l/m 2,2 km/h (1 Bft) W 272 0 min 0,000 mm 0,0 UV-I 0 W/m 10,1 C 10,7 C 4,8 km/h (1 Bft) 91,67 %
08.11.2015 05:06 10,7 C 96 % 1028,9 hPa 0,0 l/m 2,4 km/h (1 Bft) W-NW 283 0 min 0,000 mm 0,0 UV-I 0 W/m 10,1 C 10,7 C 3,2 km/h (1 Bft) 100,00 %
08.11.2015 05:07 10,7 C 96 % 1029,0 hPa 0,0 l/m 2,5 km/h (1 Bft) W-NW 286 0 min 0,000 mm 0,0 UV-I 0 W/m 10,1 C 10,7 C 3,2 km/h (1 Bft) 100,00 %
08.11.2015 05:08 10,7 C 96 % 1029,0 hPa 0,0 l/m 2,3 km/h (1 Bft) W-NW 285 0 min 0,000 mm 0,0 UV-I 0 W/m 10,1 C 10,7 C 4,8 km/h (1 Bft) 96,15 %
08.11.2015 05:09 10,7 C 96 % 1029,0 hPa 0,0 l/m 2,7 km/h (1 Bft) W-SW 244 0 min 0,000 mm 0,0 UV-I 0 W/m 10,1 C 10,7 C 3,2 km/h (1 Bft) 100,00 %
08.11.2015 05:10 10,7 C 96 % 1029,0 hPa 0,0 l/m 1,7 km/h (1 Bft) W-SW 246 0 min 0,000 mm 0,0 UV-I 0 W/m 10,1 C 10,7 C 4,8 km/h (1 Bft) 100,00 %
08.11.2015 05:11 10,7 C 96 % 1029,0 hPa 0,0 l/m 0,4 km/h (0 Bft) W-SW 246 0 min 0,000 mm 0,0 UV-I 0 W/m 10,1 C 10,7 C 1,6 km/h (1 Bft) 100,00 %
08.11.2015 05:12 10,7 C 96 % 1029,0 hPa 0,0 l/m 1,8 km/h (1 Bft) W-SW 246 0 min 0,000 mm 0,0 UV-I 0 W/m 10,1 C 10,7 C 3,2 km/h (1 Bft) 100,00 %
08.11.2015 05:13 10,7 C 96 % 1029,0 hPa 0,0 l/m 1,3 km/h (1 Bft) W-SW 246 0 min 0,000 mm 0,0 UV-I 0 W/m 10,1 C 10,7 C 1,6 km/h (1 Bft) 100,00 %
08.11.2015 05:14 10,7 C 96 % 1029,0 hPa 0,0 l/m 1,0 km/h (0 Bft) W-SW 246 0 min 0,000 mm 0,0 UV-I 0 W/m 10,1 C 10,7 C 1,6 km/h (1 Bft) 100,00 %
08.11.2015 05:15 10,6 C 96 % 1029,0 hPa 0,0 l/m 1,2 km/h (1 Bft) W-SW 246 0 min 0,000 mm 0,0 UV-I 0 W/m 10,0 C 10,6 C 3,2 km/h (1 Bft) 100,00 %
08.11.2015 05:16 10,6 C 96 % 1029,0 hPa 0,0 l/m 1,6 km/h (1 Bft) W-SW 246 0 min 0,000 mm 0,0 UV-I 0 W/m 10,0 C 10,6 C 3,2 km/h (1 Bft) 100,00 %
08.11.2015 05:17 10,6 C 96 % 1028,9 hPa 0,0 l/m 1,9 km/h (1 Bft) W-SW 246 0 min 0,000 mm 0,0 UV-I 0 W/m 10,0 C 10,6 C 3,2 km/h (1 Bft) 100,00 %
08.11.2015 05:18 10,6 C 96 % 1028,9 hPa 0,0 l/m 1,7 km/h (1 Bft) W-SW 245 0 min 0,000 mm 0,0 UV-I 0 W/m 10,0 C 10,6 C 3,2 km/h (1 Bft) 100,00 %
08.11.2015 05:19 10,6 C 96 % 1028,9 hPa 0,0 l/m 2,4 km/h (1 Bft) W-SW 244 0 min 0,000 mm 0,0 UV-I 0 W/m 10,0 C 10,6 C 3,2 km/h (1 Bft) 100,00 %
08.11.2015 05:20 10,6 C 96 % 1028,9 hPa 0,0 l/m 4,0 km/h (1 Bft) S-SW 201 0 min 0,000 mm 0,0 UV-I 0 W/m 10,0 C 10,6 C 4,8 km/h (1 Bft) 100,00 %
08.11.2015 05:21 10,6 C 96 % 1028,8 hPa 0,0 l/m 4,3 km/h (1 Bft) S-SW 202 0 min 0,000 mm 0,0 UV-I 0 W/m 10,0 C 10,6 C 6,4 km/h (2 Bft) 100,00 %
08.11.2015 05:22 10,6 C 96 % 1028,8 hPa 0,0 l/m 4,6 km/h (1 Bft) SW 215 0 min 0,000 mm 0,0 UV-I 0 W/m 10,0 C 10,6 C 6,4 km/h (2 Bft) 100,00 %
08.11.2015 05:23 10,6 C 96 % 1028,8 hPa 0,0 l/m 4,9 km/h (1 Bft) S 184 0 min 0,000 mm 0,0 UV-I 0 W/m 10,0 C 10,6 C 8,0 km/h (2 Bft) 100,00 %
08.11.2015 05:24 10,6 C 96 % 1028,8 hPa 0,0 l/m 3,4 km/h (1 Bft) S-SW 209 0 min 0,000 mm 0,0 UV-I 0 W/m 10,0 C 10,6 C 4,8 km/h (1 Bft) 100,00 %
08.11.2015 05:25 10,6 C 96 % 1028,8 hPa 0,0 l/m 3,0 km/h (1 Bft) S-SW 202 0 min 0,000 mm 0,0 UV-I 0 W/m 10,0 C 10,6 C 4,8 km/h (1 Bft) 91,30 %
08.11.2015 05:26 10,6 C 96 % 1028,8 hPa 0,0 l/m 3,6 km/h (1 Bft) SW 226 0 min 0,000 mm 0,0 UV-I 0 W/m 10,0 C 10,6 C 6,4 km/h (2 Bft) 100,00 %
08.11.2015 05:27 10,6 C 96 % 1028,8 hPa 0,0 l/m 6,2 km/h (2 Bft) SW 219 0 min 0,000 mm 0,0 UV-I 0 W/m 10,0 C 10,6 C 8,0 km/h (2 Bft) 100,00 %
08.11.2015 05:28 10,6 C 96 % 1028,8 hPa 0,0 l/m 3,8 km/h (1 Bft) S-SW 202 0 min 0,000 mm 0,0 UV-I 0 W/m 10,0 C 10,6 C 6,4 km/h (2 Bft) 100,00 %
08.11.2015 05:29 10,6 C 96 % 1028,7 hPa 0,0 l/m 4,1 km/h (1 Bft) SW 227 0 min 0,000 mm 0,0 UV-I 0 W/m 10,0 C 10,6 C 4,8 km/h (1 Bft) 99,37 %
08.11.2015 05:30 10,6 C 96 % 1028,7 hPa 0,0 l/m 3,3 km/h (1 Bft) SW 227 0 min 0,000 mm 0,0 UV-I 0 W/m 10,0 C 10,6 C 4,8 km/h (1 Bft) 97,37 %
08.11.2015 05:31 10,6 C 96 % 1028,7 hPa 0,0 l/m 3,4 km/h (1 Bft) SW 223 0 min 0,000 mm 0,0 UV-I 0 W/m 10,0 C 10,6 C 4,8 km/h (1 Bft) 100,00 %
08.11.2015 05:32 10,6 C 96 % 1028,6 hPa 0,0 l/m 3,6 km/h (1 Bft) W-SW 246 0 min 0,000 mm 0,0 UV-I 0 W/m 10,0 C 10,6 C 4,8 km/h (1 Bft) 100,00 %
08.11.2015 05:33 10,5 C 96 % 1028,7 hPa 0,0 l/m 3,3 km/h (1 Bft) S-SW 209 0 min 0,000 mm 0,0 UV-I 0 W/m 9,9 C 10,5 C 6,4 km/h (2 Bft) 100,00 %
08.11.2015 05:34 10,5 C 96 % 1028,7 hPa 0,0 l/m 4,7 km/h (1 Bft) SW 215 0 min 0,000 mm 0,0 UV-I 0 W/m 9,9 C 10,5 C 6,4 km/h (2 Bft) 100,00 %
08.11.2015 05:35 10,5 C 96 % 1028,6 hPa 0,0 l/m 6,9 km/h (2 Bft) SW 229 0 min 0,000 mm 0,0 UV-I 0 W/m 9,9 C 10,2 C 8,0 km/h (2 Bft) 95,83 %
08.11.2015 05:36 10,6 C 96 % 1028,6 hPa 0,0 l/m 6,4 km/h (2 Bft) SW 217 0 min 0,000 mm 0,0 UV-I 0 W/m 10,0 C 10,6 C 9,7 km/h (2 Bft) 100,00 %
08.11.2015 05:37 10,6 C 96 % 1028,6 hPa 0,0 l/m 5,9 km/h (2 Bft) SW 219 0 min 0,000 mm 0,0 UV-I 0 W/m 10,0 C 10,6 C 8,0 km/h (2 Bft) 100,00 %
08.11.2015 05:38 10,6 C 96 % 1028,7 hPa 0,0 l/m 5,6 km/h (1 Bft) SW 226 0 min 0,000 mm 0,0 UV-I 0 W/m 10,0 C 10,6 C 8,0 km/h (2 Bft) 100,00 %
08.11.2015 05:39 10,6 C 96 % 1028,7 hPa 0,0 l/m 6,6 km/h (2 Bft) SW 217 0 min 0,000 mm 0,0 UV-I 0 W/m 10,0 C 10,5 C 9,7 km/h (2 Bft) 100,00 %
08.11.2015 05:40 10,7 C 96 % 1028,7 hPa 0,0 l/m 7,7 km/h (2 Bft) S-SW 211 0 min 0,000 mm 0,0 UV-I 0 W/m 10,1 C 9,8 C 9,7 km/h (2 Bft) 100,00 %
08.11.2015 05:41 10,7 C 96 % 1028,7 hPa 0,0 l/m 6,6 km/h (2 Bft) S-SW 208 0 min 0,000 mm 0,0 UV-I 0 W/m 10,1 C 10,6 C 8,0 km/h (2 Bft) 100,00 %
08.11.2015 05:42 10,7 C 95 % 1028,6 hPa 0,0 l/m 4,8 km/h (1 Bft) S-SW 213 0 min 0,000 mm 0,0 UV-I 0 W/m 9,9 C 10,7 C 8,0 km/h (2 Bft) 100,00 %
08.11.2015 05:43 10,7 C 95 % 1028,6 hPa 0,0 l/m 5,6 km/h (1 Bft) S-SW 198 0 min 0,000 mm 0,0 UV-I 0 W/m 9,9 C 10,7 C 8,0 km/h (2 Bft) 100,00 %
08.11.2015 05:44 10,7 C 95 % 1028,6 hPa 0,0 l/m 4,3 km/h (1 Bft) SW 225 0 min 0,000 mm 0,0 UV-I 0 W/m 9,9 C 10,7 C 6,4 km/h (2 Bft) 100,00 %
08.11.2015 05:45 10,7 C 95 % 1028,6 hPa 0,0 l/m 3,1 km/h (1 Bft) SW 214 0 min 0,000 mm 0,0 UV-I 0 W/m 9,9 C 10,7 C 4,8 km/h (1 Bft) 95,83 %
08.11.2015 05:46 10,7 C 95 % 1028,5 hPa 0,0 l/m 3,5 km/h (1 Bft) SW 231 0 min 0,000 mm 0,0 UV-I 0 W/m 9,9 C 10,7 C 6,4 km/h (2 Bft) 100,00 %
08.11.2015 05:47 10,7 C 95 % 1028,5 hPa 0,0 l/m 4,6 km/h (1 Bft) S-SW 210 0 min 0,000 mm 0,0 UV-I 0 W/m 9,9 C 10,7 C 6,4 km/h (2 Bft) 100,00 %
08.11.2015 05:48 10,7 C 95 % 1028,4 hPa 0,0 l/m 5,1 km/h (1 Bft) S-SW 192 0 min 0,000 mm 0,0 UV-I 0 W/m 9,9 C 10,7 C 9,7 km/h (2 Bft) 100,00 %
08.11.2015 05:49 10,7 C 95 % 1028,4 hPa 0,0 l/m 4,8 km/h (1 Bft) SW 221 0 min 0,000 mm 0,0 UV-I 0 W/m 9,9 C 10,7 C 8,0 km/h (2 Bft) 100,00 %
08.11.2015 05:50 10,8 C 95 % 1028,4 hPa 0,0 l/m 7,2 km/h (2 Bft) W-SW 250 0 min 0,000 mm 0,0 UV-I 0 W/m 10,0 C 10,2 C 12,9 km/h (3 Bft) 100,00 %
08.11.2015 05:51 10,9 C 95 % 1028,5 hPa 0,0 l/m 5,4 km/h (1 Bft) SW 222 0 min 0,000 mm 0,0 UV-I 0 W/m 10,1 C 10,9 C 9,7 km/h (2 Bft) 100,00 %
08.11.2015 05:52 11,0 C 94 % 1028,4 hPa 0,0 l/m 5,0 km/h (1 Bft) SW 217 0 min 0,000 mm 0,0 UV-I 0 W/m 10,1 C 11,0 C 8,0 km/h (2 Bft) 100,00 %
08.11.2015 05:53 11,1 C 94 % 1028,4 hPa 0,0 l/m 5,0 km/h (1 Bft) SW 221 0 min 0,000 mm 0,0 UV-I 0 W/m 10,2 C 11,1 C 6,4 km/h (2 Bft) 100,00 %
08.11.2015 05:54 11,2 C 94 % 1028,4 hPa 0,0 l/m 5,3 km/h (1 Bft) S-SW 207 0 min 0,000 mm 0,0 UV-I 0 W/m 10,3 C 11,2 C 8,0 km/h (2 Bft) 100,00 %
08.11.2015 05:55 11,2 C 94 % 1028,4 hPa 0,0 l/m 4,8 km/h (1 Bft) W-SW 244 0 min 0,000 mm 0,0 UV-I 0 W/m 10,3 C 11,2 C 6,4 km/h (2 Bft) 100,00 %
08.11.2015 05:56 11,3 C 94 % 1028,4 hPa 0,0 l/m 6,1 km/h (2 Bft) SW 221 0 min 0,000 mm 0,0 UV-I 0 W/m 10,4 C 11,3 C 8,0 km/h (2 Bft) 91,67 %
08.11.2015 05:57 11,3 C 93 % 1028,4 hPa 0,0 l/m 4,6 km/h (1 Bft) SW 222 0 min 0,000 mm 0,0 UV-I 0 W/m 10,2 C 11,3 C 8,0 km/h (2 Bft) 100,00 %
08.11.2015 05:58 11,4 C 93 % 1028,4 hPa 0,0 l/m 3,8 km/h (1 Bft) SW 230 0 min 0,000 mm 0,0 UV-I 0 W/m 10,3 C 11,4 C 6,4 km/h (2 Bft) 100,00 %
08.11.2015 05:59 11,4 C 93 % 1028,4 hPa 0,0 l/m 4,3 km/h (1 Bft) SW 236 0 min 0,000 mm 0,0 UV-I 0 W/m 10,3 C 11,4 C 8,0 km/h (2 Bft) 100,00 %
08.11.2015 06:00 11,4 C 93 % 1028,4 hPa 0,0 l/m 4,7 km/h (1 Bft) W 269 0 min 0,000 mm 0,0 UV-I 0 W/m 10,3 C 11,4 C 8,0 km/h (2 Bft) 100,00 %
08.11.2015 06:01 11,4 C 93 % 1028,5 hPa 0,0 l/m 4,3 km/h (1 Bft) SW 219 0 min 0,000 mm 0,0 UV-I 0 W/m 10,3 C 11,4 C 6,4 km/h (2 Bft) 100,00 %
08.11.2015 06:02 11,4 C 92 % 1028,5 hPa 0,0 l/m 4,2 km/h (1 Bft) SW 217 0 min 0,000 mm 0,0 UV-I 0 W/m 10,1 C 11,4 C 6,4 km/h (2 Bft) 95,83 %
08.11.2015 06:03 11,4 C 92 % 1028,4 hPa 0,0 l/m 4,3 km/h (1 Bft) S-SW 213 0 min 0,000 mm 0,0 UV-I 0 W/m 10,1 C 11,4 C 8,0 km/h (2 Bft) 100,00 %
08.11.2015 06:04 11,4 C 92 % 1028,4 hPa 0,0 l/m 3,4 km/h (1 Bft) S-SW 205 0 min 0,000 mm 0,0 UV-I 0 W/m 10,1 C 11,4 C 4,8 km/h (1 Bft) 100,00 %
08.11.2015 06:05 11,4 C 92 % 1028,4 hPa 0,0 l/m 2,7 km/h (1 Bft) S-SW 202 0 min 0,000 mm 0,0 UV-I 0 W/m 10,1 C 11,4 C 4,8 km/h (1 Bft) 100,00 %
08.11.2015 06:06 11,4 C 92 % 1028,4 hPa 0,0 l/m 2,7 km/h (1 Bft) SW 232 0 min 0,000 mm 0,0 UV-I 0 W/m 10,1 C 11,4 C 4,8 km/h (1 Bft) 100,00 %
08.11.2015 06:07 11,3 C 92 % 1028,4 hPa 0,0 l/m 2,7 km/h (1 Bft) SW 215 0 min 0,000 mm 0,0 UV-I 0 W/m 10,0 C 11,3 C 4,8 km/h (1 Bft) 99,39 %
08.11.2015 06:08 11,3 C 92 % 1028,4 hPa 0,0 l/m 2,5 km/h (1 Bft) S-SW 211 0 min 0,000 mm 0,0 UV-I 0 W/m 10,0 C 11,3 C 4,8 km/h (1 Bft) 100,00 %
08.11.2015 06:09 11,3 C 93 % 1028,4 hPa 0,0 l/m 5,1 km/h (1 Bft) W-SW 255 0 min 0,000 mm 0,0 UV-I 0 W/m 10,2 C 11,3 C 6,4 km/h (2 Bft) 100,00 %
08.11.2015 06:10 11,4 C 93 % 1028,4 hPa 0,0 l/m 5,0 km/h (1 Bft) SW 226 0 min 0,000 mm 0,0 UV-I 0 W/m 10,3 C 11,4 C 6,4 km/h (2 Bft) 100,00 %
08.11.2015 06:11 11,4 C 92 % 1028,4 hPa 0,0 l/m 3,7 km/h (1 Bft) SW 235 0 min 0,000 mm 0,0 UV-I 0 W/m 10,1 C 11,4 C 8,0 km/h (2 Bft) 100,00 %
08.11.2015 06:12 11,5 C 92 % 1028,4 hPa 0,0 l/m 3,0 km/h (1 Bft) W-SW 238 0 min 0,000 mm 0,0 UV-I 0 W/m 10,2 C 11,5 C 4,8 km/h (1 Bft) 100,00 %
08.11.2015 06:13 11,6 C 92 % 1028,4 hPa 0,0 l/m 3,9 km/h (1 Bft) W 267 0 min 0,000 mm 0,0 UV-I 0 W/m 10,3 C 11,6 C 6,4 km/h (2 Bft) 100,00 %
08.11.2015 06:14 11,6 C 92 % 1028,5 hPa 0,0 l/m 1,0 km/h (0 Bft) W 269 0 min 0,000 mm 0,0 UV-I 0 W/m 10,3 C 11,6 C 1,6 km/h (1 Bft) 100,00 %
08.11.2015 06:15 11,6 C 92 % 1028,6 hPa 0,0 l/m 2,8 km/h (1 Bft) W 279 0 min 0,000 mm 0,0 UV-I 0 W/m 10,3 C 11,6 C 4,8 km/h (1 Bft) 95,83 %
08.11.2015 06:16 11,6 C 92 % 1028,6 hPa 0,0 l/m 2,4 km/h (1 Bft) W 279 0 min 0,000 mm 0,0 UV-I 0 W/m 10,3 C 11,6 C 4,8 km/h (1 Bft) 100,00 %
08.11.2015 06:17 11,6 C 92 % 1028,6 hPa 0,0 l/m 2,1 km/h (1 Bft) S-SW 199 0 min 0,000 mm 0,0 UV-I 0 W/m 10,3 C 11,6 C 3,2 km/h (1 Bft) 100,00 %
08.11.2015 06:18 11,6 C 92 % 1028,5 hPa 0,0 l/m 2,5 km/h (1 Bft) SW 221 0 min 0,000 mm 0,0 UV-I 0 W/m 10,3 C 11,6 C 4,8 km/h (1 Bft) 100,00 %
08.11.2015 06:19 11,5 C 92 % 1028,5 hPa 0,0 l/m 3,2 km/h (1 Bft) SW 226 0 min 0,000 mm 0,0 UV-I 0 W/m 10,2 C 11,5 C 4,8 km/h (1 Bft) 100,00 %
08.11.2015 06:20 11,5 C 92 % 1028,4 hPa 0,0 l/m 3,8 km/h (1 Bft) S-SW 204 0 min 0,000 mm 0,0 UV-I 0 W/m 10,2 C 11,5 C 6,4 km/h (2 Bft) 100,00 %
08.11.2015 06:21 11,6 C 92 % 1028,4 hPa 0,0 l/m 5,2 km/h (1 Bft) W-SW 243 0 min 0,000 mm 0,0 UV-I 0 W/m 10,3 C 11,6 C 6,4 km/h (2 Bft) 100,00 %
08.11.2015 06:22 11,6 C 92 % 1028,4 hPa 0,0 l/m 3,2 km/h (1 Bft) SW 224 0 min 0,000 mm 0,0 UV-I 0 W/m 10,3 C 11,6 C 4,8 km/h (1 Bft) 100,00 %
08.11.2015 06:23 11,6 C 92 % 1028,4 hPa 0,0 l/m 5,6 km/h (1 Bft) SW 215 0 min 0,000 mm 0,0 UV-I 0 W/m 10,3 C 11,6 C 9,7 km/h (2 Bft) 100,00 %
08.11.2015 06:24 11,6 C 92 % 1028,4 hPa 0,0 l/m 5,4 km/h (1 Bft) W-SW 240 0 min 0,000 mm 0,0 UV-I 0 W/m 10,3 C 11,6 C 8,0 km/h (2 Bft) 100,00 %
08.11.2015 06:25 11,7 C 92 % 1028,4 hPa 0,0 l/m 3,1 km/h (1 Bft) SW 219 0 min 0,000 mm 0,0 UV-I 0 W/m 10,4 C 11,7 C 4,8 km/h (1 Bft) 100,00 %
08.11.2015 06:26 11,7 C 92 % 1028,4 hPa 0,0 l/m 4,6 km/h (1 Bft) S-SW 211 0 min 0,000 mm 0,0 UV-I 0 W/m 10,4 C 11,7 C 8,0 km/h (2 Bft) 100,00 %
08.11.2015 06:27 11,7 C 92 % 1028,5 hPa 0,0 l/m 6,0 km/h (2 Bft) S-SW 208 0 min 0,000 mm 0,0 UV-I 0 W/m 10,4 C 11,7 C 8,0 km/h (2 Bft) 100,00 %
08.11.2015 06:28 11,7 C 92 % 1028,5 hPa 0,0 l/m 4,3 km/h (1 Bft) SW 226 0 min 0,000 mm 0,0 UV-I 0 W/m 10,4 C 11,7 C 6,4 km/h (2 Bft) 100,00 %
08.11.2015 06:29 11,7 C 92 % 1028,5 hPa 0,0 l/m 2,2 km/h (1 Bft) SW 232 0 min 0,000 mm 0,0 UV-I 0 W/m 10,4 C 11,7 C 4,8 km/h (1 Bft) 100,00 %
08.11.2015 06:30 11,7 C 92 % 1028,6 hPa 0,0 l/m 2,3 km/h (1 Bft) W-SW 257 0 min 0,000 mm 0,0 UV-I 0 W/m 10,4 C 11,7 C 4,8 km/h (1 Bft) 100,00 %
08.11.2015 06:31 11,7 C 92 % 1028,6 hPa 0,0 l/m 2,5 km/h (1 Bft) W-NW 295 0 min 0,000 mm 0,0 UV-I 0 W/m 10,4 C 11,7 C 4,8 km/h (1 Bft) 100,00 %
08.11.2015 06:32 11,7 C 92 % 1028,6 hPa 0,0 l/m 3,5 km/h (1 Bft) W-SW 251 0 min 0,000 mm 0,0 UV-I 0 W/m 10,4 C 11,7 C 6,4 km/h (2 Bft) 100,00 %
08.11.2015 06:33 11,7 C 92 % 1028,6 hPa 0,0 l/m 3,5 km/h (1 Bft) SW 230 0 min 0,000 mm 0,0 UV-I 0 W/m 10,4 C 11,7 C 4,8 km/h (1 Bft) 100,00 %
08.11.2015 06:34 11,7 C 92 % 1028,7 hPa 0,0 l/m 2,9 km/h (1 Bft) SW 231 0 min 0,000 mm 0,0 UV-I 0 W/m 10,4 C 11,7 C 4,8 km/h (1 Bft) 100,00 %
08.11.2015 06:35 11,7 C 92 % 1028,7 hPa 0,0 l/m 3,2 km/h (1 Bft) W-SW 254 0 min 0,000 mm 0,0 UV-I 0 W/m 10,4 C 11,7 C 4,8 km/h (1 Bft) 100,00 %
08.11.2015 06:36 11,7 C 92 % 1028,8 hPa 0,0 l/m 2,5 km/h (1 Bft) W 275 0 min 0,000 mm 0,0 UV-I 0 W/m 10,4 C 11,7 C 3,2 km/h (1 Bft) 100,00 %
08.11.2015 06:37 11,7 C 92 % 1028,7 hPa 0,0 l/m 3,2 km/h (1 Bft) W-SW 239 0 min 0,000 mm 0,0 UV-I 0 W/m 10,4 C 11,7 C 4,8 km/h (1 Bft) 97,37 %
08.11.2015 06:38 11,7 C 92 % 1028,7 hPa 0,0 l/m 3,4 km/h (1 Bft) W 274 0 min 0,000 mm 0,0 UV-I 0 W/m 10,4 C 11,7 C 4,8 km/h (1 Bft) 100,00 %
08.11.2015 06:39 11,8 C 92 % 1028,8 hPa 0,0 l/m 3,1 km/h (1 Bft) W 279 0 min 0,000 mm 0,0 UV-I 0 W/m 10,5 C 11,8 C 4,8 km/h (1 Bft) 100,00 %
08.11.2015 06:40 11,8 C 92 % 1028,7 hPa 0,0 l/m 3,8 km/h (1 Bft) W 280 0 min 0,000 mm 0,0 UV-I 0 W/m 10,5 C 11,8 C 11,3 km/h (2 Bft) 100,00 %
08.11.2015 06:41 11,8 C 92 % 1028,8 hPa 0,0 l/m 2,3 km/h (1 Bft) W 279 0 min 0,000 mm 0,0 UV-I 0 W/m 10,5 C 11,8 C 3,2 km/h (1 Bft) 100,00 %
08.11.2015 06:42 11,8 C 92 % 1028,8 hPa 0,0 l/m 3,1 km/h (1 Bft) W 274 0 min 0,000 mm 0,0 UV-I 0 W/m 10,5 C 11,8 C 4,8 km/h (1 Bft) 95,83 %
08.11.2015 06:43 11,8 C 91 % 1028,8 hPa 0,0 l/m 3,7 km/h (1 Bft) W 269 0 min 0,000 mm 0,0 UV-I 0 W/m 10,4 C 11,8 C 4,8 km/h (1 Bft) 100,00 %
08.11.2015 06:44 11,8 C 92 % 1028,8 hPa 0,0 l/m 2,1 km/h (1 Bft) W 269 0 min 0,000 mm 0,0 UV-I 0 W/m 10,5 C 11,8 C 3,2 km/h (1 Bft) 100,00 %
08.11.2015 06:45 11,8 C 92 % 1028,8 hPa 0,0 l/m 4,1 km/h (1 Bft) W 271 0 min 0,000 mm 0,0 UV-I 0 W/m 10,5 C 11,8 C 6,4 km/h (2 Bft) 100,00 %
08.11.2015 06:46 11,8 C 91 % 1028,8 hPa 0,0 l/m 3,0 km/h (1 Bft) W 265 0 min 0,000 mm 0,0 UV-I 0 W/m 10,4 C 11,8 C 4,8 km/h (1 Bft) 91,67 %
08.11.2015 06:47 11,8 C 92 % 1028,8 hPa 0,0 l/m 3,5 km/h (1 Bft) W 278 0 min 0,000 mm 0,0 UV-I 0 W/m 10,5 C 11,8 C 4,8 km/h (1 Bft) 100,00 %
08.11.2015 06:48 11,8 C 91 % 1028,8 hPa 0,0 l/m 2,2 km/h (1 Bft) W 278 0 min 0,000 mm 0,0 UV-I 0 W/m 10,4 C 11,8 C 3,2 km/h (1 Bft) 100,00 %
08.11.2015 06:49 11,8 C 91 % 1028,8 hPa 0,0 l/m 2,9 km/h (1 Bft) W 278 0 min 0,000 mm 0,0 UV-I 0 W/m 10,4 C 11,8 C 4,8 km/h (1 Bft) 100,00 %
08.11.2015 06:50 11,8 C 91 % 1028,8 hPa 0,0 l/m 3,4 km/h (1 Bft) W 272 0 min 0,000 mm 0,0 UV-I 0 W/m 10,4 C 11,8 C 4,8 km/h (1 Bft) 100,00 %
08.11.2015 06:51 11,8 C 91 % 1028,8 hPa 0,0 l/m 3,6 km/h (1 Bft) W-SW 248 0 min 0,000 mm 0,0 UV-I 0 W/m 10,4 C 11,8 C 6,4 km/h (2 Bft) 95,83 %
08.11.2015 06:52 11,8 C 91 % 1028,8 hPa 0,0 l/m 3,0 km/h (1 Bft) W-SW 252 0 min 0,000 mm 0,0 UV-I 0 W/m 10,4 C 11,8 C 4,8 km/h (1 Bft) 96,15 %
08.11.2015 06:53 11,7 C 91 % 1028,8 hPa 0,0 l/m 2,3 km/h (1 Bft) W 265 0 min 0,000 mm 0,0 UV-I 0 W/m 10,3 C 11,7 C 3,2 km/h (1 Bft) 100,00 %
08.11.2015 06:54 11,7 C 92 % 1028,9 hPa 0,0 l/m 4,1 km/h (1 Bft) W 263 0 min 0,000 mm 0,0 UV-I 0 W/m 10,4 C 11,7 C 4,8 km/h (1 Bft) 94,12 %
08.11.2015 06:55 11,7 C 91 % 1028,9 hPa 0,0 l/m 4,4 km/h (1 Bft) W 274 0 min 0,000 mm 0,0 UV-I 0 W/m 10,3 C 11,7 C 6,4 km/h (2 Bft) 100,00 %
08.11.2015 06:56 11,7 C 92 % 1028,9 hPa 0,0 l/m 2,9 km/h (1 Bft) W-NW 287 0 min 0,000 mm 0,0 UV-I 0 W/m 10,4 C 11,7 C 3,2 km/h (1 Bft) 100,00 %
08.11.2015 06:57 11,7 C 92 % 1028,9 hPa 0,0 l/m 3,6 km/h (1 Bft) W 263 0 min 0,000 mm 0,0 UV-I 0 W/m 10,4 C 11,7 C 4,8 km/h (1 Bft) 96,30 %
08.11.2015 06:58 11,7 C 92 % 1028,9 hPa 0,0 l/m 3,0 km/h (1 Bft) W 265 0 min 0,000 mm 0,0 UV-I 0 W/m 10,4 C 11,7 C 3,2 km/h (1 Bft) 95,65 %
08.11.2015 06:59 11,7 C 92 % 1028,9 hPa 0,0 l/m 4,4 km/h (1 Bft) W 261 0 min 0,000 mm 0,0 UV-I 0 W/m 10,4 C 11,7 C 4,8 km/h (1 Bft) 100,00 %
08.11.2015 07:00 11,7 C 92 % 1028,8 hPa 0,0 l/m 3,4 km/h (1 Bft) SW 225 0 min 0,000 mm 0,0 UV-I 0 W/m 10,4 C 11,7 C 4,8 km/h (1 Bft) 100,00 %
08.11.2015 07:01 11,7 C 92 % 1028,8 hPa 0,0 l/m 5,2 km/h (1 Bft) SW 217 0 min 0,000 mm 0,0 UV-I 0 W/m 10,4 C 11,7 C 8,0 km/h (2 Bft) 100,00 %
08.11.2015 07:02 11,7 C 92 % 1028,7 hPa 0,0 l/m 3,6 km/h (1 Bft) W-SW 257 0 min 0,000 mm 0,0 UV-I 0 W/m 10,4 C 11,7 C 6,4 km/h (2 Bft) 100,00 %
08.11.2015 07:03 11,7 C 92 % 1028,7 hPa 0,0 l/m 3,5 km/h (1 Bft) W-SW 243 0 min 0,000 mm 0,0 UV-I 0 W/m 10,4 C 11,7 C 4,8 km/h (1 Bft) 100,00 %
08.11.2015 07:04 11,7 C 92 % 1028,7 hPa 0,0 l/m 4,4 km/h (1 Bft) W-NW 294 0 min 0,000 mm 0,0 UV-I 0 W/m 10,4 C 11,7 C 6,4 km/h (2 Bft) 95,65 %
08.11.2015 07:05 11,7 C 92 % 1028,7 hPa 0,0 l/m 3,9 km/h (1 Bft) W 259 0 min 0,000 mm 0,0 UV-I 0 W/m 10,4 C 11,7 C 8,0 km/h (2 Bft) 100,00 %
08.11.2015 07:06 11,7 C 92 % 1028,7 hPa 0,0 l/m 3,3 km/h (1 Bft) W-SW 245 0 min 0,000 mm 0,0 UV-I 0 W/m 10,4 C 11,7 C 4,8 km/h (1 Bft) 100,00 %
08.11.2015 07:07 11,7 C 92 % 1028,7 hPa 0,0 l/m 3,6 km/h (1 Bft) SW 234 0 min 0,000 mm 0,0 UV-I 0 W/m 10,4 C 11,7 C 6,4 km/h (2 Bft) 95,83 %
08.11.2015 07:08 11,7 C 92 % 1028,7 hPa 0,0 l/m 3,4 km/h (1 Bft) SW 233 0 min 0,000 mm 0,0 UV-I 0 W/m 10,4 C 11,7 C 4,8 km/h (1 Bft) 100,00 %
08.11.2015 07:09 11,7 C 92 % 1028,7 hPa 0,0 l/m 3,2 km/h (1 Bft) W 271 0 min 0,000 mm 0,0 UV-I 0 W/m 10,4 C 11,7 C 4,8 km/h (1 Bft) 100,00 %
08.11.2015 07:10 11,7 C 92 % 1028,8 hPa 0,0 l/m 3,4 km/h (1 Bft) W-SW 252 0 min 0,000 mm 0,0 UV-I 5 W/m 10,4 C 11,7 C 4,8 km/h (1 Bft) 100,00 %
08.11.2015 07:11 11,7 C 92 % 1028,8 hPa 0,0 l/m 3,5 km/h (1 Bft) W 259 0 min 0,000 mm 0,0 UV-I 5 W/m 10,4 C 11,7 C 8,0 km/h (2 Bft) 96,15 %
08.11.2015 07:12 11,7 C 92 % 1028,8 hPa 0,0 l/m 3,6 km/h (1 Bft) W 273 0 min 0,000 mm 0,0 UV-I 5 W/m 10,4 C 11,7 C 6,4 km/h (2 Bft) 100,00 %
08.11.2015 07:13 11,7 C 92 % 1028,8 hPa 0,0 l/m 3,0 km/h (1 Bft) W 276 0 min 0,000 mm 0,0 UV-I 5 W/m 10,4 C 11,7 C 4,8 km/h (1 Bft) 100,00 %
08.11.2015 07:14 11,7 C 92 % 1028,8 hPa 0,0 l/m 3,1 km/h (1 Bft) W-SW 252 0 min 0,000 mm 0,0 UV-I 5 W/m 10,4 C 11,7 C 4,8 km/h (1 Bft) 100,00 %
08.11.2015 07:15 11,8 C 91 % 1028,8 hPa 0,0 l/m 3,3 km/h (1 Bft) W 267 0 min 0,000 mm 0,0 UV-I 5 W/m 10,4 C 11,8 C 6,4 km/h (2 Bft) 100,00 %
08.11.2015 07:16 11,8 C 91 % 1028,7 hPa 0,0 l/m 2,7 km/h (1 Bft) W-SW 246 0 min 0,000 mm 0,0 UV-I 7 W/m 10,4 C 11,8 C 3,2 km/h (1 Bft) 100,00 %
08.11.2015 07:17 11,8 C 91 % 1028,7 hPa 0,0 l/m 5,3 km/h (1 Bft) SW 233 0 min 0,000 mm 0,0 UV-I 7 W/m 10,4 C 11,8 C 8,0 km/h (2 Bft) 100,00 %
08.11.2015 07:18 11,8 C 91 % 1028,7 hPa 0,0 l/m 5,1 km/h (1 Bft) SW 223 0 min 0,000 mm 0,0 UV-I 7 W/m 10,4 C 11,8 C 9,7 km/h (2 Bft) 100,00 %
08.11.2015 07:19 11,8 C 91 % 1028,7 hPa 0,0 l/m 3,6 km/h (1 Bft) SW 230 0 min 0,000 mm 0,0 UV-I 8 W/m 10,4 C 11,8 C 6,4 km/h (2 Bft) 100,00 %
08.11.2015 07:20 11,8 C 91 % 1028,7 hPa 0,0 l/m 4,6 km/h (1 Bft) W-SW 245 0 min 0,000 mm 0,0 UV-I 9 W/m 10,4 C 11,8 C 6,4 km/h (2 Bft) 100,00 %
08.11.2015 07:21 11,8 C 91 % 1028,7 hPa 0,0 l/m 3,4 km/h (1 Bft) W-SW 240 0 min 0,000 mm 0,0 UV-I 9 W/m 10,4 C 11,8 C 4,8 km/h (1 Bft) 100,00 %
08.11.2015 07:22 11,7 C 91 % 1028,7 hPa 0,0 l/m 3,6 km/h (1 Bft) W-SW 238 0 min 0,000 mm 0,0 UV-I 9 W/m 10,3 C 11,7 C 6,4 km/h (2 Bft) 100,00 %
08.11.2015 07:23 11,7 C 92 % 1028,7 hPa 0,0 l/m 4,4 km/h (1 Bft) SW 231 0 min 0,000 mm 0,0 UV-I 9 W/m 10,4 C 11,7 C 6,4 km/h (2 Bft) 100,00 %
08.11.2015 07:24 11,7 C 92 % 1028,8 hPa 0,0 l/m 3,3 km/h (1 Bft) W 259 0 min 0,000 mm 0,0 UV-I 9 W/m 10,4 C 11,7 C 4,8 km/h (1 Bft) 100,00 %
08.11.2015 07:25 11,7 C 92 % 1028,8 hPa 0,0 l/m 2,8 km/h (1 Bft) W 281 0 min 0,000 mm 0,0 UV-I 9 W/m 10,4 C 11,7 C 3,2 km/h (1 Bft) 100,00 %
08.11.2015 07:26 11,6 C 92 % 1028,9 hPa 0,0 l/m 3,2 km/h (1 Bft) W 263 0 min 0,000 mm 0,0 UV-I 9 W/m 10,3 C 11,6 C 4,8 km/h (1 Bft) 100,00 %
08.11.2015 07:27 11,6 C 92 % 1028,8 hPa 0,0 l/m 2,7 km/h (1 Bft) W 274 0 min 0,000 mm 0,0 UV-I 9 W/m 10,3 C 11,6 C 4,8 km/h (1 Bft) 100,00 %
08.11.2015 07:28 11,6 C 92 % 1028,8 hPa 0,0 l/m 1,9 km/h (1 Bft) W 274 0 min 0,000 mm 0,0 UV-I 9 W/m 10,3 C 11,6 C 3,2 km/h (1 Bft) 95,83 %
08.11.2015 07:29 11,6 C 92 % 1028,9 hPa 0,0 l/m 2,5 km/h (1 Bft) W 274 0 min 0,000 mm 0,0 UV-I 11 W/m 10,3 C 11,6 C 3,2 km/h (1 Bft) 100,00 %
08.11.2015 07:30 11,7 C 92 % 1028,9 hPa 0,0 l/m 1,6 km/h (1 Bft) W 274 0 min 0,000 mm 0,0 UV-I 11 W/m 10,4 C 11,7 C 3,2 km/h (1 Bft) 100,00 %
08.11.2015 07:31 11,7 C 92 % 1028,9 hPa 0,0 l/m 2,4 km/h (1 Bft) W 259 0 min 0,000 mm 0,0 UV-I 12 W/m 10,4 C 11,7 C 4,8 km/h (1 Bft) 100,00 %
08.11.2015 07:32 11,7 C 92 % 1029,0 hPa 0,0 l/m 2,1 km/h (1 Bft) W-NW 296 0 min 0,000 mm 0,0 UV-I 12 W/m 10,4 C 11,7 C 4,8 km/h (1 Bft) 96,15 %
08.11.2015 07:33 11,7 C 92 % 1029,0 hPa 0,0 l/m 4,2 km/h (1 Bft) W 271 0 min 0,000 mm 0,0 UV-I 12 W/m 10,4 C 11,7 C 6,4 km/h (2 Bft) 100,00 %
08.11.2015 07:34 11,8 C 92 % 1029,0 hPa 0,0 l/m 4,3 km/h (1 Bft) W-NW 298 0 min 0,000 mm 0,0 UV-I 13 W/m 10,5 C 11,8 C 6,4 km/h (2 Bft) 100,00 %
08.11.2015 07:35 11,8 C 92 % 1029,1 hPa 0,0 l/m 2,5 km/h (1 Bft) W 279 0 min 0,000 mm 0,0 UV-I 17 W/m 10,5 C 11,8 C 3,2 km/h (1 Bft) 95,83 %
08.11.2015 07:36 11,8 C 92 % 1029,2 hPa 0,0 l/m 3,1 km/h (1 Bft) W-NW 303 0 min 0,000 mm 0,0 UV-I 21 W/m 10,5 C 11,8 C 4,8 km/h (1 Bft) 100,00 %
08.11.2015 07:37 11,8 C 91 % 1029,2 hPa 0,0 l/m 4,3 km/h (1 Bft) W 260 0 min 0,000 mm 0,0 UV-I 23 W/m 10,4 C 11,8 C 4,8 km/h (1 Bft) 96,30 %
08.11.2015 07:38 11,8 C 91 % 1029,2 hPa 0,0 l/m 4,0 km/h (1 Bft) W-SW 255 0 min 0,000 mm 0,0 UV-I 23 W/m 10,4 C 11,8 C 6,4 km/h (2 Bft) 100,00 %
08.11.2015 07:39 11,9 C 91 % 1029,2 hPa 0,0 l/m 2,1 km/h (1 Bft) W 275 0 min 0,000 mm 0,0 UV-I 25 W/m 10,5 C 11,9 C 3,2 km/h (1 Bft) 95,83 %
08.11.2015 07:40 11,9 C 91 % 1029,3 hPa 0,0 l/m 3,6 km/h (1 Bft) W 267 0 min 0,000 mm 0,0 UV-I 25 W/m 10,5 C 11,9 C 4,8 km/h (1 Bft) 100,00 %
08.11.2015 07:41 12,1 C 91 % 1029,4 hPa 0,0 l/m 2,2 km/h (1 Bft) W 269 0 min 0,000 mm 0,0 UV-I 26 W/m 10,7 C 12,1 C 4,8 km/h (1 Bft) 95,83 %
08.11.2015 07:42 12,1 C 91 % 1029,4 hPa 0,0 l/m 2,4 km/h (1 Bft) W 275 0 min 0,000 mm 0,0 UV-I 26 W/m 10,7 C 12,1 C 3,2 km/h (1 Bft) 100,00 %
08.11.2015 07:43 12,1 C 91 % 1029,4 hPa 0,0 l/m 2,2 km/h (1 Bft) W 280 0 min 0,000 mm 0,0 UV-I 27 W/m 10,7 C 12,1 C 3,2 km/h (1 Bft) 100,00 %
08.11.2015 07:44 12,1 C 91 % 1029,4 hPa 0,0 l/m 2,8 km/h (1 Bft) W 276 0 min 0,000 mm 0,0 UV-I 26 W/m 10,7 C 12,1 C 4,8 km/h (1 Bft) 100,00 %
08.11.2015 07:45 12,2 C 91 % 1029,5 hPa 0,0 l/m 2,8 km/h (1 Bft) W-NW 287 0 min 0,000 mm 0,0 UV-I 26 W/m 10,8 C 12,2 C 3,2 km/h (1 Bft) 95,83 %
08.11.2015 07:46 12,2 C 91 % 1029,4 hPa 0,0 l/m 4,1 km/h (1 Bft) W 268 0 min 0,000 mm 0,0 UV-I 28 W/m 10,8 C 12,2 C 6,4 km/h (2 Bft) 100,00 %
08.11.2015 07:47 12,2 C 91 % 1029,4 hPa 0,0 l/m 5,1 km/h (1 Bft) W-NW 301 0 min 0,000 mm 0,0 UV-I 31 W/m 10,8 C 12,2 C 11,3 km/h (2 Bft) 100,00 %
08.11.2015 07:48 12,3 C 90 % 1029,4 hPa 0,0 l/m 6,1 km/h (2 Bft) W 261 0 min 0,000 mm 0,0 UV-I 33 W/m 10,7 C 12,3 C 11,3 km/h (2 Bft) 99,28 %
08.11.2015 07:49 12,4 C 90 % 1029,5 hPa 0,0 l/m 5,2 km/h (1 Bft) W 267 0 min 0,000 mm 0,0 UV-I 36 W/m 10,8 C 12,4 C 9,7 km/h (2 Bft) 100,00 %
08.11.2015 07:50 12,4 C 90 % 1029,4 hPa 0,0 l/m 6,0 km/h (2 Bft) W 279 0 min 0,000 mm 0,0 UV-I 36 W/m 10,8 C 12,4 C 9,7 km/h (2 Bft) 100,00 %
08.11.2015 07:51 12,5 C 89 % 1029,4 hPa 0,0 l/m 4,5 km/h (1 Bft) W-NW 284 0 min 0,000 mm 0,0 UV-I 35 W/m 10,7 C 12,5 C 6,4 km/h (2 Bft) 100,00 %
08.11.2015 07:52 12,6 C 89 % 1029,4 hPa 0,0 l/m 5,0 km/h (1 Bft) W 276 0 min 0,000 mm 0,0 UV-I 37 W/m 10,8 C 12,6 C 6,4 km/h (2 Bft) 100,00 %
08.11.2015 07:53 12,6 C 89 % 1029,4 hPa 0,0 l/m 4,3 km/h (1 Bft) W 274 0 min 0,000 mm 0,0 UV-I 35 W/m 10,8 C 12,6 C 6,4 km/h (2 Bft) 100,00 %
08.11.2015 07:54 12,6 C 89 % 1029,4 hPa 0,0 l/m 3,9 km/h (1 Bft) W-NW 303 0 min 0,000 mm 0,0 UV-I 35 W/m 10,8 C 12,6 C 4,8 km/h (1 Bft) 100,00 %
08.11.2015 07:55 12,7 C 89 % 1029,4 hPa 0,0 l/m 3,7 km/h (1 Bft) W-SW 256 0 min 0,000 mm 0,0 UV-I 39 W/m 10,9 C 12,7 C 6,4 km/h (2 Bft) 96,55 %
08.11.2015 07:56 12,7 C 89 % 1029,5 hPa 0,0 l/m 5,1 km/h (1 Bft) W-NW 282 0 min 0,000 mm 0,0 UV-I 46 W/m 10,9 C 12,7 C 6,4 km/h (2 Bft) 100,00 %
08.11.2015 07:57 12,7 C 89 % 1029,4 hPa 0,0 l/m 4,8 km/h (1 Bft) W-NW 283 0 min 0,000 mm 0,0 UV-I 53 W/m 10,9 C 12,7 C 9,7 km/h (2 Bft) 100,00 %
08.11.2015 07:58 12,7 C 89 % 1029,5 hPa 0,0 l/m 3,8 km/h (1 Bft) W 275 0 min 0,000 mm 0,0 UV-I 50 W/m 10,9 C 12,7 C 6,4 km/h (2 Bft) 86,67 %
08.11.2015 07:59 12,7 C 89 % 1029,5 hPa 0,0 l/m 4,5 km/h (1 Bft) W-NW 285 0 min 0,000 mm 0,0 UV-I 47 W/m 10,9 C 12,7 C 6,4 km/h (2 Bft) 100,00 %
08.11.2015 08:00 12,7 C 89 % 1029,5 hPa 0,0 l/m 4,2 km/h (1 Bft) W 275 0 min 0,025 mm 0,0 UV-I 43 W/m 10,9 C 12,7 C 6,4 km/h (2 Bft) 95,83 %
08.11.2015 08:01 12,8 C 89 % 1029,5 hPa 0,0 l/m 5,2 km/h (1 Bft) W-NW 288 0 min 0,000 mm 0,0 UV-I 39 W/m 11,0 C 12,8 C 9,7 km/h (2 Bft) 100,00 %
08.11.2015 08:02 12,8 C 89 % 1029,5 hPa 0,0 l/m 3,7 km/h (1 Bft) W 268 0 min 0,000 mm 0,0 UV-I 40 W/m 11,0 C 12,8 C 6,4 km/h (2 Bft) 100,00 %
08.11.2015 08:03 12,8 C 88 % 1029,5 hPa 0,0 l/m 3,1 km/h (1 Bft) W 263 0 min 0,000 mm 0,0 UV-I 42 W/m 10,9 C 12,8 C 4,8 km/h (1 Bft) 96,15 %
08.11.2015 08:04 12,8 C 88 % 1029,5 hPa 0,0 l/m 2,9 km/h (1 Bft) W 278 0 min 0,000 mm 0,0 UV-I 44 W/m 10,9 C 12,8 C 4,8 km/h (1 Bft) 100,00 %
08.11.2015 08:05 12,8 C 88 % 1029,5 hPa 0,0 l/m 1,8 km/h (1 Bft) W-NW 294 0 min 0,000 mm 0,0 UV-I 45 W/m 10,9 C 12,8 C 3,2 km/h (1 Bft) 100,00 %
08.11.2015 08:06 12,8 C 89 % 1029,5 hPa 0,0 l/m 2,1 km/h (1 Bft) W-NW 294 0 min 0,000 mm 0,0 UV-I 47 W/m 11,0 C 12,8 C 3,2 km/h (1 Bft) 100,00 %
08.11.2015 08:07 12,8 C 88 % 1029,6 hPa 0,0 l/m 3,6 km/h (1 Bft) W 279 0 min 0,000 mm 0,0 UV-I 48 W/m 10,9 C 12,8 C 4,8 km/h (1 Bft) 100,00 %
08.11.2015 08:08 12,8 C 89 % 1029,6 hPa 0,0 l/m 1,7 km/h (1 Bft) W 278 0 min 0,000 mm 0,0 UV-I 49 W/m 11,0 C 12,8 C 3,2 km/h (1 Bft) 100,00 %
08.11.2015 08:09 12,7 C 89 % 1029,6 hPa 0,0 l/m 1,0 km/h (0 Bft) W 280 0 min 0,000 mm 0,0 UV-I 55 W/m 10,9 C 12,7 C 3,2 km/h (1 Bft) 100,00 %
08.11.2015 08:10 12,8 C 88 % 1029,6 hPa 0,0 l/m 3,5 km/h (1 Bft) W-NW 282 0 min 0,000 mm 0,0 UV-I 64 W/m 10,9 C 12,8 C 4,8 km/h (1 Bft) 100,00 %
08.11.2015 08:11 12,8 C 88 % 1029,6 hPa 0,0 l/m 4,5 km/h (1 Bft) W 277 0 min 0,000 mm 0,0 UV-I 69 W/m 10,9 C 12,8 C 6,4 km/h (2 Bft) 100,00 %
08.11.2015 08:12 12,8 C 88 % 1029,6 hPa 0,0 l/m 4,2 km/h (1 Bft) W 279 0 min 0,000 mm 0,0 UV-I 71 W/m 10,9 C 12,8 C 6,4 km/h (2 Bft) 100,00 %
08.11.2015 08:13 12,8 C 88 % 1029,7 hPa 0,0 l/m 2,5 km/h (1 Bft) W 266 0 min 0,000 mm 0,0 UV-I 76 W/m 10,9 C 12,8 C 4,8 km/h (1 Bft) 100,00 %
08.11.2015 08:14 12,8 C 88 % 1029,7 hPa 0,0 l/m 2,5 km/h (1 Bft) W 281 0 min 0,000 mm 0,0 UV-I 79 W/m 10,9 C 12,8 C 3,2 km/h (1 Bft) 96,55 %
08.11.2015 08:15 12,8 C 88 % 1029,7 hPa 0,0 l/m 2,3 km/h (1 Bft) W 281 0 min 0,000 mm 0,0 UV-I 91 W/m 10,9 C 12,8 C 4,8 km/h (1 Bft) 100,00 %
08.11.2015 08:16 12,8 C 88 % 1029,7 hPa 0,0 l/m 2,4 km/h (1 Bft) W 281 0 min 0,000 mm 0,0 UV-I 88 W/m 10,9 C 12,8 C 4,8 km/h (1 Bft) 100,00 %
08.11.2015 08:17 12,8 C 89 % 1029,7 hPa 0,0 l/m 1,1 km/h (1 Bft) W 281 0 min 0,000 mm 0,0 UV-I 64 W/m 11,0 C 12,8 C 1,6 km/h (1 Bft) 100,00 %
08.11.2015 08:18 12,8 C 89 % 1029,7 hPa 0,0 l/m 1,0 km/h (0 Bft) W 281 0 min 0,000 mm 0,0 UV-I 58 W/m 11,0 C 12,8 C 1,6 km/h (1 Bft) 100,00 %
08.11.2015 08:19 12,8 C 89 % 1029,7 hPa 0,0 l/m 3,4 km/h (1 Bft) W 280 0 min 0,000 mm 0,0 UV-I 54 W/m 11,0 C 12,8 C 4,8 km/h (1 Bft) 100,00 %
08.11.2015 08:20 12,8 C 89 % 1029,7 hPa 0,0 l/m 1,6 km/h (1 Bft) W-NW 288 0 min 0,000 mm 0,0 UV-I 50 W/m 11,0 C 12,8 C 3,2 km/h (1 Bft) 100,00 %
08.11.2015 08:21 12,7 C 89 % 1029,7 hPa 0,0 l/m 2,1 km/h (1 Bft) W-NW 288 0 min 0,000 mm 0,0 UV-I 52 W/m 10,9 C 12,7 C 3,2 km/h (1 Bft) 100,00 %
08.11.2015 08:22 12,7 C 89 % 1029,8 hPa 0,0 l/m 2,2 km/h (1 Bft) W 263 0 min 0,000 mm 0,0 UV-I 56 W/m 10,9 C 12,7 C 3,2 km/h (1 Bft) 100,00 %
08.11.2015 08:23 12,7 C 89 % 1029,8 hPa 0,0 l/m 3,1 km/h (1 Bft) W 267 0 min 0,000 mm 0,0 UV-I 58 W/m 10,9 C 12,7 C 9,7 km/h (2 Bft) 100,00 %
08.11.2015 08:24 12,7 C 89 % 1029,8 hPa 0,0 l/m 2,5 km/h (1 Bft) W 272 0 min 0,000 mm 0,0 UV-I 57 W/m 10,9 C 12,7 C 4,8 km/h (1 Bft) 96,15 %
08.11.2015 08:25 12,7 C 89 % 1029,8 hPa 0,0 l/m 2,5 km/h (1 Bft) W-NW 300 0 min 0,000 mm 0,0 UV-I 51 W/m 10,9 C 12,7 C 3,2 km/h (1 Bft) 100,00 %
08.11.2015 08:26 12,7 C 89 % 1029,8 hPa 0,0 l/m 2,8 km/h (1 Bft) W 267 0 min 0,000 mm 0,0 UV-I 42 W/m 10,9 C 12,7 C 4,8 km/h (1 Bft) 100,00 %
08.11.2015 08:27 12,7 C 89 % 1029,8 hPa 0,0 l/m 1,5 km/h (1 Bft) W 269 0 min 0,000 mm 0,0 UV-I 36 W/m 10,9 C 12,7 C 3,2 km/h (1 Bft) 100,00 %
08.11.2015 08:28 12,6 C 89 % 1029,8 hPa 0,0 l/m 1,5 km/h (1 Bft) W 273 0 min 0,000 mm 0,0 UV-I 33 W/m 10,8 C 12,6 C 3,2 km/h (1 Bft) 95,65 %
08.11.2015 08:29 12,6 C 89 % 1029,8 hPa 0,0 l/m 1,5 km/h (1 Bft) W 273 0 min 0,000 mm 0,0 UV-I 31 W/m 10,8 C 12,6 C 1,6 km/h (1 Bft) 100,00 %
08.11.2015 08:30 12,6 C 89 % 1029,8 hPa 0,0 l/m 1,2 km/h (1 Bft) W 273 0 min 0,000 mm 0,0 UV-I 31 W/m 10,8 C 12,6 C 3,2 km/h (1 Bft) 91,67 %
08.11.2015 08:31 12,5 C 89 % 1029,7 hPa 0,0 l/m 3,4 km/h (1 Bft) W 275 0 min 0,000 mm 0,0 UV-I 33 W/m 10,7 C 12,5 C 6,4 km/h (2 Bft) 100,00 %
08.11.2015 08:32 12,5 C 90 % 1029,8 hPa 0,0 l/m 2,3 km/h (1 Bft) W 275 0 min 0,000 mm 0,0 UV-I 37 W/m 10,9 C 12,5 C 3,2 km/h (1 Bft) 100,00 %
08.11.2015 08:33 12,4 C 90 % 1029,8 hPa 0,0 l/m 2,2 km/h (1 Bft) W 268 0 min 0,000 mm 0,0 UV-I 39 W/m 10,8 C 12,4 C 3,2 km/h (1 Bft) 100,00 %
08.11.2015 08:34 12,4 C 90 % 1029,8 hPa 0,0 l/m 2,7 km/h (1 Bft) W 268 0 min 0,000 mm 0,0 UV-I 39 W/m 10,8 C 12,4 C 3,2 km/h (1 Bft) 100,00 %
08.11.2015 08:35 12,4 C 90 % 1029,8 hPa 0,0 l/m 2,5 km/h (1 Bft) W 269 0 min 0,000 mm 0,0 UV-I 44 W/m 10,8 C 12,4 C 3,2 km/h (1 Bft) 100,00 %
08.11.2015 08:36 12,4 C 90 % 1029,8 hPa 0,0 l/m 2,3 km/h (1 Bft) W-NW 284 0 min 0,000 mm 0,0 UV-I 53 W/m 10,8 C 12,4 C 3,2 km/h (1 Bft) 100,00 %
08.11.2015 08:37 12,4 C 90 % 1029,8 hPa 0,0 l/m 1,7 km/h (1 Bft) W-NW 284 0 min 0,000 mm 0,0 UV-I 59 W/m 10,8 C 12,4 C 3,2 km/h (1 Bft) 100,00 %
08.11.2015 08:38 12,3 C 90 % 1029,7 hPa 0,0 l/m 2,0 km/h (1 Bft) W-NW 283 0 min 0,000 mm 0,0 UV-I 57 W/m 10,7 C 12,3 C 4,8 km/h (1 Bft) 100,00 %
08.11.2015 08:39 12,3 C 90 % 1029,7 hPa 0,0 l/m 0,9 km/h (0 Bft) W-NW 283 0 min 0,000 mm 0,0 UV-I 63 W/m 10,7 C 12,3 C 3,2 km/h (1 Bft) 100,00 %
08.11.2015 08:40 12,3 C 90 % 1029,8 hPa 0,0 l/m 2,6 km/h (1 Bft) W-NW 290 0 min 0,000 mm 0,0 UV-I 63 W/m 10,7 C 12,3 C 4,8 km/h (1 Bft) 100,00 %
08.11.2015 08:41 12,3 C 90 % 1029,8 hPa 0,0 l/m 0,8 km/h (0 Bft) W-NW 295 0 min 0,000 mm 0,0 UV-I 55 W/m 10,7 C 12,3 C 1,6 km/h (1 Bft) 100,00 %
08.11.2015 08:42 12,3 C 91 % 1029,9 hPa 0,0 l/m 0,3 km/h (0 Bft) W-NW 297 0 min 0,000 mm 0,0 UV-I 56 W/m 10,9 C 12,3 C 1,6 km/h (1 Bft) 100,00 %
08.11.2015 08:43 12,2 C 91 % 1029,9 hPa 0,0 l/m 0,4 km/h (0 Bft) W-NW 297 0 min 0,000 mm 0,0 UV-I 68 W/m 10,8 C 12,2 C 1,6 km/h (1 Bft) 100,00 %
08.11.2015 08:44 12,2 C 92 % 1030,0 hPa 0,0 l/m 0,1 km/h (0 Bft) W-NW 297 0 min 0,000 mm 0,0 UV-I 70 W/m 10,9 C 12,2 C 1,6 km/h (1 Bft) 100,00 %
08.11.2015 08:45 12,1 C 92 % 1030,0 hPa 0,0 l/m 0,6 km/h (0 Bft) W-NW 298 0 min 0,000 mm 0,0 UV-I 55 W/m 10,8 C 12,1 C 1,6 km/h (1 Bft) 100,00 %
08.11.2015 08:46 12,1 C 92 % 1030,0 hPa 0,0 l/m 0,9 km/h (0 Bft) W-NW 299 0 min 0,000 mm 0,0 UV-I 50 W/m 10,8 C 12,1 C 3,2 km/h (1 Bft) 100,00 %
08.11.2015 08:47 12,1 C 92 % 1029,9 hPa 0,0 l/m 0,1 km/h (0 Bft) W-NW 299 0 min 0,000 mm 0,0 UV-I 53 W/m 10,8 C 12,1 C 1,6 km/h (1 Bft) 100,00 %
08.11.2015 08:48 12,0 C 92 % 1029,9 hPa 0,0 l/m 0,1 km/h (0 Bft) W-NW 299 0 min 0,000 mm 0,0 UV-I 60 W/m 10,7 C 12,0 C 1,6 km/h (1 Bft) 100,00 %
08.11.2015 08:49 11,9 C 92 % 1029,9 hPa 0,0 l/m 0,3 km/h (0 Bft) W-NW 299 0 min 0,000 mm 0,0 UV-I 75 W/m 10,6 C 11,9 C 1,6 km/h (1 Bft) 100,00 %
08.11.2015 08:50 11,9 C 93 % 1029,9 hPa 0,0 l/m 0,1 km/h (0 Bft) W-NW 299 0 min 0,000 mm 0,0 UV-I 94 W/m 10,8 C 11,9 C 1,6 km/h (1 Bft) 100,00 %
08.11.2015 08:51 11,8 C 93 % 1029,9 hPa 0,0 l/m 0,0 km/h (0 Bft) W-NW 299 0 min 0,000 mm 0,0 UV-I 92 W/m 10,7 C 11,8 C 0,0 km/h (0 Bft) 100,00 %
08.11.2015 08:52 11,8 C 93 % 1030,0 hPa 0,0 l/m 0,1 km/h (0 Bft) W-NW 299 0 min 0,000 mm 0,0 UV-I 82 W/m 10,7 C 11,8 C 1,6 km/h (1 Bft) 96,15 %
08.11.2015 08:53 11,8 C 93 % 1030,0 hPa 0,0 l/m 0,1 km/h (0 Bft) W-NW 299 0 min 0,000 mm 0,0 UV-I 74 W/m 10,7 C 11,8 C 1,6 km/h (1 Bft) 100,00 %
08.11.2015 08:54 11,8 C 93 % 1030,1 hPa 0,0 l/m 0,0 km/h (0 Bft) W-NW 299 0 min 0,000 mm 0,0 UV-I 75 W/m 10,7 C 11,8 C 0,0 km/h (0 Bft) 100,00 %
08.11.2015 08:55 11,8 C 93 % 1030,1 hPa 0,0 l/m 0,0 km/h (0 Bft) W-NW 299 0 min 0,000 mm 0,0 UV-I 78 W/m 10,7 C 11,8 C 0,0 km/h (0 Bft) 79,17 %
08.11.2015 08:56 11,8 C 93 % 1030,1 hPa 0,0 l/m 0,0 km/h (0 Bft) W-NW 299 0 min 0,000 mm 0,0 UV-I 54 W/m 10,7 C 11,8 C 0,0 km/h (0 Bft) 90,91 %
08.11.2015 08:59 11,9 C 93 % 1029,9 hPa 0,0 l/m 0,0 km/h (0 Bft) W-NW 299 0 min 0,000 mm 0,0 UV-I 85 W/m 10,8 C 11,9 C 0,0 km/h (0 Bft) 93,98 %
08.11.2015 09:00 11,9 C 93 % 1029,9 hPa 0,0 l/m 0,0 km/h (0 Bft) W-NW 299 0 min 0,000 mm 0,0 UV-I 97 W/m 10,8 C 11,9 C 0,0 km/h (0 Bft) 96,15 %
08.11.2015 09:01 11,9 C 93 % 1030,0 hPa 0,0 l/m 0,0 km/h (0 Bft) W-NW 299 0 min 0,025 mm 0,0 UV-I 99 W/m 10,8 C 11,9 C 0,0 km/h (0 Bft) 99,14 %
08.11.2015 09:04 12,2 C 92 % 1030,2 hPa 0,0 l/m 0,2 km/h (0 Bft) W-NW 288 0 min 0,001 mm 0,0 UV-I 91 W/m 10,9 C 12,2 C 1,6 km/h (1 Bft) 96,77 %
08.11.2015 09:05 12,3 C 92 % 1030,2 hPa 0,0 l/m 0,1 km/h (0 Bft) W-NW 288 0 min 0,000 mm 0,0 UV-I 79 W/m 11,0 C 12,3 C 1,6 km/h (1 Bft) 100,00 %
08.11.2015 09:06 12,3 C 92 % 1030,1 hPa 0,0 l/m 0,0 km/h (0 Bft) W-NW 288 0 min 0,000 mm 0,0 UV-I 60 W/m 11,0 C 12,3 C 0,0 km/h (0 Bft) 100,00 %
08.11.2015 09:07 12,4 C 92 % 1030,1 hPa 0,0 l/m 0,0 km/h (0 Bft) W-NW 288 0 min 0,000 mm 0,0 UV-I 45 W/m 11,1 C 12,4 C 0,0 km/h (0 Bft) 100,00 %
08.11.2015 09:08 12,4 C 92 % 1030,1 hPa 0,0 l/m 0,0 km/h (0 Bft) W-NW 288 0 min 0,000 mm 0,0 UV-I 54 W/m 11,1 C 12,4 C 0,0 km/h (0 Bft) 100,00 %
08.11.2015 09:09 12,4 C 92 % 1030,1 hPa 0,0 l/m 0,0 km/h (0 Bft) W-NW 288 0 min 0,000 mm 0,1 UV-I 75 W/m 11,1 C 12,4 C 0,0 km/h (0 Bft) 100,00 %
08.11.2015 09:10 12,4 C 92 % 1030,1 hPa 0,0 l/m 0,0 km/h (0 Bft) W-NW 288 0 min 0,000 mm 0,5 UV-I 90 W/m 11,1 C 12,4 C 0,0 km/h (0 Bft) 100,00 %
08.11.2015 09:11 12,4 C 91 % 1030,1 hPa 0,0 l/m 0,0 km/h (0 Bft) W-NW 288 0 min 0,000 mm 0,5 UV-I 101 W/m 11,0 C 12,4 C 0,0 km/h (0 Bft) 100,00 %
08.11.2015 09:12 12,5 C 91 % 1030,2 hPa 0,0 l/m 0,0 km/h (0 Bft) W-NW 288 0 min 0,000 mm 0,5 UV-I 111 W/m 11,1 C 12,5 C 0,0 km/h (0 Bft) 100,00 %
08.11.2015 09:13 12,6 C 91 % 1030,2 hPa 0,0 l/m 0,1 km/h (0 Bft) W-NW 288 0 min 0,000 mm 0,5 UV-I 114 W/m 11,2 C 12,6 C 1,6 km/h (1 Bft) 100,00 %
08.11.2015 09:14 12,6 C 91 % 1030,2 hPa 0,0 l/m 0,0 km/h (0 Bft) W-NW 288 0 min 0,000 mm 0,5 UV-I 124 W/m 11,2 C 12,6 C 0,0 km/h (0 Bft) 95,83 %
08.11.2015 09:15 12,7 C 91 % 1030,2 hPa 0,0 l/m 0,0 km/h (0 Bft) W-NW 288 0 min 0,000 mm 0,5 UV-I 138 W/m 11,3 C 12,7 C 0,0 km/h (0 Bft) 100,00 %
08.11.2015 09:16 12,7 C 91 % 1030,0 hPa 0,0 l/m 0,0 km/h (0 Bft) W-NW 288 0 min 0,000 mm 0,5 UV-I 118 W/m 11,3 C 12,7 C 0,0 km/h (0 Bft) 100,00 %
08.11.2015 09:17 12,7 C 91 % 1030,0 hPa 0,0 l/m 0,0 km/h (0 Bft) W-NW 288 0 min 0,000 mm 0,5 UV-I 102 W/m 11,3 C 12,7 C 0,0 km/h (0 Bft) 100,00 %
08.11.2015 09:18 12,7 C 91 % 1030,1 hPa 0,0 l/m 0,0 km/h (0 Bft) W-NW 288 0 min 0,000 mm 0,5 UV-I 104 W/m 11,3 C 12,7 C 0,0 km/h (0 Bft) 100,00 %
08.11.2015 09:19 12,8 C 91 % 1030,1 hPa 0,0 l/m 0,8 km/h (0 Bft) W-NW 288 0 min 0,000 mm 0,5 UV-I 121 W/m 11,4 C 12,8 C 1,6 km/h (1 Bft) 100,00 %
08.11.2015 09:20 12,8 C 91 % 1030,1 hPa 0,0 l/m 0,6 km/h (0 Bft) W-NW 288 0 min 0,000 mm 0,5 UV-I 129 W/m 11,4 C 12,8 C 1,6 km/h (1 Bft) 100,00 %
08.11.2015 09:21 12,9 C 91 % 1030,1 hPa 0,0 l/m 0,0 km/h (0 Bft) W-NW 288 0 min 0,000 mm 0,5 UV-I 107 W/m 11,5 C 12,9 C 0,0 km/h (0 Bft) 97,37 %
08.11.2015 09:22 12,9 C 91 % 1030,1 hPa 0,0 l/m 0,0 km/h (0 Bft) W-NW 288 0 min 0,000 mm 0,5 UV-I 68 W/m 11,5 C 12,9 C 0,0 km/h (0 Bft) 100,00 %
08.11.2015 09:23 12,9 C 91 % 1030,1 hPa 0,0 l/m 0,0 km/h (0 Bft) W-NW 288 0 min 0,000 mm 0,2 UV-I 52 W/m 11,5 C 12,9 C 0,0 km/h (0 Bft) 100,00 %
08.11.2015 09:24 12,9 C 91 % 1030,2 hPa 0,0 l/m 0,0 km/h (0 Bft) W-NW 288 0 min 0,000 mm 0,0 UV-I 53 W/m 11,5 C 12,9 C 0,0 km/h (0 Bft) 95,83 %
08.11.2015 09:25 12,9 C 91 % 1030,2 hPa 0,0 l/m 0,0 km/h (0 Bft) W-NW 288 0 min 0,000 mm 0,0 UV-I 51 W/m 11,5 C 12,9 C 0,0 km/h (0 Bft) 100,00 %
08.11.2015 09:26 12,8 C 91 % 1030,2 hPa 0,0 l/m 0,0 km/h (0 Bft) W-NW 288 0 min 0,000 mm 0,0 UV-I 51 W/m 11,4 C 12,8 C 0,0 km/h (0 Bft) 100,00 %
08.11.2015 09:27 12,9 C 91 % 1030,2 hPa 0,0 l/m 0,0 km/h (0 Bft) W-NW 288 0 min 0,000 mm 0,0 UV-I 52 W/m 11,5 C 12,9 C 0,0 km/h (0 Bft) 100,00 %
08.11.2015 09:28 12,8 C 90 % 1030,2 hPa 0,0 l/m 0,0 km/h (0 Bft) W-NW 288 0 min 0,000 mm 0,5 UV-I 58 W/m 11,2 C 12,8 C 0,0 km/h (0 Bft) 96,15 %
08.11.2015 09:29 12,9 C 91 % 1030,2 hPa 0,0 l/m 0,0 km/h (0 Bft) W-NW 288 0 min 0,000 mm 0,5 UV-I 60 W/m 11,5 C 12,9 C 0,0 km/h (0 Bft) 100,00 %
08.11.2015 09:30 12,9 C 91 % 1030,3 hPa 0,0 l/m 0,0 km/h (0 Bft) W-NW 288 0 min 0,000 mm 0,5 UV-I 58 W/m 11,5 C 12,9 C 0,0 km/h (0 Bft) 100,00 %
08.11.2015 09:31 12,8 C 91 % 1030,3 hPa 0,0 l/m 0,0 km/h (0 Bft) W-NW 288 0 min 0,000 mm 0,1 UV-I 51 W/m 11,4 C 12,8 C 0,0 km/h (0 Bft) 100,00 %
08.11.2015 09:32 12,8 C 91 % 1030,2 hPa 0,0 l/m 0,0 km/h (0 Bft) W-NW 288 0 min 0,000 mm 0,0 UV-I 48 W/m 11,4 C 12,8 C 0,0 km/h (0 Bft) 100,00 %
08.11.2015 09:33 12,8 C 91 % 1030,3 hPa 0,0 l/m 0,0 km/h (0 Bft) W-NW 288 0 min 0,000 mm 0,0 UV-I 48 W/m 11,4 C 12,8 C 0,0 km/h (0 Bft) 100,00 %
08.11.2015 09:34 12,8 C 91 % 1030,3 hPa 0,0 l/m 0,0 km/h (0 Bft) W-NW 288 0 min 0,000 mm 0,2 UV-I 53 W/m 11,4 C 12,8 C 0,0 km/h (0 Bft) 95,65 %
08.11.2015 09:35 12,8 C 91 % 1030,3 hPa 0,0 l/m 0,0 km/h (0 Bft) W-NW 288 0 min 0,000 mm 0,6 UV-I 65 W/m 11,4 C 12,8 C 0,0 km/h (0 Bft) 100,00 %
08.11.2015 09:36 12,8 C 91 % 1030,3 hPa 0,0 l/m 0,0 km/h (0 Bft) W-NW 288 0 min 0,000 mm 0,6 UV-I 69 W/m 11,4 C 12,8 C 0,0 km/h (0 Bft) 91,30 %
08.11.2015 09:37 12,8 C 91 % 1030,3 hPa 0,0 l/m 0,8 km/h (0 Bft) W-NW 288 0 min 0,000 mm 0,5 UV-I 96 W/m 11,4 C 12,8 C 1,6 km/h (1 Bft) 100,00 %
08.11.2015 09:38 12,8 C 91 % 1030,4 hPa 0,0 l/m 0,2 km/h (0 Bft) W-NW 288 0 min 0,000 mm 0,5 UV-I 117 W/m 11,4 C 12,8 C 1,6 km/h (1 Bft) 92,86 %
08.11.2015 09:39 12,9 C 92 % 1030,3 hPa 0,0 l/m 0,5 km/h (0 Bft) W-NW 288 0 min 0,000 mm 0,5 UV-I 117 W/m 11,6 C 12,9 C 1,6 km/h (1 Bft) 100,00 %
08.11.2015 09:40 12,9 C 92 % 1030,3 hPa 0,0 l/m 0,0 km/h (0 Bft) W-NW 288 0 min 0,000 mm 0,5 UV-I 121 W/m 11,6 C 12,9 C 0,0 km/h (0 Bft) 100,00 %
08.11.2015 09:41 12,9 C 92 % 1030,3 hPa 0,0 l/m 0,0 km/h (0 Bft) W-NW 288 0 min 0,000 mm 0,5 UV-I 129 W/m 11,6 C 12,9 C 0,0 km/h (0 Bft) 100,00 %
08.11.2015 09:42 13,0 C 92 % 1030,3 hPa 0,0 l/m 0,0 km/h (0 Bft) W-NW 288 0 min 0,000 mm 0,5 UV-I 121 W/m 11,7 C 13,0 C 0,0 km/h (0 Bft) 95,65 %
08.11.2015 09:43 13,1 C 92 % 1030,3 hPa 0,0 l/m 0,0 km/h (0 Bft) W-NW 288 0 min 0,000 mm 0,5 UV-I 102 W/m 11,8 C 13,1 C 0,0 km/h (0 Bft) 100,00 %
08.11.2015 09:44 13,1 C 92 % 1030,3 hPa 0,0 l/m 0,0 km/h (0 Bft) W-NW 288 0 min 0,000 mm 0,5 UV-I 104 W/m 11,8 C 13,1 C 0,0 km/h (0 Bft) 100,00 %
08.11.2015 09:45 13,2 C 92 % 1030,4 hPa 0,0 l/m 0,0 km/h (0 Bft) W-NW 288 0 min 0,000 mm 0,5 UV-I 100 W/m 11,9 C 13,2 C 0,0 km/h (0 Bft) 91,67 %
08.11.2015 09:46 13,2 C 91 % 1030,4 hPa 0,0 l/m 0,0 km/h (0 Bft) W-NW 288 0 min 0,000 mm 0,5 UV-I 89 W/m 11,8 C 13,2 C 0,0 km/h (0 Bft) 100,00 %
08.11.2015 09:47 13,3 C 91 % 1030,3 hPa 0,0 l/m 0,0 km/h (0 Bft) W-NW 288 0 min 0,000 mm 0,5 UV-I 86 W/m 11,9 C 13,3 C 0,0 km/h (0 Bft) 93,33 %
08.11.2015 09:48 13,3 C 91 % 1030,4 hPa 0,0 l/m 0,0 km/h (0 Bft) W-NW 288 0 min 0,000 mm 0,5 UV-I 84 W/m 11,9 C 13,3 C 0,0 km/h (0 Bft) 100,00 %
08.11.2015 09:49 13,3 C 91 % 1030,4 hPa 0,0 l/m 0,0 km/h (0 Bft) W-NW 288 0 min 0,000 mm 0,5 UV-I 86 W/m 11,9 C 13,3 C 0,0 km/h (0 Bft) 100,00 %
08.11.2015 09:50 13,3 C 91 % 1030,4 hPa 0,0 l/m 0,0 km/h (0 Bft) W-NW 288 0 min 0,000 mm 0,5 UV-I 94 W/m 11,9 C 13,3 C 0,0 km/h (0 Bft) 100,00 %
08.11.2015 09:51 13,3 C 91 % 1030,4 hPa 0,0 l/m 0,0 km/h (0 Bft) W-NW 288 0 min 0,000 mm 0,5 UV-I 87 W/m 11,9 C 13,3 C 0,0 km/h (0 Bft) 100,00 %
08.11.2015 09:52 13,3 C 90 % 1030,4 hPa 0,0 l/m 0,2 km/h (0 Bft) W-NW 288 0 min 0,000 mm 0,5 UV-I 79 W/m 11,7 C 13,3 C 1,6 km/h (1 Bft) 100,00 %
08.11.2015 09:53 13,4 C 90 % 1030,5 hPa 0,0 l/m 0,0 km/h (0 Bft) W-NW 288 0 min 0,000 mm 0,5 UV-I 81 W/m 11,8 C 13,4 C 0,0 km/h (0 Bft) 100,00 %
08.11.2015 09:54 13,4 C 91 % 1030,5 hPa 0,0 l/m 0,0 km/h (0 Bft) W-NW 288 0 min 0,000 mm 0,5 UV-I 98 W/m 12,0 C 13,4 C 0,0 km/h (0 Bft) 95,83 %
08.11.2015 09:55 13,5 C 91 % 1030,5 hPa 0,0 l/m 0,0 km/h (0 Bft) W-NW 288 0 min 0,000 mm 0,5 UV-I 115 W/m 12,1 C 13,5 C 0,0 km/h (0 Bft) 95,65 %
08.11.2015 09:56 13,5 C 91 % 1030,5 hPa 0,0 l/m 0,0 km/h (0 Bft) W-NW 288 0 min 0,000 mm 0,4 UV-I 100 W/m 12,1 C 13,5 C 0,0 km/h (0 Bft) 100,00 %
08.11.2015 09:57 13,6 C 90 % 1030,5 hPa 0,0 l/m 0,0 km/h (0 Bft) W-NW 288 0 min 0,000 mm 0,0 UV-I 85 W/m 12,0 C 13,6 C 0,0 km/h (0 Bft) 95,65 %
08.11.2015 09:58 13,6 C 90 % 1030,5 hPa 0,0 l/m 0,1 km/h (0 Bft) W-NW 288 0 min 0,000 mm 0,0 UV-I 69 W/m 12,0 C 13,6 C 1,6 km/h (1 Bft) 100,00 %
08.11.2015 09:59 13,6 C 90 % 1030,6 hPa 0,0 l/m 1,3 km/h (1 Bft) W-NW 290 0 min 0,000 mm 0,0 UV-I 59 W/m 12,0 C 13,6 C 1,6 km/h (1 Bft) 100,00 %
08.11.2015 10:00 13,7 C 90 % 1030,6 hPa 0,0 l/m 0,8 km/h (0 Bft) W-NW 292 0 min 0,051 mm 0,0 UV-I 61 W/m 12,1 C 13,7 C 1,6 km/h (1 Bft) 100,00 %
08.11.2015 10:02 13,7 C 90 % 1030,6 hPa 0,0 l/m 0,1 km/h (0 Bft) W-NW 292 0 min 0,000 mm 0,0 UV-I 73 W/m 12,1 C 13,7 C 1,6 km/h (1 Bft) 100,00 %
08.11.2015 10:03 13,7 C 90 % 1030,6 hPa 0,0 l/m 0,2 km/h (0 Bft) W-NW 292 0 min 0,000 mm 0,0 UV-I 77 W/m 12,1 C 13,7 C 1,6 km/h (1 Bft) 100,00 %
08.11.2015 10:04 13,7 C 90 % 1030,6 hPa 0,0 l/m 0,0 km/h (0 Bft) W-NW 292 0 min 0,000 mm 0,0 UV-I 81 W/m 12,1 C 13,7 C 0,0 km/h (0 Bft) 100,00 %
08.11.2015 10:05 13,7 C 89 % 1030,6 hPa 0,0 l/m 0,0 km/h (0 Bft) W-NW 292 0 min 0,000 mm 0,0 UV-I 78 W/m 11,9 C 13,7 C 0,0 km/h (0 Bft) 91,67 %
08.11.2015 10:06 13,7 C 89 % 1030,6 hPa 0,0 l/m 0,1 km/h (0 Bft) W-NW 292 0 min 0,000 mm 0,0 UV-I 67 W/m 11,9 C 13,7 C 1,6 km/h (1 Bft) 96,55 %
08.11.2015 10:07 13,7 C 89 % 1030,6 hPa 0,0 l/m 1,2 km/h (1 Bft) W-NW 292 0 min 0,000 mm 0,0 UV-I 66 W/m 11,9 C 13,7 C 3,2 km/h (1 Bft) 95,83 %
08.11.2015 10:08 13,8 C 89 % 1030,6 hPa 0,0 l/m 0,2 km/h (0 Bft) W-NW 292 0 min 0,000 mm 0,0 UV-I 68 W/m 12,0 C 13,8 C 1,6 km/h (1 Bft) 96,15 %
08.11.2015 10:09 13,8 C 90 % 1030,6 hPa 0,0 l/m 0,0 km/h (0 Bft) W-NW 292 0 min 0,000 mm 0,0 UV-I 72 W/m 12,2 C 13,8 C 0,0 km/h (0 Bft) 100,00 %
08.11.2015 10:10 13,8 C 90 % 1030,6 hPa 0,0 l/m 0,1 km/h (0 Bft) W-NW 292 0 min 0,000 mm 0,3 UV-I 82 W/m 12,2 C 13,8 C 1,6 km/h (1 Bft) 100,00 %
08.11.2015 10:11 13,8 C 90 % 1030,6 hPa 0,0 l/m 0,2 km/h (0 Bft) W-NW 292 0 min 0,000 mm 0,5 UV-I 97 W/m 12,2 C 13,8 C 1,6 km/h (1 Bft) 95,83 %
08.11.2015 10:12 13,8 C 91 % 1030,6 hPa 0,0 l/m 0,6 km/h (0 Bft) W-NW 302 0 min 0,000 mm 0,6 UV-I 125 W/m 12,4 C 13,8 C 1,6 km/h (1 Bft) 100,00 %
08.11.2015 10:13 13,8 C 91 % 1030,6 hPa 0,0 l/m 2,4 km/h (1 Bft) W-NW 286 0 min 0,000 mm 0,7 UV-I 151 W/m 12,4 C 13,8 C 3,2 km/h (1 Bft) 100,00 %
08.11.2015 10:14 13,9 C 90 % 1030,6 hPa 0,0 l/m 1,6 km/h (1 Bft) N-NW 333 0 min 0,000 mm 0,7 UV-I 159 W/m 12,3 C 13,9 C 3,2 km/h (1 Bft) 100,00 %
08.11.2015 10:15 13,9 C 90 % 1030,6 hPa 0,0 l/m 1,6 km/h (1 Bft) N 5 0 min 0,000 mm 0,7 UV-I 162 W/m 12,3 C 13,9 C 3,2 km/h (1 Bft) 100,00 %
08.11.2015 10:16 14,0 C 90 % 1030,6 hPa 0,0 l/m 1,9 km/h (1 Bft) N 5 0 min 0,000 mm 0,8 UV-I 160 W/m 12,4 C 14,0 C 3,2 km/h (1 Bft) 100,00 %
08.11.2015 10:17 14,1 C 90 % 1030,6 hPa 0,0 l/m 1,5 km/h (1 Bft) N-NW 339 0 min 0,000 mm 0,8 UV-I 160 W/m 12,5 C 14,1 C 3,2 km/h (1 Bft) 100,00 %
08.11.2015 10:18 14,1 C 89 % 1030,6 hPa 0,0 l/m 2,0 km/h (1 Bft) W 277 1 min 0,000 mm 0,9 UV-I 229 W/m 12,3 C 14,1 C 3,2 km/h (1 Bft) 100,00 %
08.11.2015 10:19 14,2 C 89 % 1030,6 hPa 0,0 l/m 1,3 km/h (1 Bft) NW 321 0 min 0,000 mm 0,9 UV-I 196 W/m 12,4 C 14,2 C 1,6 km/h (1 Bft) 100,00 %
08.11.2015 10:20 14,2 C 90 % 1030,6 hPa 0,0 l/m 1,2 km/h (1 Bft) W-NW 300 0 min 0,000 mm 0,9 UV-I 181 W/m 12,6 C 14,2 C 4,8 km/h (1 Bft) 100,00 %
08.11.2015 10:21 14,2 C 88 % 1030,6 hPa 0,0 l/m 2,2 km/h (1 Bft) W-NW 300 0 min 0,000 mm 0,9 UV-I 175 W/m 12,2 C 14,2 C 4,8 km/h (1 Bft) 100,00 %
08.11.2015 10:22 14,2 C 88 % 1030,6 hPa 0,0 l/m 1,9 km/h (1 Bft) N-NW 344 0 min 0,000 mm 0,9 UV-I 169 W/m 12,2 C 14,2 C 3,2 km/h (1 Bft) 95,83 %
08.11.2015 10:23 14,3 C 89 % 1030,6 hPa 0,0 l/m 0,9 km/h (0 Bft) W-NW 303 0 min 0,000 mm 0,9 UV-I 161 W/m 12,5 C 14,3 C 3,2 km/h (1 Bft) 95,65 %
08.11.2015 10:24 14,3 C 88 % 1030,7 hPa 0,0 l/m 1,9 km/h (1 Bft) N 355 0 min 0,000 mm 0,9 UV-I 164 W/m 12,3 C 14,3 C 4,8 km/h (1 Bft) 100,00 %
08.11.2015 10:25 14,3 C 88 % 1030,7 hPa 0,0 l/m 2,0 km/h (1 Bft) W-NW 302 0 min 0,000 mm 0,9 UV-I 159 W/m 12,3 C 14,3 C 3,2 km/h (1 Bft) 100,00 %
08.11.2015 10:26 14,3 C 88 % 1030,7 hPa 0,0 l/m 2,2 km/h (1 Bft) N 5 0 min 0,000 mm 0,9 UV-I 208 W/m 12,3 C 14,3 C 4,8 km/h (1 Bft) 87,50 %
08.11.2015 10:27 14,3 C 88 % 1030,7 hPa 0,0 l/m 1,9 km/h (1 Bft) N-NW 344 1 min 0,000 mm 1,0 UV-I 264 W/m 12,3 C 14,3 C 4,8 km/h (1 Bft) 100,00 %
08.11.2015 10:28 14,3 C 88 % 1030,7 hPa 0,0 l/m 2,2 km/h (1 Bft) N 5 0 min 0,000 mm 1,0 UV-I 184 W/m 12,3 C 14,3 C 3,2 km/h (1 Bft) 92,59 %
08.11.2015 10:29 14,4 C 88 % 1030,8 hPa 0,0 l/m 2,8 km/h (1 Bft) W-NW 295 0 min 0,000 mm 1,0 UV-I 178 W/m 12,4 C 14,4 C 4,8 km/h (1 Bft) 91,30 %
08.11.2015 10:30 14,4 C 88 % 1030,8 hPa 0,0 l/m 2,4 km/h (1 Bft) N-NO 13 1 min 0,000 mm 1,1 UV-I 227 W/m 12,4 C 14,4 C 3,2 km/h (1 Bft) 100,00 %
08.11.2015 10:31 14,5 C 88 % 1030,8 hPa 0,0 l/m 2,1 km/h (1 Bft) W 277 1 min 0,000 mm 1,2 UV-I 227 W/m 12,5 C 14,5 C 3,2 km/h (1 Bft) 92,86 %
08.11.2015 10:32 14,6 C 88 % 1030,7 hPa 0,0 l/m 2,0 km/h (1 Bft) N-NW 335 1 min 0,000 mm 1,0 UV-I 227 W/m 12,6 C 14,6 C 3,2 km/h (1 Bft) 100,00 %
08.11.2015 10:33 14,6 C 87 % 1030,8 hPa 0,0 l/m 1,5 km/h (1 Bft) N-NW 338 1 min 0,000 mm 1,0 UV-I 251 W/m 12,5 C 14,6 C 4,8 km/h (1 Bft) 100,00 %
08.11.2015 10:34 14,7 C 87 % 1030,7 hPa 0,0 l/m 1,2 km/h (1 Bft) N-NW 347 1 min 0,000 mm 1,0 UV-I 265 W/m 12,6 C 14,7 C 3,2 km/h (1 Bft) 100,00 %
08.11.2015 10:35 14,7 C 87 % 1030,7 hPa 0,0 l/m 1,7 km/h (1 Bft) N-NW 344 0 min 0,000 mm 1,0 UV-I 154 W/m 12,6 C 14,7 C 3,2 km/h (1 Bft) 96,15 %
08.11.2015 10:36 14,7 C 87 % 1030,7 hPa 0,0 l/m 1,3 km/h (1 Bft) N-NW 347 0 min 0,000 mm 1,0 UV-I 156 W/m 12,6 C 14,7 C 1,6 km/h (1 Bft) 100,00 %
08.11.2015 10:37 14,7 C 87 % 1030,8 hPa 0,0 l/m 0,8 km/h (0 Bft) N-NW 329 0 min 0,000 mm 1,0 UV-I 192 W/m 12,6 C 14,7 C 3,2 km/h (1 Bft) 95,65 %
08.11.2015 10:38 14,7 C 87 % 1030,8 hPa 0,0 l/m 1,8 km/h (1 Bft) W 271 1 min 0,000 mm 1,0 UV-I 266 W/m 12,6 C 14,7 C 3,2 km/h (1 Bft) 100,00 %
08.11.2015 10:39 14,7 C 87 % 1030,8 hPa 0,0 l/m 2,6 km/h (1 Bft) W-NW 301 1 min 0,000 mm 1,2 UV-I 357 W/m 12,6 C 14,7 C 4,8 km/h (1 Bft) 100,00 %
08.11.2015 10:40 14,8 C 86 % 1030,8 hPa 0,0 l/m 1,0 km/h (0 Bft) W-NW 292 1 min 0,000 mm 1,2 UV-I 418 W/m 12,5 C 14,8 C 1,6 km/h (1 Bft) 100,00 %
08.11.2015 10:41 14,8 C 86 % 1030,8 hPa 0,0 l/m 1,9 km/h (1 Bft) W-NW 294 1 min 0,000 mm 1,2 UV-I 370 W/m 12,5 C 14,8 C 3,2 km/h (1 Bft) 100,00 %
08.11.2015 10:42 14,9 C 87 % 1030,8 hPa 0,0 l/m 2,3 km/h (1 Bft) W-NW 295 1 min 0,000 mm 1,0 UV-I 321 W/m 12,8 C 14,9 C 3,2 km/h (1 Bft) 96,30 %
08.11.2015 10:43 14,9 C 86 % 1030,8 hPa 0,0 l/m 2,6 km/h (1 Bft) W-NW 296 0 min 0,000 mm 1,0 UV-I 209 W/m 12,6 C 14,9 C 4,8 km/h (1 Bft) 100,00 %
08.11.2015 10:44 15,0 C 86 % 1030,8 hPa 0,0 l/m 2,3 km/h (1 Bft) W-NW 292 0 min 0,000 mm 1,0 UV-I 191 W/m 12,7 C 15,0 C 4,8 km/h (1 Bft) 100,00 %
08.11.2015 10:45 15,0 C 85 % 1030,8 hPa 0,0 l/m 1,7 km/h (1 Bft) NW 321 0 min 0,000 mm 0,9 UV-I 181 W/m 12,5 C 15,0 C 3,2 km/h (1 Bft) 95,65 %
08.11.2015 10:46 15,0 C 85 % 1030,8 hPa 0,0 l/m 1,9 km/h (1 Bft) W 264 0 min 0,000 mm 0,9 UV-I 178 W/m 12,5 C 15,0 C 4,8 km/h (1 Bft) 100,00 %
08.11.2015 10:47 15,1 C 85 % 1030,8 hPa 0,0 l/m 4,0 km/h (1 Bft) NW 309 0 min 0,000 mm 0,9 UV-I 185 W/m 12,6 C 15,1 C 6,4 km/h (2 Bft) 100,00 %
08.11.2015 10:48 15,1 C 85 % 1030,8 hPa 0,0 l/m 1,7 km/h (1 Bft) W 269 0 min 0,000 mm 0,9 UV-I 184 W/m 12,6 C 15,1 C 4,8 km/h (1 Bft) 100,00 %
08.11.2015 10:49 15,1 C 86 % 1030,8 hPa 0,0 l/m 1,4 km/h (1 Bft) W 269 0 min 0,000 mm 0,9 UV-I 183 W/m 12,8 C 15,1 C 3,2 km/h (1 Bft) 100,00 %
08.11.2015 10:50 15,1 C 86 % 1030,7 hPa 0,0 l/m 1,5 km/h (1 Bft) N-NW 332 0 min 0,000 mm 0,9 UV-I 174 W/m 12,8 C 15,1 C 4,8 km/h (1 Bft) 100,00 %
08.11.2015 10:51 15,1 C 86 % 1030,7 hPa 0,0 l/m 3,3 km/h (1 Bft) W 273 0 min 0,000 mm 0,9 UV-I 171 W/m 12,8 C 15,1 C 4,8 km/h (1 Bft) 100,00 %
08.11.2015 10:52 15,1 C 86 % 1030,7 hPa 0,0 l/m 1,4 km/h (1 Bft) W 275 0 min 0,000 mm 0,9 UV-I 173 W/m 12,8 C 15,1 C 3,2 km/h (1 Bft) 100,00 %
08.11.2015 10:53 15,1 C 86 % 1030,7 hPa 0,0 l/m 1,7 km/h (1 Bft) W 275 0 min 0,000 mm 0,9 UV-I 178 W/m 12,8 C 15,1 C 3,2 km/h (1 Bft) 100,00 %
08.11.2015 10:54 15,1 C 85 % 1030,7 hPa 0,0 l/m 2,0 km/h (1 Bft) W 279 0 min 0,000 mm 0,9 UV-I 182 W/m 12,6 C 15,1 C 3,2 km/h (1 Bft) 96,15 %
08.11.2015 10:55 15,1 C 86 % 1030,7 hPa 0,0 l/m 2,6 km/h (1 Bft) W 279 0 min 0,000 mm 0,9 UV-I 183 W/m 12,8 C 15,1 C 3,2 km/h (1 Bft) 100,00 %
08.11.2015 10:56 15,1 C 86 % 1030,6 hPa 0,0 l/m 0,3 km/h (0 Bft) W 279 0 min 0,000 mm 0,9 UV-I 189 W/m 12,8 C 15,1 C 1,6 km/h (1 Bft) 100,00 %
08.11.2015 10:57 15,2 C 87 % 1030,6 hPa 0,0 l/m 0,1 km/h (0 Bft) W 279 0 min 0,000 mm 1,0 UV-I 179 W/m 13,0 C 15,2 C 1,6 km/h (1 Bft) 100,00 %
08.11.2015 10:58 15,2 C 86 % 1030,5 hPa 0,0 l/m 0,3 km/h (0 Bft) W-NW 289 0 min 0,000 mm 1,0 UV-I 172 W/m 12,9 C 15,2 C 1,6 km/h (1 Bft) 95,65 %
08.11.2015 10:59 15,2 C 86 % 1030,6 hPa 0,0 l/m 2,5 km/h (1 Bft) W 261 0 min 0,000 mm 1,0 UV-I 178 W/m 12,9 C 15,2 C 4,8 km/h (1 Bft) 100,00 %
08.11.2015 11:00 15,2 C 85 % 1030,5 hPa 0,0 l/m 2,2 km/h (1 Bft) W-SW 250 0 min 0,101 mm 1,0 UV-I 181 W/m 12,7 C 15,2 C 4,8 km/h (1 Bft) 100,00 %
08.11.2015 11:02 15,2 C 85 % 1030,5 hPa 0,0 l/m 1,7 km/h (1 Bft) W 276 0 min 0,000 mm 1,0 UV-I 184 W/m 12,7 C 15,2 C 4,8 km/h (1 Bft) 100,00 %
08.11.2015 11:03 15,2 C 86 % 1030,5 hPa 0,0 l/m 1,7 km/h (1 Bft) W-SW 254 0 min 0,000 mm 1,0 UV-I 181 W/m 12,9 C 15,2 C 3,2 km/h (1 Bft) 100,00 %
08.11.2015 11:04 15,2 C 85 % 1030,5 hPa 0,0 l/m 2,7 km/h (1 Bft) W 281 0 min 0,000 mm 1,0 UV-I 181 W/m 12,7 C 15,2 C 4,8 km/h (1 Bft) 100,00 %
08.11.2015 11:05 15,2 C 86 % 1030,5 hPa 0,0 l/m 4,5 km/h (1 Bft) W 266 0 min 0,000 mm 1,0 UV-I 186 W/m 12,9 C 15,2 C 6,4 km/h (2 Bft) 100,00 %
08.11.2015 11:06 15,2 C 85 % 1030,5 hPa 0,0 l/m 4,2 km/h (1 Bft) W 262 0 min 0,000 mm 1,0 UV-I 189 W/m 12,7 C 15,2 C 6,4 km/h (2 Bft) 100,00 %
08.11.2015 11:07 15,2 C 85 % 1030,4 hPa 0,0 l/m 2,5 km/h (1 Bft) W 273 0 min 0,000 mm 1,0 UV-I 193 W/m 12,7 C 15,2 C 3,2 km/h (1 Bft) 100,00 %
08.11.2015 11:08 15,2 C 86 % 1030,4 hPa 0,0 l/m 1,3 km/h (1 Bft) W 273 0 min 0,000 mm 1,0 UV-I 194 W/m 12,9 C 15,2 C 3,2 km/h (1 Bft) 100,00 %
08.11.2015 11:09 15,3 C 86 % 1030,4 hPa 0,0 l/m 2,1 km/h (1 Bft) W 273 0 min 0,000 mm 1,1 UV-I 198 W/m 13,0 C 15,3 C 3,2 km/h (1 Bft) 100,00 %
08.11.2015 11:10 15,3 C 85 % 1030,4 hPa 0,0 l/m 3,1 km/h (1 Bft) W 271 0 min 0,000 mm 1,1 UV-I 204 W/m 12,8 C 15,3 C 6,4 km/h (2 Bft) 100,00 %
08.11.2015 11:11 15,3 C 85 % 1030,3 hPa 0,0 l/m 2,8 km/h (1 Bft) W 263 0 min 0,000 mm 1,1 UV-I 217 W/m 12,8 C 15,3 C 4,8 km/h (1 Bft) 90,91 %
08.11.2015 11:12 15,3 C 86 % 1030,4 hPa 0,0 l/m 2,1 km/h (1 Bft) W 273 0 min 0,000 mm 1,1 UV-I 231 W/m 13,0 C 15,3 C 3,2 km/h (1 Bft) 100,00 %
08.11.2015 11:13 15,3 C 86 % 1030,3 hPa 0,0 l/m 1,7 km/h (1 Bft) W-NW 288 0 min 0,000 mm 1,1 UV-I 223 W/m 13,0 C 15,3 C 3,2 km/h (1 Bft) 100,00 %
08.11.2015 11:14 15,4 C 86 % 1030,3 hPa 0,0 l/m 2,0 km/h (1 Bft) NW 307 0 min 0,000 mm 1,1 UV-I 218 W/m 13,1 C 15,4 C 3,2 km/h (1 Bft) 100,00 %
08.11.2015 11:15 15,4 C 86 % 1030,3 hPa 0,0 l/m 0,7 km/h (0 Bft) NW 307 0 min 0,000 mm 1,1 UV-I 224 W/m 13,1 C 15,4 C 1,6 km/h (1 Bft) 100,00 %
08.11.2015 11:16 15,4 C 85 % 1030,3 hPa 0,0 l/m 1,0 km/h (0 Bft) NW 307 1 min 0,000 mm 1,2 UV-I 284 W/m 12,9 C 15,4 C 1,6 km/h (1 Bft) 96,30 %
08.11.2015 11:17 15,5 C 85 % 1030,3 hPa 0,0 l/m 2,3 km/h (1 Bft) W-NW 291 1 min 0,000 mm 1,3 UV-I 287 W/m 13,0 C 15,5 C 3,2 km/h (1 Bft) 95,65 %
08.11.2015 11:18 15,6 C 86 % 1030,3 hPa 0,0 l/m 1,3 km/h (1 Bft) W-NW 291 1 min 0,000 mm 1,3 UV-I 287 W/m 13,3 C 15,6 C 3,2 km/h (1 Bft) 95,83 %
08.11.2015 11:19 15,7 C 87 % 1030,2 hPa 0,0 l/m 2,5 km/h (1 Bft) W 265 1 min 0,000 mm 1,1 UV-I 258 W/m 13,5 C 15,7 C 4,8 km/h (1 Bft) 100,00 %
08.11.2015 11:20 15,7 C 85 % 1030,2 hPa 0,0 l/m 2,0 km/h (1 Bft) NW 313 0 min 0,000 mm 1,1 UV-I 220 W/m 13,2 C 15,7 C 3,2 km/h (1 Bft) 100,00 %
08.11.2015 11:21 15,8 C 86 % 1030,2 hPa 0,0 l/m 1,4 km/h (1 Bft) W-NW 300 0 min 0,000 mm 1,1 UV-I 221 W/m 13,5 C 15,8 C 3,2 km/h (1 Bft) 100,00 %
08.11.2015 11:22 15,8 C 85 % 1030,2 hPa 0,0 l/m 3,5 km/h (1 Bft) W-NW 299 0 min 0,000 mm 1,1 UV-I 226 W/m 13,3 C 15,8 C 4,8 km/h (1 Bft) 100,00 %
08.11.2015 11:23 15,8 C 85 % 1030,2 hPa 0,0 l/m 1,9 km/h (1 Bft) W-NW 288 0 min 0,000 mm 1,1 UV-I 222 W/m 13,3 C 15,8 C 3,2 km/h (1 Bft) 95,83 %
08.11.2015 11:24 15,8 C 85 % 1030,3 hPa 0,0 l/m 0,8 km/h (0 Bft) W-NW 288 0 min 0,000 mm 1,1 UV-I 231 W/m 13,3 C 15,8 C 3,2 km/h (1 Bft) 100,00 %
08.11.2015 11:25 15,8 C 86 % 1030,3 hPa 0,0 l/m 0,8 km/h (0 Bft) N-NW 346 0 min 0,000 mm 1,1 UV-I 228 W/m 13,5 C 15,8 C 1,6 km/h (1 Bft) 100,00 %
08.11.2015 11:26 15,8 C 86 % 1030,4 hPa 0,0 l/m 1,4 km/h (1 Bft) N 10 0 min 0,000 mm 1,1 UV-I 220 W/m 13,5 C 15,8 C 3,2 km/h (1 Bft) 100,00 %
08.11.2015 11:27 15,8 C 87 % 1030,3 hPa 0,0 l/m 0,6 km/h (0 Bft) N 9 0 min 0,000 mm 1,0 UV-I 211 W/m 13,6 C 15,8 C 1,6 km/h (1 Bft) 100,00 %
08.11.2015 11:28 15,9 C 87 % 1030,3 hPa 0,0 l/m 2,9 km/h (1 Bft) NW 311 0 min 0,000 mm 1,0 UV-I 207 W/m 13,7 C 15,9 C 4,8 km/h (1 Bft) 96,55 %
08.11.2015 11:29 15,9 C 86 % 1030,3 hPa 0,0 l/m 2,1 km/h (1 Bft) N-NW 328 0 min 0,000 mm 1,0 UV-I 195 W/m 13,6 C 15,9 C 3,2 km/h (1 Bft) 100,00 %
08.11.2015 11:30 15,9 C 86 % 1030,2 hPa 0,0 l/m 0,3 km/h (0 Bft) N-NW 329 0 min 0,000 mm 1,0 UV-I 197 W/m 13,6 C 15,9 C 1,6 km/h (1 Bft) 100,00 %
08.11.2015 11:31 15,8 C 85 % 1030,2 hPa 0,0 l/m 0,6 km/h (0 Bft) N-NW 340 0 min 0,000 mm 1,0 UV-I 199 W/m 13,3 C 15,8 C 3,2 km/h (1 Bft) 100,00 %
08.11.2015 11:32 15,8 C 86 % 1030,2 hPa 0,0 l/m 2,3 km/h (1 Bft) N-NW 329 0 min 0,000 mm 1,0 UV-I 206 W/m 13,5 C 15,8 C 3,2 km/h (1 Bft) 96,15 %
08.11.2015 11:33 15,8 C 86 % 1030,2 hPa 0,0 l/m 3,1 km/h (1 Bft) W-SW 257 0 min 0,000 mm 1,0 UV-I 193 W/m 13,5 C 15,8 C 4,8 km/h (1 Bft) 100,00 %
08.11.2015 11:34 15,8 C 86 % 1030,1 hPa 0,0 l/m 3,0 km/h (1 Bft) W 278 0 min 0,000 mm 1,0 UV-I 201 W/m 13,5 C 15,8 C 6,4 km/h (2 Bft) 96,15 %
08.11.2015 11:35 15,8 C 86 % 1030,1 hPa 0,0 l/m 1,4 km/h (1 Bft) O-NO 57 0 min 0,000 mm 1,0 UV-I 210 W/m 13,5 C 15,8 C 3,2 km/h (1 Bft) 100,00 %
08.11.2015 11:36 15,8 C 86 % 1030,1 hPa 0,0 l/m 1,4 km/h (1 Bft) W-NW 286 0 min 0,000 mm 1,0 UV-I 206 W/m 13,5 C 15,8 C 3,2 km/h (1 Bft) 100,00 %
08.11.2015 11:37 15,8 C 86 % 1030,1 hPa 0,0 l/m 2,2 km/h (1 Bft) N 11 0 min 0,000 mm 0,9 UV-I 197 W/m 13,5 C 15,8 C 3,2 km/h (1 Bft) 100,00 %
08.11.2015 11:38 15,8 C 86 % 1030,1 hPa 0,0 l/m 3,0 km/h (1 Bft) NW 314 0 min 0,000 mm 0,9 UV-I 197 W/m 13,5 C 15,8 C 4,8 km/h (1 Bft) 100,00 %
08.11.2015 11:39 15,8 C 85 % 1030,1 hPa 0,0 l/m 4,1 km/h (1 Bft) W-NW 296 0 min 0,000 mm 0,9 UV-I 181 W/m 13,3 C 15,8 C 9,7 km/h (2 Bft) 100,00 %
08.11.2015 11:40 15,8 C 85 % 1030,1 hPa 0,0 l/m 3,9 km/h (1 Bft) W 263 1 min 0,000 mm 1,0 UV-I 261 W/m 13,3 C 15,8 C 6,4 km/h (2 Bft) 100,00 %
08.11.2015 11:41 15,8 C 86 % 1030,1 hPa 0,0 l/m 2,9 km/h (1 Bft) W-NW 296 0 min 0,000 mm 0,9 UV-I 194 W/m 13,5 C 15,8 C 4,8 km/h (1 Bft) 100,00 %
08.11.2015 11:42 15,8 C 86 % 1030,1 hPa 0,0 l/m 3,2 km/h (1 Bft) W 267 0 min 0,000 mm 0,9 UV-I 149 W/m 13,5 C 15,8 C 9,7 km/h (2 Bft) 96,15 %
08.11.2015 11:43 15,8 C 85 % 1030,0 hPa 0,0 l/m 4,6 km/h (1 Bft) W 275 0 min 0,000 mm 0,9 UV-I 186 W/m 13,3 C 15,8 C 9,7 km/h (2 Bft) 100,00 %
08.11.2015 11:44 15,8 C 86 % 1030,1 hPa 0,0 l/m 2,6 km/h (1 Bft) N 5 0 min 0,000 mm 1,0 UV-I 190 W/m 13,5 C 15,8 C 4,8 km/h (1 Bft) 100,00 %
08.11.2015 11:45 15,8 C 86 % 1030,0 hPa 0,0 l/m 3,0 km/h (1 Bft) N 10 0 min 0,000 mm 1,0 UV-I 178 W/m 13,5 C 15,8 C 4,8 km/h (1 Bft) 95,83 %
08.11.2015 11:46 15,8 C 87 % 1030,0 hPa 0,0 l/m 2,5 km/h (1 Bft) W-SW 257 0 min 0,000 mm 1,0 UV-I 153 W/m 13,6 C 15,8 C 3,2 km/h (1 Bft) 100,00 %
08.11.2015 11:47 15,8 C 86 % 1029,9 hPa 0,0 l/m 1,8 km/h (1 Bft) W-SW 242 0 min 0,000 mm 1,0 UV-I 168 W/m 13,5 C 15,8 C 3,2 km/h (1 Bft) 96,15 %
08.11.2015 11:48 15,8 C 87 % 1029,9 hPa 0,0 l/m 1,7 km/h (1 Bft) N-NO 30 0 min 0,000 mm 1,2 UV-I 185 W/m 13,6 C 15,8 C 3,2 km/h (1 Bft) 100,00 %
08.11.2015 11:49 15,8 C 86 % 1029,9 hPa 0,0 l/m 2,9 km/h (1 Bft) W-SW 252 0 min 0,000 mm 1,3 UV-I 231 W/m 13,5 C 15,8 C 4,8 km/h (1 Bft) 100,00 %
08.11.2015 11:50 15,8 C 86 % 1029,9 hPa 0,0 l/m 2,7 km/h (1 Bft) W 273 1 min 0,000 mm 1,4 UV-I 264 W/m 13,5 C 15,8 C 4,8 km/h (1 Bft) 100,00 %
08.11.2015 11:51 15,9 C 86 % 1030,0 hPa 0,0 l/m 2,6 km/h (1 Bft) W 265 1 min 0,000 mm 1,4 UV-I 385 W/m 13,6 C 15,9 C 4,8 km/h (1 Bft) 100,00 %
08.11.2015 11:52 15,9 C 85 % 1030,0 hPa 0,0 l/m 5,6 km/h (1 Bft) W 266 1 min 0,000 mm 1,3 UV-I 369 W/m 13,4 C 15,9 C 8,0 km/h (2 Bft) 100,00 %
08.11.2015 11:53 16,0 C 86 % 1030,0 hPa 0,0 l/m 3,4 km/h (1 Bft) W-NW 299 1 min 0,000 mm 1,3 UV-I 259 W/m 13,7 C 16,0 C 4,8 km/h (1 Bft) 100,00 %
08.11.2015 11:54 16,1 C 86 % 1030,0 hPa 0,0 l/m 4,7 km/h (1 Bft) W-NW 286 1 min 0,000 mm 1,3 UV-I 240 W/m 13,8 C 16,1 C 6,4 km/h (2 Bft) 95,83 %
08.11.2015 11:55 16,1 C 86 % 1030,0 hPa 0,0 l/m 1,0 km/h (0 Bft) W-NW 284 0 min 0,000 mm 1,3 UV-I 230 W/m 13,8 C 16,1 C 3,2 km/h (1 Bft) 96,15 %
08.11.2015 11:56 16,1 C 87 % 1029,9 hPa 0,0 l/m 1,8 km/h (1 Bft) S-SW 210 0 min 0,000 mm 1,3 UV-I 230 W/m 13,9 C 16,1 C 3,2 km/h (1 Bft) 100,00 %
08.11.2015 11:57 16,2 C 86 % 1029,9 hPa 0,0 l/m 0,5 km/h (0 Bft) S-SW 210 0 min 0,000 mm 1,4 UV-I 231 W/m 13,9 C 16,2 C 1,6 km/h (1 Bft) 100,00 %
08.11.2015 11:58 16,2 C 86 % 1029,9 hPa 0,0 l/m 1,6 km/h (1 Bft) N 351 1 min 0,000 mm 1,3 UV-I 245 W/m 13,9 C 16,2 C 3,2 km/h (1 Bft) 100,00 %
08.11.2015 11:59 16,2 C 85 % 1029,9 hPa 0,0 l/m 1,7 km/h (1 Bft) NW 304 1 min 0,000 mm 1,4 UV-I 297 W/m 13,7 C 16,2 C 3,2 km/h (1 Bft) 100,00 %
08.11.2015 12:00 16,2 C 87 % 1029,9 hPa 0,0 l/m 2,5 km/h (1 Bft) W 275 1 min 0,000 mm 1,5 UV-I 297 W/m 14,0 C 16,2 C 3,2 km/h (1 Bft) 100,00 %
08.11.2015 12:02 16,3 C 85 % 1029,9 hPa 0,0 l/m 3,8 km/h (1 Bft) N 360 2 min 0,127 mm 1,5 UV-I 380 W/m 13,8 C 16,3 C 6,4 km/h (2 Bft) 100,00 %
08.11.2015 12:03 16,3 C 85 % 1029,8 hPa 0,0 l/m 4,3 km/h (1 Bft) W 275 1 min 0,000 mm 1,4 UV-I 445 W/m 13,8 C 16,3 C 6,4 km/h (2 Bft) 100,00 %
08.11.2015 12:04 16,3 C 84 % 1029,8 hPa 0,0 l/m 5,4 km/h (1 Bft) W-SW 249 1 min 0,000 mm 1,5 UV-I 446 W/m 13,6 C 16,3 C 9,7 km/h (2 Bft) 100,00 %
08.11.2015 12:05 16,2 C 86 % 1029,8 hPa 0,0 l/m 2,9 km/h (1 Bft) W 279 1 min 0,000 mm 1,5 UV-I 437 W/m 13,9 C 16,2 C 4,8 km/h (1 Bft) 100,00 %
08.11.2015 12:06 16,2 C 85 % 1029,7 hPa 0,0 l/m 3,2 km/h (1 Bft) W-SW 245 1 min 0,000 mm 1,6 UV-I 414 W/m 13,7 C 16,2 C 8,0 km/h (2 Bft) 100,00 %
08.11.2015 12:07 16,2 C 86 % 1029,7 hPa 0,0 l/m 3,8 km/h (1 Bft) W-NW 295 1 min 0,000 mm 1,6 UV-I 411 W/m 13,9 C 16,2 C 6,4 km/h (2 Bft) 100,00 %
08.11.2015 12:08 16,3 C 86 % 1029,8 hPa 0,0 l/m 1,3 km/h (1 Bft) N 5 1 min 0,000 mm 1,5 UV-I 410 W/m 14,0 C 16,3 C 3,2 km/h (1 Bft) 100,00 %
08.11.2015 12:09 16,3 C 85 % 1029,8 hPa 0,0 l/m 3,1 km/h (1 Bft) NO 49 1 min 0,000 mm 1,6 UV-I 412 W/m 13,8 C 16,3 C 6,4 km/h (2 Bft) 100,00 %
08.11.2015 12:10 16,3 C 85 % 1029,8 hPa 0,0 l/m 2,7 km/h (1 Bft) W 281 1 min 0,000 mm 1,6 UV-I 423 W/m 13,8 C 16,3 C 4,8 km/h (1 Bft) 100,00 %
08.11.2015 12:11 16,2 C 84 % 1029,8 hPa 0,0 l/m 0,9 km/h (0 Bft) NW 323 1 min 0,000 mm 1,6 UV-I 425 W/m 13,5 C 16,2 C 3,2 km/h (1 Bft) 100,00 %
08.11.2015 12:12 16,2 C 85 % 1029,8 hPa 0,0 l/m 2,2 km/h (1 Bft) W-NW 283 1 min 0,000 mm 1,6 UV-I 422 W/m 13,7 C 16,2 C 4,8 km/h (1 Bft) 100,00 %
08.11.2015 12:13 16,2 C 84 % 1029,8 hPa 0,0 l/m 3,4 km/h (1 Bft) N 11 1 min 0,000 mm 1,6 UV-I 414 W/m 13,5 C 16,2 C 6,4 km/h (2 Bft) 100,00 %
08.11.2015 12:14 16,2 C 84 % 1029,7 hPa 0,0 l/m 2,6 km/h (1 Bft) W-SW 242 1 min 0,000 mm 1,5 UV-I 401 W/m 13,5 C 16,2 C 4,8 km/h (1 Bft) 100,00 %
08.11.2015 12:15 16,2 C 85 % 1029,7 hPa 0,0 l/m 1,3 km/h (1 Bft) W-SW 242 1 min 0,000 mm 1,5 UV-I 375 W/m 13,7 C 16,2 C 3,2 km/h (1 Bft) 100,00 %
08.11.2015 12:16 16,2 C 86 % 1029,8 hPa 0,0 l/m 1,6 km/h (1 Bft) S-SW 213 1 min 0,000 mm 1,5 UV-I 379 W/m 13,9 C 16,2 C 3,2 km/h (1 Bft) 100,00 %
08.11.2015 12:17 16,3 C 87 % 1029,8 hPa 0,0 l/m 1,7 km/h (1 Bft) W-SW 242 1 min 0,000 mm 1,5 UV-I 386 W/m 14,1 C 16,3 C 3,2 km/h (1 Bft) 100,00 %
08.11.2015 12:18 16,3 C 86 % 1029,7 hPa 0,0 l/m 2,0 km/h (1 Bft) NW 317 1 min 0,000 mm 1,5 UV-I 397 W/m 14,0 C 16,3 C 3,2 km/h (1 Bft) 100,00 %
08.11.2015 12:19 16,4 C 85 % 1029,7 hPa 0,0 l/m 1,0 km/h (0 Bft) NO 52 1 min 0,000 mm 1,5 UV-I 394 W/m 13,9 C 16,4 C 1,6 km/h (1 Bft) 100,00 %
08.11.2015 12:20 16,4 C 86 % 1029,6 hPa 0,0 l/m 1,7 km/h (1 Bft) N-NW 347 1 min 0,000 mm 1,5 UV-I 395 W/m 14,1 C 16,4 C 3,2 km/h (1 Bft) 100,00 %
08.11.2015 12:21 16,3 C 85 % 1029,7 hPa 0,0 l/m 2,6 km/h (1 Bft) W 273 1 min 0,000 mm 1,5 UV-I 396 W/m 13,8 C 16,3 C 4,8 km/h (1 Bft) 96,15 %
08.11.2015 12:22 16,3 C 85 % 1029,6 hPa 0,0 l/m 3,0 km/h (1 Bft) W-SW 242 1 min 0,000 mm 1,5 UV-I 392 W/m 13,8 C 16,3 C 6,4 km/h (2 Bft) 95,83 %
08.11.2015 12:23 16,3 C 85 % 1029,6 hPa 0,0 l/m 5,0 km/h (1 Bft) W-SW 250 1 min 0,000 mm 1,5 UV-I 394 W/m 13,8 C 16,3 C 8,0 km/h (2 Bft) 100,00 %
08.11.2015 12:24 16,3 C 84 % 1029,5 hPa 0,0 l/m 3,6 km/h (1 Bft) W-NW 288 1 min 0,000 mm 1,5 UV-I 411 W/m 13,6 C 16,3 C 4,8 km/h (1 Bft) 100,00 %
08.11.2015 12:25 16,3 C 85 % 1029,5 hPa 0,0 l/m 2,4 km/h (1 Bft) S-SW 206 1 min 0,000 mm 1,5 UV-I 407 W/m 13,8 C 16,3 C 4,8 km/h (1 Bft) 100,00 %
08.11.2015 12:26 16,3 C 85 % 1029,5 hPa 0,0 l/m 3,7 km/h (1 Bft) W 279 1 min 0,000 mm 1,5 UV-I 401 W/m 13,8 C 16,3 C 6,4 km/h (2 Bft) 95,83 %
08.11.2015 12:27 16,3 C 85 % 1029,5 hPa 0,0 l/m 3,0 km/h (1 Bft) SW 215 1 min 0,000 mm 1,5 UV-I 401 W/m 13,8 C 16,3 C 6,4 km/h (2 Bft) 95,65 %
08.11.2015 12:28 16,3 C 85 % 1029,5 hPa 0,0 l/m 3,2 km/h (1 Bft) W-NW 290 1 min 0,000 mm 1,5 UV-I 403 W/m 13,8 C 16,3 C 4,8 km/h (1 Bft) 100,00 %
08.11.2015 12:29 16,4 C 84 % 1029,5 hPa 0,0 l/m 1,5 km/h (1 Bft) SW 216 1 min 0,000 mm 1,5 UV-I 398 W/m 13,7 C 16,4 C 3,2 km/h (1 Bft) 100,00 %
08.11.2015 12:30 16,4 C 85 % 1029,4 hPa 0,0 l/m 2,6 km/h (1 Bft) W-SW 248 1 min 0,000 mm 1,5 UV-I 394 W/m 13,9 C 16,4 C 4,8 km/h (1 Bft) 100,00 %
08.11.2015 12:31 16,6 C 85 % 1029,4 hPa 0,0 l/m 4,0 km/h (1 Bft) W-NW 301 1 min 0,000 mm 1,5 UV-I 400 W/m 14,1 C 16,6 C 4,8 km/h (1 Bft) 100,00 %
08.11.2015 12:32 16,6 C 84 % 1029,5 hPa 0,0 l/m 2,5 km/h (1 Bft) N 355 1 min 0,000 mm 1,5 UV-I 397 W/m 13,9 C 16,6 C 4,8 km/h (1 Bft) 100,00 %
08.11.2015 12:33 16,6 C 84 % 1029,4 hPa 0,0 l/m 1,2 km/h (1 Bft) N 355 1 min 0,000 mm 1,5 UV-I 396 W/m 13,9 C 16,6 C 1,6 km/h (1 Bft) 95,65 %
08.11.2015 12:34 16,6 C 84 % 1029,4 hPa 0,0 l/m 2,1 km/h (1 Bft) NW 314 1 min 0,000 mm 1,5 UV-I 396 W/m 13,9 C 16,6 C 3,2 km/h (1 Bft) 100,00 %
08.11.2015 12:35 16,6 C 85 % 1029,5 hPa 0,0 l/m 1,7 km/h (1 Bft) W-NW 300 1 min 0,000 mm 1,5 UV-I 396 W/m 14,1 C 16,6 C 3,2 km/h (1 Bft) 100,00 %
08.11.2015 12:36 16,6 C 84 % 1029,5 hPa 0,0 l/m 3,2 km/h (1 Bft) NW 310 1 min 0,000 mm 1,5 UV-I 378 W/m 13,9 C 16,6 C 6,4 km/h (2 Bft) 100,00 %
08.11.2015 12:37 16,6 C 85 % 1029,5 hPa 0,0 l/m 2,6 km/h (1 Bft) N 355 1 min 0,000 mm 1,5 UV-I 367 W/m 14,1 C 16,6 C 6,4 km/h (2 Bft) 100,00 %
08.11.2015 12:38 16,6 C 85 % 1029,5 hPa 0,0 l/m 2,1 km/h (1 Bft) W-NW 290 1 min 0,000 mm 1,5 UV-I 390 W/m 14,1 C 16,6 C 4,8 km/h (1 Bft) 100,00 %
08.11.2015 12:39 16,7 C 86 % 1029,5 hPa 0,0 l/m 1,5 km/h (1 Bft) N-NW 342 1 min 0,000 mm 1,5 UV-I 392 W/m 14,3 C 16,7 C 3,2 km/h (1 Bft) 100,00 %
08.11.2015 12:40 16,7 C 85 % 1029,4 hPa 0,0 l/m 1,5 km/h (1 Bft) N-NW 344 1 min 0,000 mm 1,5 UV-I 393 W/m 14,2 C 16,7 C 3,2 km/h (1 Bft) 100,00 %
08.11.2015 12:41 16,8 C 85 % 1029,4 hPa 0,0 l/m 2,0 km/h (1 Bft) N-NW 342 1 min 0,000 mm 1,5 UV-I 391 W/m 14,3 C 16,8 C 3,2 km/h (1 Bft) 100,00 %
08.11.2015 12:42 16,8 C 85 % 1029,4 hPa 0,0 l/m 1,6 km/h (1 Bft) W-NW 291 1 min 0,000 mm 1,5 UV-I 394 W/m 14,3 C 16,8 C 3,2 km/h (1 Bft) 100,00 %
08.11.2015 12:43 16,8 C 84 % 1029,4 hPa 0,0 l/m 2,7 km/h (1 Bft) W 263 1 min 0,000 mm 1,5 UV-I 393 W/m 14,1 C 16,8 C 4,8 km/h (1 Bft) 95,83 %
08.11.2015 12:44 16,8 C 85 % 1029,4 hPa 0,0 l/m 2,0 km/h (1 Bft) N-NW 338 1 min 0,000 mm 1,5 UV-I 396 W/m 14,3 C 16,8 C 3,2 km/h (1 Bft) 100,00 %
08.11.2015 12:45 16,8 C 85 % 1029,4 hPa 0,0 l/m 0,2 km/h (0 Bft) N-NW 338 1 min 0,000 mm 1,4 UV-I 395 W/m 14,3 C 16,8 C 1,6 km/h (1 Bft) 100,00 %
08.11.2015 12:46 16,8 C 84 % 1029,4 hPa 0,0 l/m 1,3 km/h (1 Bft) N 11 1 min 0,000 mm 1,4 UV-I 396 W/m 14,1 C 16,8 C 3,2 km/h (1 Bft) 100,00 %
08.11.2015 12:47 16,8 C 85 % 1029,4 hPa 0,0 l/m 2,9 km/h (1 Bft) N 5 1 min 0,000 mm 1,4 UV-I 392 W/m 14,3 C 16,8 C 6,4 km/h (2 Bft) 95,83 %
08.11.2015 12:48 16,8 C 84 % 1029,4 hPa 0,0 l/m 4,6 km/h (1 Bft) N 351 1 min 0,000 mm 1,4 UV-I 388 W/m 14,1 C 16,8 C 6,4 km/h (2 Bft) 100,00 %
08.11.2015 12:49 16,7 C 84 % 1029,3 hPa 0,0 l/m 2,9 km/h (1 Bft) N 350 1 min 0,000 mm 1,4 UV-I 391 W/m 14,0 C 16,7 C 4,8 km/h (1 Bft) 95,83 %
08.11.2015 12:50 16,7 C 84 % 1029,4 hPa 0,0 l/m 2,8 km/h (1 Bft) N-NO 18 1 min 0,000 mm 1,4 UV-I 384 W/m 14,0 C 16,7 C 6,4 km/h (2 Bft) 100,00 %
08.11.2015 12:51 16,7 C 84 % 1029,4 hPa 0,0 l/m 1,6 km/h (1 Bft) N 11 1 min 0,000 mm 1,4 UV-I 385 W/m 14,0 C 16,7 C 3,2 km/h (1 Bft) 100,00 %
08.11.2015 12:52 16,7 C 84 % 1029,4 hPa 0,0 l/m 1,0 km/h (0 Bft) N 11 1 min 0,000 mm 1,4 UV-I 382 W/m 14,0 C 16,7 C 3,2 km/h (1 Bft) 100,00 %
08.11.2015 12:53 16,8 C 85 % 1029,3 hPa 0,0 l/m 2,7 km/h (1 Bft) N-NO 17 1 min 0,000 mm 1,4 UV-I 384 W/m 14,3 C 16,8 C 8,0 km/h (2 Bft) 100,00 %
08.11.2015 12:54 16,7 C 85 % 1029,3 hPa 0,0 l/m 4,5 km/h (1 Bft) N-NO 13 1 min 0,000 mm 1,4 UV-I 395 W/m 14,2 C 16,7 C 9,7 km/h (2 Bft) 100,00 %
08.11.2015 12:55 16,8 C 85 % 1029,4 hPa 0,0 l/m 2,7 km/h (1 Bft) N 9 1 min 0,000 mm 1,4 UV-I 407 W/m 14,3 C 16,8 C 4,8 km/h (1 Bft) 100,00 %
08.11.2015 12:56 16,8 C 84 % 1029,3 hPa 0,0 l/m 2,6 km/h (1 Bft) N-NO 19 1 min 0,000 mm 1,3 UV-I 408 W/m 14,1 C 16,8 C 4,8 km/h (1 Bft) 100,00 %
08.11.2015 12:57 16,7 C 84 % 1029,4 hPa 0,0 l/m 2,4 km/h (1 Bft) N-NO 13 1 min 0,000 mm 1,3 UV-I 408 W/m 14,0 C 16,7 C 4,8 km/h (1 Bft) 100,00 %
08.11.2015 12:58 16,7 C 85 % 1029,4 hPa 0,0 l/m 3,5 km/h (1 Bft) W-NW 282 1 min 0,000 mm 1,3 UV-I 378 W/m 14,2 C 16,7 C 6,4 km/h (2 Bft) 91,67 %
08.11.2015 12:59 16,7 C 85 % 1029,3 hPa 0,0 l/m 0,8 km/h (0 Bft) N-NW 327 1 min 0,000 mm 1,3 UV-I 334 W/m 14,2 C 16,7 C 3,2 km/h (1 Bft) 100,00 %
08.11.2015 13:00 16,7 C 86 % 1029,3 hPa 0,0 l/m 1,4 km/h (1 Bft) N-NW 338 1 min 0,203 mm 1,2 UV-I 334 W/m 14,3 C 16,7 C 1,6 km/h (1 Bft) 100,00 %
08.11.2015 13:01 16,8 C 85 % 1029,3 hPa 0,0 l/m 3,4 km/h (1 Bft) N 11 1 min 0,000 mm 1,3 UV-I 335 W/m 14,3 C 16,8 C 6,4 km/h (2 Bft) 96,15 %
08.11.2015 13:02 16,8 C 84 % 1029,3 hPa 0,0 l/m 3,1 km/h (1 Bft) N 9 1 min 0,000 mm 1,3 UV-I 361 W/m 14,1 C 16,8 C 4,8 km/h (1 Bft) 100,00 %
08.11.2015 13:03 16,8 C 85 % 1029,3 hPa 0,0 l/m 3,1 km/h (1 Bft) N 9 1 min 0,000 mm 1,3 UV-I 364 W/m 14,3 C 16,8 C 4,8 km/h (1 Bft) 100,00 %
08.11.2015 13:04 16,8 C 84 % 1029,3 hPa 0,0 l/m 2,5 km/h (1 Bft) NW 323 1 min 0,000 mm 1,3 UV-I 386 W/m 14,1 C 16,8 C 4,8 km/h (1 Bft) 95,83 %
08.11.2015 13:05 16,8 C 84 % 1029,2 hPa 0,0 l/m 2,6 km/h (1 Bft) W 281 1 min 0,000 mm 1,3 UV-I 386 W/m 14,1 C 16,8 C 4,8 km/h (1 Bft) 100,00 %
08.11.2015 13:06 16,8 C 85 % 1029,2 hPa 0,0 l/m 4,0 km/h (1 Bft) N-NW 336 1 min 0,000 mm 1,3 UV-I 393 W/m 14,3 C 16,8 C 6,4 km/h (2 Bft) 100,00 %
08.11.2015 13:07 16,9 C 85 % 1029,2 hPa 0,0 l/m 3,5 km/h (1 Bft) W 276 1 min 0,000 mm 1,3 UV-I 392 W/m 14,4 C 16,9 C 4,8 km/h (1 Bft) 100,00 %
08.11.2015 13:08 16,9 C 85 % 1029,2 hPa 0,0 l/m 1,7 km/h (1 Bft) N 351 1 min 0,000 mm 1,3 UV-I 391 W/m 14,4 C 16,9 C 3,2 km/h (1 Bft) 95,83 %
08.11.2015 13:09 17,0 C 85 % 1029,3 hPa 0,0 l/m 1,6 km/h (1 Bft) N-NW 336 1 min 0,000 mm 1,3 UV-I 364 W/m 14,5 C 17,0 C 3,2 km/h (1 Bft) 100,00 %
08.11.2015 13:10 17,0 C 84 % 1029,2 hPa 0,0 l/m 2,3 km/h (1 Bft) N-NW 327 1 min 0,000 mm 1,3 UV-I 364 W/m 14,3 C 17,0 C 3,2 km/h (1 Bft) 96,15 %
08.11.2015 13:11 17,0 C 83 % 1029,2 hPa 0,0 l/m 1,4 km/h (1 Bft) W-NW 298 1 min 0,000 mm 1,3 UV-I 364 W/m 14,1 C 17,0 C 3,2 km/h (1 Bft) 100,00 %
08.11.2015 13:12 17,0 C 83 % 1029,2 hPa 0,0 l/m 1,8 km/h (1 Bft) N-NO 13 1 min 0,000 mm 1,3 UV-I 348 W/m 14,1 C 17,0 C 6,4 km/h (2 Bft) 100,00 %
08.11.2015 13:13 17,0 C 84 % 1029,2 hPa 0,0 l/m 3,1 km/h (1 Bft) W-NW 287 1 min 0,000 mm 1,3 UV-I 353 W/m 14,3 C 17,0 C 6,4 km/h (2 Bft) 100,00 %
08.11.2015 13:14 17,0 C 84 % 1029,1 hPa 0,0 l/m 0,8 km/h (0 Bft) W-NW 288 1 min 0,000 mm 1,3 UV-I 378 W/m 14,3 C 17,0 C 1,6 km/h (1 Bft) 100,00 %
08.11.2015 13:15 17,0 C 84 % 1029,1 hPa 0,0 l/m 0,3 km/h (0 Bft) W-NW 291 1 min 0,000 mm 1,3 UV-I 396 W/m 14,3 C 17,0 C 1,6 km/h (1 Bft) 100,00 %
08.11.2015 13:16 17,0 C 83 % 1029,1 hPa 0,0 l/m 0,7 km/h (0 Bft) W-NW 302 1 min 0,000 mm 1,3 UV-I 387 W/m 14,1 C 17,0 C 1,6 km/h (1 Bft) 100,00 %
08.11.2015 13:17 17,1 C 86 % 1029,1 hPa 0,0 l/m 1,1 km/h (1 Bft) N 11 1 min 0,000 mm 1,3 UV-I 392 W/m 14,7 C 17,1 C 3,2 km/h (1 Bft) 100,00 %
08.11.2015 13:18 17,1 C 85 % 1029,1 hPa 0,0 l/m 2,6 km/h (1 Bft) N-NO 14 1 min 0,000 mm 1,3 UV-I 389 W/m 14,6 C 17,1 C 4,8 km/h (1 Bft) 100,00 %
08.11.2015 13:19 17,1 C 84 % 1029,1 hPa 0,0 l/m 2,7 km/h (1 Bft) NW 308 1 min 0,000 mm 1,3 UV-I 372 W/m 14,4 C 17,1 C 4,8 km/h (1 Bft) 100,00 %
08.11.2015 13:20 17,1 C 83 % 1029,1 hPa 0,0 l/m 3,4 km/h (1 Bft) N 355 1 min 0,000 mm 1,2 UV-I 351 W/m 14,2 C 17,1 C 6,4 km/h (2 Bft) 100,00 %
08.11.2015 13:21 17,1 C 83 % 1029,1 hPa 0,0 l/m 3,9 km/h (1 Bft) N-NW 340 1 min 0,000 mm 1,2 UV-I 331 W/m 14,2 C 17,1 C 6,4 km/h (2 Bft) 100,00 %
08.11.2015 13:22 17,1 C 84 % 1029,1 hPa 0,0 l/m 1,9 km/h (1 Bft) N 355 1 min 0,000 mm 1,2 UV-I 310 W/m 14,4 C 17,1 C 3,2 km/h (1 Bft) 100,00 %
08.11.2015 13:23 17,1 C 84 % 1029,1 hPa 0,0 l/m 1,7 km/h (1 Bft) N-NW 343 1 min 0,000 mm 1,2 UV-I 307 W/m 14,4 C 17,1 C 3,2 km/h (1 Bft) 100,00 %
08.11.2015 13:24 17,1 C 84 % 1029,0 hPa 0,0 l/m 0,9 km/h (0 Bft) N-NW 343 1 min 0,000 mm 1,1 UV-I 303 W/m 14,4 C 17,1 C 3,2 km/h (1 Bft) 100,00 %
08.11.2015 13:25 17,1 C 84 % 1029,0 hPa 0,0 l/m 2,1 km/h (1 Bft) N-NW 333 1 min 0,000 mm 1,1 UV-I 315 W/m 14,4 C 17,1 C 4,8 km/h (1 Bft) 100,00 %
08.11.2015 13:26 17,0 C 83 % 1029,1 hPa 0,0 l/m 0,4 km/h (0 Bft) N-NW 333 1 min 0,000 mm 1,1 UV-I 281 W/m 14,1 C 17,0 C 1,6 km/h (1 Bft) 100,00 %
08.11.2015 13:27 17,0 C 83 % 1029,0 hPa 0,0 l/m 0,1 km/h (0 Bft) N-NW 333 1 min 0,000 mm 1,1 UV-I 283 W/m 14,1 C 17,0 C 1,6 km/h (1 Bft) 100,00 %
08.11.2015 13:28 16,9 C 84 % 1029,0 hPa 0,0 l/m 1,6 km/h (1 Bft) W 271 1 min 0,000 mm 1,1 UV-I 272 W/m 14,2 C 16,9 C 3,2 km/h (1 Bft) 100,00 %
08.11.2015 13:29 16,9 C 84 % 1029,0 hPa 0,0 l/m 1,7 km/h (1 Bft) N-NW 337 1 min 0,000 mm 1,1 UV-I 260 W/m 14,2 C 16,9 C 3,2 km/h (1 Bft) 100,00 %
08.11.2015 13:30 16,9 C 84 % 1029,0 hPa 0,0 l/m 2,2 km/h (1 Bft) N-NO 31 1 min 0,000 mm 1,1 UV-I 296 W/m 14,2 C 16,9 C 3,2 km/h (1 Bft) 100,00 %
08.11.2015 13:31 16,8 C 84 % 1029,0 hPa 0,0 l/m 2,6 km/h (1 Bft) NW 308 1 min 0,000 mm 1,1 UV-I 313 W/m 14,1 C 16,8 C 4,8 km/h (1 Bft) 100,00 %
08.11.2015 13:32 16,8 C 84 % 1029,0 hPa 0,0 l/m 2,6 km/h (1 Bft) N 351 1 min 0,000 mm 1,1 UV-I 312 W/m 14,1 C 16,8 C 4,8 km/h (1 Bft) 100,00 %
08.11.2015 13:33 16,8 C 84 % 1029,0 hPa 0,0 l/m 3,2 km/h (1 Bft) N 355 1 min 0,000 mm 1,1 UV-I 331 W/m 14,1 C 16,8 C 4,8 km/h (1 Bft) 95,83 %
08.11.2015 13:34 16,8 C 84 % 1029,0 hPa 0,0 l/m 1,0 km/h (0 Bft) N-NW 347 1 min 0,000 mm 1,1 UV-I 346 W/m 14,1 C 16,8 C 3,2 km/h (1 Bft) 100,00 %
08.11.2015 13:35 16,8 C 83 % 1029,0 hPa 0,0 l/m 1,5 km/h (1 Bft) N 5 1 min 0,000 mm 1,1 UV-I 361 W/m 13,9 C 16,8 C 3,2 km/h (1 Bft) 100,00 %
08.11.2015 13:36 16,8 C 84 % 1028,9 hPa 0,0 l/m 2,1 km/h (1 Bft) N 5 1 min 0,000 mm 1,1 UV-I 385 W/m 14,1 C 16,8 C 3,2 km/h (1 Bft) 95,83 %
08.11.2015 13:37 16,9 C 85 % 1028,9 hPa 0,0 l/m 2,7 km/h (1 Bft) N-NO 23 1 min 0,000 mm 1,1 UV-I 376 W/m 14,4 C 16,9 C 4,8 km/h (1 Bft) 100,00 %
08.11.2015 13:38 16,9 C 84 % 1028,9 hPa 0,0 l/m 2,2 km/h (1 Bft) W 279 1 min 0,000 mm 1,1 UV-I 385 W/m 14,2 C 16,9 C 3,2 km/h (1 Bft) 100,00 %
08.11.2015 13:39 17,0 C 85 % 1028,8 hPa 0,0 l/m 2,0 km/h (1 Bft) NW 308 1 min 0,000 mm 1,1 UV-I 385 W/m 14,5 C 17,0 C 3,2 km/h (1 Bft) 100,00 %
08.11.2015 13:40 17,1 C 84 % 1028,8 hPa 0,0 l/m 1,3 km/h (1 Bft) NW 323 1 min 0,000 mm 1,1 UV-I 360 W/m 14,4 C 17,1 C 1,6 km/h (1 Bft) 100,00 %
08.11.2015 13:41 17,1 C 84 % 1028,8 hPa 0,0 l/m 0,3 km/h (0 Bft) NW 323 1 min 0,000 mm 0,9 UV-I 343 W/m 14,4 C 17,1 C 1,6 km/h (1 Bft) 100,00 %
08.11.2015 13:42 17,0 C 84 % 1028,8 hPa 0,0 l/m 0,9 km/h (0 Bft) NW 321 1 min 0,000 mm 0,9 UV-I 235 W/m 14,3 C 17,0 C 3,2 km/h (1 Bft) 95,65 %
08.11.2015 13:43 16,9 C 84 % 1028,8 hPa 0,0 l/m 1,6 km/h (1 Bft) N 9 1 min 0,000 mm 0,9 UV-I 218 W/m 14,2 C 16,9 C 3,2 km/h (1 Bft) 100,00 %
08.11.2015 13:44 16,9 C 83 % 1028,8 hPa 0,0 l/m 1,9 km/h (1 Bft) N-NW 335 1 min 0,000 mm 0,9 UV-I 227 W/m 14,0 C 16,9 C 3,2 km/h (1 Bft) 100,00 %
08.11.2015 13:45 16,8 C 84 % 1028,8 hPa 0,0 l/m 2,4 km/h (1 Bft) W 261 1 min 0,000 mm 1,0 UV-I 295 W/m 14,1 C 16,8 C 3,2 km/h (1 Bft) 100,00 %
08.11.2015 13:46 16,8 C 84 % 1028,8 hPa 0,0 l/m 2,0 km/h (1 Bft) W-NW 288 1 min 0,000 mm 0,9 UV-I 369 W/m 14,1 C 16,8 C 3,2 km/h (1 Bft) 100,00 %
08.11.2015 13:47 16,8 C 85 % 1028,8 hPa 0,0 l/m 1,0 km/h (0 Bft) N 5 1 min 0,000 mm 0,9 UV-I 286 W/m 14,3 C 16,8 C 4,8 km/h (1 Bft) 100,00 %
08.11.2015 13:48 16,8 C 84 % 1028,7 hPa 0,0 l/m 1,7 km/h (1 Bft) N 355 1 min 0,000 mm 0,9 UV-I 295 W/m 14,1 C 16,8 C 4,8 km/h (1 Bft) 96,30 %
08.11.2015 13:49 16,8 C 84 % 1028,7 hPa 0,0 l/m 1,3 km/h (1 Bft) NW 309 1 min 0,000 mm 0,9 UV-I 304 W/m 14,1 C 16,8 C 3,2 km/h (1 Bft) 100,00 %
08.11.2015 13:50 16,8 C 85 % 1028,7 hPa 0,0 l/m 1,9 km/h (1 Bft) N-NO 22 1 min 0,000 mm 0,9 UV-I 289 W/m 14,3 C 16,8 C 4,8 km/h (1 Bft) 100,00 %
08.11.2015 13:51 16,8 C 84 % 1028,7 hPa 0,0 l/m 2,2 km/h (1 Bft) N 355 1 min 0,000 mm 0,9 UV-I 297 W/m 14,1 C 16,8 C 4,8 km/h (1 Bft) 100,00 %
08.11.2015 13:52 16,8 C 85 % 1028,6 hPa 0,0 l/m 1,6 km/h (1 Bft) NW 320 1 min 0,000 mm 0,9 UV-I 285 W/m 14,3 C 16,8 C 3,2 km/h (1 Bft) 100,00 %
08.11.2015 13:53 16,8 C 85 % 1028,6 hPa 0,0 l/m 0,8 km/h (0 Bft) N-NW 327 1 min 0,000 mm 0,8 UV-I 262 W/m 14,3 C 16,8 C 1,6 km/h (1 Bft) 100,00 %
08.11.2015 13:54 16,8 C 84 % 1028,6 hPa 0,0 l/m 2,7 km/h (1 Bft) W-NW 295 1 min 0,000 mm 0,8 UV-I 243 W/m 14,1 C 16,8 C 4,8 km/h (1 Bft) 95,83 %
08.11.2015 13:55 16,7 C 83 % 1028,6 hPa 0,0 l/m 1,7 km/h (1 Bft) N-NW 343 1 min 0,000 mm 0,7 UV-I 203 W/m 13,8 C 16,7 C 3,2 km/h (1 Bft) 93,33 %
08.11.2015 13:56 16,7 C 84 % 1028,5 hPa 0,0 l/m 1,3 km/h (1 Bft) N-NW 344 1 min 0,000 mm 0,7 UV-I 200 W/m 14,0 C 16,7 C 1,6 km/h (1 Bft) 96,15 %
08.11.2015 13:57 16,6 C 85 % 1028,5 hPa 0,0 l/m 1,2 km/h (1 Bft) N-NW 344 1 min 0,000 mm 0,7 UV-I 194 W/m 14,1 C 16,6 C 3,2 km/h (1 Bft) 100,00 %
08.11.2015 13:58 16,6 C 85 % 1028,5 hPa 0,0 l/m 2,1 km/h (1 Bft) N 10 1 min 0,000 mm 0,7 UV-I 199 W/m 14,1 C 16,6 C 3,2 km/h (1 Bft) 100,00 %
08.11.2015 13:59 16,7 C 86 % 1028,4 hPa 0,0 l/m 1,5 km/h (1 Bft) N 11 1 min 0,000 mm 0,7 UV-I 196 W/m 14,3 C 16,7 C 3,2 km/h (1 Bft) 100,00 %
08.11.2015 14:00 16,7 C 85 % 1028,4 hPa 0,0 l/m 4,0 km/h (1 Bft) N-NW 333 1 min 0,000 mm 0,7 UV-I 196 W/m 14,2 C 16,7 C 4,8 km/h (1 Bft) 95,83 %
08.11.2015 14:01 16,7 C 85 % 1028,4 hPa 0,0 l/m 2,5 km/h (1 Bft) NW 323 0 min 0,178 mm 0,7 UV-I 166 W/m 14,2 C 16,7 C 4,8 km/h (1 Bft) 100,00 %
08.11.2015 14:02 16,7 C 86 % 1028,4 hPa 0,0 l/m 2,6 km/h (1 Bft) N-NO 13 0 min 0,000 mm 0,7 UV-I 171 W/m 14,3 C 16,7 C 4,8 km/h (1 Bft) 100,00 %
08.11.2015 14:03 16,6 C 86 % 1028,4 hPa 0,0 l/m 3,0 km/h (1 Bft) N-NO 13 1 min 0,000 mm 0,7 UV-I 179 W/m 14,2 C 16,6 C 4,8 km/h (1 Bft) 100,00 %
08.11.2015 14:04 16,6 C 86 % 1028,4 hPa 0,0 l/m 2,8 km/h (1 Bft) N 355 0 min 0,000 mm 0,6 UV-I 173 W/m 14,2 C 16,6 C 4,8 km/h (1 Bft) 100,00 %
08.11.2015 14:05 16,6 C 86 % 1028,4 hPa 0,0 l/m 2,3 km/h (1 Bft) N 351 1 min 0,000 mm 0,6 UV-I 182 W/m 14,2 C 16,6 C 3,2 km/h (1 Bft) 100,00 %
08.11.2015 14:06 16,6 C 86 % 1028,4 hPa 0,0 l/m 2,9 km/h (1 Bft) N 10 1 min 0,000 mm 0,6 UV-I 176 W/m 14,2 C 16,6 C 4,8 km/h (1 Bft) 100,00 %
08.11.2015 14:07 16,6 C 85 % 1028,4 hPa 0,0 l/m 3,4 km/h (1 Bft) N-NO 26 0 min 0,000 mm 0,6 UV-I 174 W/m 14,1 C 16,6 C 8,0 km/h (2 Bft) 95,83 %
08.11.2015 14:08 16,6 C 86 % 1028,4 hPa 0,0 l/m 3,9 km/h (1 Bft) N-NW 339 0 min 0,000 mm 0,6 UV-I 170 W/m 14,2 C 16,6 C 6,4 km/h (2 Bft) 100,00 %
08.11.2015 14:09 16,5 C 87 % 1028,4 hPa 0,0 l/m 4,6 km/h (1 Bft) N-NW 346 0 min 0,000 mm 0,6 UV-I 166 W/m 14,3 C 16,5 C 6,4 km/h (2 Bft) 100,00 %
08.11.2015 14:10 16,5 C 87 % 1028,4 hPa 0,0 l/m 3,1 km/h (1 Bft) NW 311 0 min 0,000 mm 0,6 UV-I 155 W/m 14,3 C 16,5 C 6,4 km/h (2 Bft) 100,00 %
08.11.2015 14:11 16,4 C 87 % 1028,4 hPa 0,0 l/m 2,7 km/h (1 Bft) N 11 0 min 0,000 mm 0,6 UV-I 145 W/m 14,2 C 16,4 C 6,4 km/h (2 Bft) 100,00 %
08.11.2015 14:12 16,4 C 86 % 1028,4 hPa 0,0 l/m 2,7 km/h (1 Bft) N-NW 344 0 min 0,000 mm 0,6 UV-I 148 W/m 14,1 C 16,4 C 4,8 km/h (1 Bft) 100,00 %
08.11.2015 14:13 16,4 C 87 % 1028,4 hPa 0,0 l/m 3,1 km/h (1 Bft) N 10 0 min 0,000 mm 0,6 UV-I 141 W/m 14,2 C 16,4 C 6,4 km/h (2 Bft) 100,00 %
08.11.2015 14:14 16,3 C 87 % 1028,3 hPa 0,0 l/m 2,0 km/h (1 Bft) N 360 0 min 0,000 mm 0,6 UV-I 141 W/m 14,1 C 16,3 C 3,2 km/h (1 Bft) 100,00 %
08.11.2015 14:15 16,3 C 87 % 1028,3 hPa 0,0 l/m 3,8 km/h (1 Bft) N-NO 24 0 min 0,000 mm 0,6 UV-I 138 W/m 14,1 C 16,3 C 6,4 km/h (2 Bft) 100,00 %
08.11.2015 14:16 16,3 C 86 % 1028,3 hPa 0,0 l/m 2,6 km/h (1 Bft) N-NW 342 0 min 0,000 mm 0,5 UV-I 128 W/m 14,0 C 16,3 C 4,8 km/h (1 Bft) 100,00 %
08.11.2015 14:17 16,2 C 87 % 1028,3 hPa 0,0 l/m 2,5 km/h (1 Bft) N 11 0 min 0,000 mm 0,5 UV-I 127 W/m 14,0 C 16,2 C 3,2 km/h (1 Bft) 100,00 %
08.11.2015 14:18 16,2 C 87 % 1028,3 hPa 0,0 l/m 1,9 km/h (1 Bft) N 9 0 min 0,000 mm 0,5 UV-I 117 W/m 14,0 C 16,2 C 3,2 km/h (1 Bft) 100,00 %
08.11.2015 14:19 16,2 C 87 % 1028,3 hPa 0,0 l/m 2,5 km/h (1 Bft) N 11 0 min 0,000 mm 0,5 UV-I 106 W/m 14,0 C 16,2 C 4,8 km/h (1 Bft) 93,33 %
08.11.2015 14:20 16,2 C 87 % 1028,3 hPa 0,0 l/m 3,9 km/h (1 Bft) N-NW 332 0 min 0,000 mm 0,5 UV-I 97 W/m 14,0 C 16,2 C 8,0 km/h (2 Bft) 100,00 %
08.11.2015 14:21 16,2 C 87 % 1028,3 hPa 0,0 l/m 2,8 km/h (1 Bft) N 5 0 min 0,000 mm 0,5 UV-I 99 W/m 14,0 C 16,2 C 4,8 km/h (1 Bft) 100,00 %
08.11.2015 14:22 16,1 C 88 % 1028,3 hPa 0,0 l/m 3,2 km/h (1 Bft) N-NW 347 0 min 0,000 mm 0,5 UV-I 104 W/m 14,1 C 16,1 C 4,8 km/h (1 Bft) 100,00 %
08.11.2015 14:23 16,1 C 88 % 1028,3 hPa 0,0 l/m 2,7 km/h (1 Bft) N 355 0 min 0,000 mm 0,5 UV-I 104 W/m 14,1 C 16,1 C 4,8 km/h (1 Bft) 100,00 %
08.11.2015 14:24 16,1 C 88 % 1028,3 hPa 0,0 l/m 1,0 km/h (0 Bft) N-NW 329 0 min 0,000 mm 0,5 UV-I 114 W/m 14,1 C 16,1 C 3,2 km/h (1 Bft) 100,00 %
08.11.2015 14:25 16,0 C 87 % 1028,3 hPa 0,0 l/m 1,4 km/h (1 Bft) N-NW 336 0 min 0,000 mm 0,5 UV-I 120 W/m 13,8 C 16,0 C 3,2 km/h (1 Bft) 100,00 %
08.11.2015 14:26 16,0 C 87 % 1028,3 hPa 0,0 l/m 0,8 km/h (0 Bft) N-NW 332 0 min 0,000 mm 0,5 UV-I 115 W/m 13,8 C 16,0 C 1,6 km/h (1 Bft) 100,00 %
08.11.2015 14:27 15,9 C 88 % 1028,3 hPa 0,0 l/m 1,7 km/h (1 Bft) N 11 0 min 0,000 mm 0,5 UV-I 117 W/m 13,9 C 15,9 C 3,2 km/h (1 Bft) 100,00 %
08.11.2015 14:28 15,9 C 88 % 1028,3 hPa 0,0 l/m 2,0 km/h (1 Bft) NW 312 0 min 0,000 mm 0,5 UV-I 118 W/m 13,9 C 15,9 C 3,2 km/h (1 Bft) 100,00 %
08.11.2015 14:29 15,9 C 88 % 1028,3 hPa 0,0 l/m 1,6 km/h (1 Bft) N 355 0 min 0,000 mm 0,5 UV-I 122 W/m 13,9 C 15,9 C 3,2 km/h (1 Bft) 100,00 %
08.11.2015 14:30 15,8 C 87 % 1028,3 hPa 0,0 l/m 3,4 km/h (1 Bft) N-NW 344 0 min 0,000 mm 0,5 UV-I 120 W/m 13,6 C 15,8 C 4,8 km/h (1 Bft) 100,00 %
08.11.2015 14:31 15,8 C 88 % 1028,3 hPa 0,0 l/m 1,6 km/h (1 Bft) N-NW 345 0 min 0,000 mm 0,5 UV-I 123 W/m 13,8 C 15,8 C 3,2 km/h (1 Bft) 100,00 %
08.11.2015 14:32 15,8 C 88 % 1028,3 hPa 0,0 l/m 1,7 km/h (1 Bft) N-NW 345 0 min 0,000 mm 0,5 UV-I 119 W/m 13,8 C 15,8 C 3,2 km/h (1 Bft) 100,00 %
08.11.2015 14:33 15,8 C 88 % 1028,3 hPa 0,0 l/m 2,6 km/h (1 Bft) N 350 0 min 0,000 mm 0,5 UV-I 139 W/m 13,8 C 15,8 C 4,8 km/h (1 Bft) 100,00 %
08.11.2015 14:34 15,8 C 88 % 1028,3 hPa 0,0 l/m 1,2 km/h (1 Bft) N 9 0 min 0,000 mm 0,5 UV-I 142 W/m 13,8 C 15,8 C 3,2 km/h (1 Bft) 100,00 %
08.11.2015 14:35 15,8 C 89 % 1028,3 hPa 0,0 l/m 2,6 km/h (1 Bft) N-NO 17 1 min 0,000 mm 0,5 UV-I 172 W/m 14,0 C 15,8 C 4,8 km/h (1 Bft) 100,00 %
08.11.2015 14:36 15,7 C 89 % 1028,3 hPa 0,0 l/m 3,1 km/h (1 Bft) N 5 1 min 0,000 mm 0,5 UV-I 187 W/m 13,9 C 15,7 C 4,8 km/h (1 Bft) 100,00 %
08.11.2015 14:37 15,8 C 89 % 1028,3 hPa 0,0 l/m 3,7 km/h (1 Bft) N 5 1 min 0,000 mm 0,5 UV-I 200 W/m 14,0 C 15,8 C 6,4 km/h (2 Bft) 100,00 %
08.11.2015 14:38 15,7 C 89 % 1028,2 hPa 0,0 l/m 4,9 km/h (1 Bft) N 350 1 min 0,000 mm 0,5 UV-I 212 W/m 13,9 C 15,7 C 6,4 km/h (2 Bft) 100,00 %
08.11.2015 14:39 15,7 C 89 % 1028,3 hPa 0,0 l/m 3,5 km/h (1 Bft) N-NO 18 1 min 0,000 mm 0,5 UV-I 186 W/m 13,9 C 15,7 C 4,8 km/h (1 Bft) 100,00 %
08.11.2015 14:40 15,8 C 89 % 1028,2 hPa 0,0 l/m 3,1 km/h (1 Bft) N-NO 18 1 min 0,000 mm 0,5 UV-I 205 W/m 14,0 C 15,8 C 4,8 km/h (1 Bft) 100,00 %
08.11.2015 14:41 15,8 C 89 % 1028,2 hPa 0,0 l/m 2,5 km/h (1 Bft) N-NO 15 1 min 0,000 mm 0,5 UV-I 208 W/m 14,0 C 15,8 C 6,4 km/h (2 Bft) 100,00 %
08.11.2015 14:42 15,8 C 89 % 1028,2 hPa 0,0 l/m 4,7 km/h (1 Bft) NW 306 1 min 0,000 mm 0,5 UV-I 204 W/m 14,0 C 15,8 C 6,4 km/h (2 Bft) 96,15 %
08.11.2015 14:43 15,8 C 88 % 1028,2 hPa 0,0 l/m 2,4 km/h (1 Bft) N-NW 327 1 min 0,000 mm 0,4 UV-I 190 W/m 13,8 C 15,8 C 4,8 km/h (1 Bft) 100,00 %
08.11.2015 14:44 15,8 C 89 % 1028,2 hPa 0,0 l/m 1,8 km/h (1 Bft) N-NW 342 1 min 0,000 mm 0,0 UV-I 182 W/m 14,0 C 15,8 C 3,2 km/h (1 Bft) 100,00 %
08.11.2015 14:45 15,8 C 88 % 1028,2 hPa 0,0 l/m 2,5 km/h (1 Bft) W 271 1 min 0,000 mm 0,0 UV-I 195 W/m 13,8 C 15,8 C 3,2 km/h (1 Bft) 100,00 %
08.11.2015 14:46 15,8 C 88 % 1028,2 hPa 0,0 l/m 3,5 km/h (1 Bft) W 261 1 min 0,000 mm 0,0 UV-I 193 W/m 13,8 C 15,8 C 6,4 km/h (2 Bft) 100,00 %
08.11.2015 14:47 15,8 C 88 % 1028,2 hPa 0,0 l/m 3,8 km/h (1 Bft) N-NO 12 1 min 0,000 mm 0,0 UV-I 185 W/m 13,8 C 15,8 C 6,4 km/h (2 Bft) 95,83 %
08.11.2015 14:48 15,8 C 89 % 1028,1 hPa 0,0 l/m 3,6 km/h (1 Bft) N-NO 32 1 min 0,000 mm 0,0 UV-I 178 W/m 14,0 C 15,8 C 4,8 km/h (1 Bft) 95,65 %
08.11.2015 14:49 15,8 C 88 % 1028,2 hPa 0,0 l/m 2,6 km/h (1 Bft) N 5 1 min 0,000 mm 0,0 UV-I 172 W/m 13,8 C 15,8 C 4,8 km/h (1 Bft) 100,00 %
08.11.2015 14:50 15,7 C 88 % 1028,2 hPa 0,0 l/m 2,6 km/h (1 Bft) N 9 1 min 0,000 mm 0,0 UV-I 161 W/m 13,7 C 15,7 C 4,8 km/h (1 Bft) 100,00 %
08.11.2015 14:51 15,7 C 88 % 1028,2 hPa 0,0 l/m 2,4 km/h (1 Bft) N-NW 346 1 min 0,000 mm 0,0 UV-I 151 W/m 13,7 C 15,7 C 4,8 km/h (1 Bft) 100,00 %
08.11.2015 14:52 15,6 C 89 % 1028,2 hPa 0,0 l/m 2,4 km/h (1 Bft) N-NO 27 1 min 0,000 mm 0,0 UV-I 162 W/m 13,8 C 15,6 C 3,2 km/h (1 Bft) 100,00 %
08.11.2015 14:53 15,6 C 88 % 1028,2 hPa 0,0 l/m 2,9 km/h (1 Bft) N 5 1 min 0,000 mm 0,0 UV-I 156 W/m 13,6 C 15,6 C 3,2 km/h (1 Bft) 100,00 %
08.11.2015 14:54 15,6 C 89 % 1028,2 hPa 0,0 l/m 3,1 km/h (1 Bft) N 9 1 min 0,000 mm 0,0 UV-I 134 W/m 13,8 C 15,6 C 4,8 km/h (1 Bft) 100,00 %
08.11.2015 14:55 15,5 C 89 % 1028,2 hPa 0,0 l/m 5,0 km/h (1 Bft) N 355 1 min 0,000 mm 0,0 UV-I 150 W/m 13,7 C 15,5 C 8,0 km/h (2 Bft) 100,00 %
08.11.2015 14:56 15,4 C 89 % 1028,3 hPa 0,0 l/m 5,6 km/h (1 Bft) N 355 1 min 0,000 mm 0,0 UV-I 164 W/m 13,6 C 15,4 C 8,0 km/h (2 Bft) 100,00 %
08.11.2015 14:57 15,4 C 89 % 1028,2 hPa 0,0 l/m 4,6 km/h (1 Bft) N 355 1 min 0,000 mm 0,0 UV-I 167 W/m 13,6 C 15,4 C 6,4 km/h (2 Bft) 100,00 %
08.11.2015 14:58 15,4 C 89 % 1028,2 hPa 0,0 l/m 3,6 km/h (1 Bft) N 11 1 min 0,000 mm 0,0 UV-I 161 W/m 13,6 C 15,4 C 4,8 km/h (1 Bft) 100,00 %
08.11.2015 14:59 15,4 C 89 % 1028,2 hPa 0,0 l/m 3,3 km/h (1 Bft) N-NO 16 1 min 0,000 mm 0,0 UV-I 156 W/m 13,6 C 15,4 C 4,8 km/h (1 Bft) 95,83 %
08.11.2015 15:00 15,4 C 90 % 1028,2 hPa 0,0 l/m 4,6 km/h (1 Bft) N 10 1 min 0,000 mm 0,0 UV-I 153 W/m 13,8 C 15,4 C 6,4 km/h (2 Bft) 100,00 %
08.11.2015 15:01 15,4 C 89 % 1028,2 hPa 0,0 l/m 4,2 km/h (1 Bft) N 10 1 min 0,076 mm 0,0 UV-I 156 W/m 13,6 C 15,4 C 6,4 km/h (2 Bft) 96,15 %
08.11.2015 15:02 15,4 C 89 % 1028,2 hPa 0,0 l/m 2,0 km/h (1 Bft) N-NO 22 1 min 0,000 mm 0,0 UV-I 155 W/m 13,6 C 15,4 C 3,2 km/h (1 Bft) 100,00 %
08.11.2015 15:03 15,4 C 90 % 1028,1 hPa 0,0 l/m 3,1 km/h (1 Bft) N 355 1 min 0,000 mm 0,0 UV-I 150 W/m 13,8 C 15,4 C 4,8 km/h (1 Bft) 100,00 %
08.11.2015 15:04 15,4 C 90 % 1028,1 hPa 0,0 l/m 1,9 km/h (1 Bft) N 349 1 min 0,000 mm 0,0 UV-I 142 W/m 13,8 C 15,4 C 3,2 km/h (1 Bft) 100,00 %
08.11.2015 15:05 15,4 C 90 % 1028,1 hPa 0,0 l/m 3,0 km/h (1 Bft) W-SW 246 1 min 0,000 mm 0,0 UV-I 147 W/m 13,8 C 15,4 C 4,8 km/h (1 Bft) 100,00 %
08.11.2015 15:06 15,4 C 89 % 1028,1 hPa 0,0 l/m 3,0 km/h (1 Bft) N 355 1 min 0,000 mm 0,0 UV-I 150 W/m 13,6 C 15,4 C 6,4 km/h (2 Bft) 100,00 %
08.11.2015 15:07 15,4 C 89 % 1028,1 hPa 0,0 l/m 2,7 km/h (1 Bft) N-NO 14 1 min 0,000 mm 0,0 UV-I 153 W/m 13,6 C 15,4 C 4,8 km/h (1 Bft) 100,00 %
08.11.2015 15:08 15,4 C 89 % 1028,1 hPa 0,0 l/m 3,1 km/h (1 Bft) N-NW 348 1 min 0,000 mm 0,0 UV-I 150 W/m 13,6 C 15,4 C 4,8 km/h (1 Bft) 100,00 %
08.11.2015 15:09 15,4 C 89 % 1028,1 hPa 0,0 l/m 3,3 km/h (1 Bft) N 351 1 min 0,000 mm 0,0 UV-I 149 W/m 13,6 C 15,4 C 4,8 km/h (1 Bft) 100,00 %
08.11.2015 15:10 15,4 C 89 % 1028,1 hPa 0,0 l/m 1,7 km/h (1 Bft) N 11 1 min 0,000 mm 0,0 UV-I 151 W/m 13,6 C 15,4 C 4,8 km/h (1 Bft) 100,00 %
08.11.2015 15:11 15,4 C 90 % 1028,1 hPa 0,0 l/m 3,2 km/h (1 Bft) N 355 1 min 0,000 mm 0,0 UV-I 158 W/m 13,8 C 15,4 C 6,4 km/h (2 Bft) 100,00 %
08.11.2015 15:12 15,4 C 89 % 1028,1 hPa 0,0 l/m 3,7 km/h (1 Bft) N-NO 25 1 min 0,000 mm 0,0 UV-I 168 W/m 13,6 C 15,4 C 6,4 km/h (2 Bft) 95,83 %
08.11.2015 15:13 15,4 C 89 % 1028,2 hPa 0,0 l/m 3,1 km/h (1 Bft) N 351 1 min 0,000 mm 0,0 UV-I 165 W/m 13,6 C 15,4 C 4,8 km/h (1 Bft) 100,00 %
08.11.2015 15:14 15,3 C 89 % 1028,1 hPa 0,0 l/m 3,7 km/h (1 Bft) N 10 1 min 0,000 mm 0,0 UV-I 158 W/m 13,5 C 15,3 C 6,4 km/h (2 Bft) 100,00 %
08.11.2015 15:15 15,3 C 89 % 1028,1 hPa 0,0 l/m 4,3 km/h (1 Bft) N 351 1 min 0,000 mm 0,0 UV-I 147 W/m 13,5 C 15,3 C 8,0 km/h (2 Bft) 100,00 %
08.11.2015 15:16 15,3 C 89 % 1028,1 hPa 0,0 l/m 2,7 km/h (1 Bft) N-NO 13 1 min 0,000 mm 0,0 UV-I 130 W/m 13,5 C 15,3 C 4,8 km/h (1 Bft) 96,15 %
08.11.2015 15:17 15,2 C 90 % 1028,1 hPa 0,0 l/m 2,8 km/h (1 Bft) N 355 1 min 0,000 mm 0,0 UV-I 116 W/m 13,6 C 15,2 C 4,8 km/h (1 Bft) 100,00 %
08.11.2015 15:18 15,2 C 89 % 1028,1 hPa 0,0 l/m 0,8 km/h (0 Bft) N-NW 338 1 min 0,000 mm 0,0 UV-I 107 W/m 13,4 C 15,2 C 3,2 km/h (1 Bft) 100,00 %
08.11.2015 15:19 15,2 C 89 % 1028,1 hPa 0,0 l/m 2,1 km/h (1 Bft) N-NW 327 1 min 0,000 mm 0,0 UV-I 106 W/m 13,4 C 15,2 C 6,4 km/h (2 Bft) 100,00 %
08.11.2015 15:20 15,2 C 89 % 1028,1 hPa 0,0 l/m 1,8 km/h (1 Bft) NW 321 1 min 0,000 mm 0,0 UV-I 112 W/m 13,4 C 15,2 C 3,2 km/h (1 Bft) 100,00 %
08.11.2015 15:21 15,2 C 89 % 1028,1 hPa 0,0 l/m 1,3 km/h (1 Bft) N-NW 337 1 min 0,000 mm 0,0 UV-I 113 W/m 13,4 C 15,2 C 3,2 km/h (1 Bft) 100,00 %
08.11.2015 15:22 15,2 C 89 % 1028,1 hPa 0,0 l/m 1,1 km/h (1 Bft) N 355 1 min 0,000 mm 0,0 UV-I 111 W/m 13,4 C 15,2 C 3,2 km/h (1 Bft) 95,65 %
08.11.2015 15:23 15,2 C 89 % 1028,1 hPa 0,0 l/m 1,9 km/h (1 Bft) N-NO 18 1 min 0,000 mm 0,0 UV-I 108 W/m 13,4 C 15,2 C 3,2 km/h (1 Bft) 100,00 %
08.11.2015 15:24 15,2 C 90 % 1028,1 hPa 0,0 l/m 1,8 km/h (1 Bft) N 355 1 min 0,000 mm 0,0 UV-I 107 W/m 13,6 C 15,2 C 4,8 km/h (1 Bft) 95,65 %
08.11.2015 15:25 15,2 C 90 % 1028,0 hPa 0,0 l/m 2,4 km/h (1 Bft) N-NO 25 1 min 0,000 mm 0,0 UV-I 97 W/m 13,6 C 15,2 C 4,8 km/h (1 Bft) 100,00 %
08.11.2015 15:26 15,2 C 90 % 1028,1 hPa 0,0 l/m 1,7 km/h (1 Bft) NO 34 0 min 0,000 mm 0,0 UV-I 82 W/m 13,6 C 15,2 C 3,2 km/h (1 Bft) 100,00 %
08.11.2015 15:27 15,1 C 90 % 1028,0 hPa 0,0 l/m 3,4 km/h (1 Bft) N 350 0 min 0,000 mm 0,0 UV-I 72 W/m 13,5 C 15,1 C 6,4 km/h (2 Bft) 100,00 %
08.11.2015 15:28 15,1 C 90 % 1028,0 hPa 0,0 l/m 3,0 km/h (1 Bft) N 355 0 min 0,000 mm 0,0 UV-I 78 W/m 13,5 C 15,1 C 4,8 km/h (1 Bft) 100,00 %
08.11.2015 15:29 15,0 C 90 % 1027,9 hPa 0,0 l/m 1,4 km/h (1 Bft) N-NW 336 0 min 0,000 mm 0,0 UV-I 54 W/m 13,4 C 15,0 C 3,2 km/h (1 Bft) 96,30 %
08.11.2015 15:30 15,0 C 90 % 1027,9 hPa 0,0 l/m 1,1 km/h (1 Bft) N-NW 340 0 min 0,000 mm 0,0 UV-I 80 W/m 13,4 C 15,0 C 3,2 km/h (1 Bft) 100,00 %
08.11.2015 15:31 14,9 C 90 % 1027,9 hPa 0,0 l/m 0,8 km/h (0 Bft) N-NW 339 1 min 0,000 mm 0,0 UV-I 90 W/m 13,3 C 14,9 C 1,6 km/h (1 Bft) 100,00 %
08.11.2015 15:32 15,0 C 90 % 1027,9 hPa 0,0 l/m 2,2 km/h (1 Bft) NW 323 1 min 0,000 mm 0,0 UV-I 89 W/m 13,4 C 15,0 C 3,2 km/h (1 Bft) 100,00 %
08.11.2015 15:33 15,0 C 90 % 1027,9 hPa 0,0 l/m 1,5 km/h (1 Bft) NW 323 1 min 0,000 mm 0,0 UV-I 88 W/m 13,4 C 15,0 C 3,2 km/h (1 Bft) 100,00 %
08.11.2015 15:34 14,9 C 90 % 1027,9 hPa 0,0 l/m 0,1 km/h (0 Bft) NW 323 1 min 0,000 mm 0,0 UV-I 88 W/m 13,3 C 14,9 C 1,6 km/h (1 Bft) 100,00 %
08.11.2015 15:35 14,9 C 90 % 1027,9 hPa 0,0 l/m 0,0 km/h (0 Bft) NW 323 1 min 0,000 mm 0,0 UV-I 85 W/m 13,3 C 14,9 C 0,0 km/h (0 Bft) 100,00 %
08.11.2015 15:36 14,9 C 90 % 1027,8 hPa 0,0 l/m 0,0 km/h (0 Bft) NW 323 1 min 0,000 mm 0,0 UV-I 84 W/m 13,3 C 14,9 C 0,0 km/h (0 Bft) 100,00 %
08.11.2015 15:37 14,9 C 91 % 1027,9 hPa 0,0 l/m 0,0 km/h (0 Bft) NW 323 1 min 0,000 mm 0,0 UV-I 84 W/m 13,4 C 14,9 C 0,0 km/h (0 Bft) 100,00 %
08.11.2015 15:38 15,0 C 91 % 1027,8 hPa 0,0 l/m 0,0 km/h (0 Bft) NW 323 1 min 0,000 mm 0,0 UV-I 89 W/m 13,5 C 15,0 C 0,0 km/h (0 Bft) 100,00 %
08.11.2015 15:39 15,0 C 90 % 1027,9 hPa 0,0 l/m 0,3 km/h (0 Bft) NW 323 1 min 0,000 mm 0,0 UV-I 88 W/m 13,4 C 15,0 C 1,6 km/h (1 Bft) 96,15 %
08.11.2015 15:40 15,1 C 91 % 1027,8 hPa 0,0 l/m 0,0 km/h (0 Bft) NW 323 1 min 0,000 mm 0,0 UV-I 83 W/m 13,6 C 15,1 C 0,0 km/h (0 Bft) 100,00 %
08.11.2015 15:41 15,1 C 90 % 1027,8 hPa 0,0 l/m 0,0 km/h (0 Bft) NW 323 1 min 0,000 mm 0,0 UV-I 78 W/m 13,5 C 15,1 C 0,0 km/h (0 Bft) 100,00 %
08.11.2015 15:42 15,1 C 90 % 1027,9 hPa 0,0 l/m 0,4 km/h (0 Bft) N 355 1 min 0,000 mm 0,0 UV-I 77 W/m 13,5 C 15,1 C 1,6 km/h (1 Bft) 100,00 %
08.11.2015 15:43 15,1 C 90 % 1027,9 hPa 0,0 l/m 1,0 km/h (0 Bft) N 355 1 min 0,000 mm 0,0 UV-I 71 W/m 13,5 C 15,1 C 1,6 km/h (1 Bft) 96,15 %
08.11.2015 15:44 15,0 C 90 % 1027,8 hPa 0,0 l/m 0,9 km/h (0 Bft) N 5 0 min 0,000 mm 0,0 UV-I 63 W/m 13,4 C 15,0 C 1,6 km/h (1 Bft) 100,00 %
08.11.2015 15:45 14,9 C 90 % 1027,8 hPa 0,0 l/m 1,4 km/h (1 Bft) N 5 0 min 0,000 mm 0,0 UV-I 44 W/m 13,3 C 14,9 C 3,2 km/h (1 Bft) 100,00 %
08.11.2015 15:46 14,9 C 90 % 1027,8 hPa 0,0 l/m 1,0 km/h (0 Bft) N 5 0 min 0,000 mm 0,0 UV-I 37 W/m 13,3 C 14,9 C 3,2 km/h (1 Bft) 100,00 %
08.11.2015 15:47 14,9 C 90 % 1027,9 hPa 0,0 l/m 1,7 km/h (1 Bft) N 5 0 min 0,000 mm 0,0 UV-I 36 W/m 13,3 C 14,9 C 3,2 km/h (1 Bft) 100,00 %
08.11.2015 15:48 14,8 C 90 % 1027,8 hPa 0,0 l/m 1,4 km/h (1 Bft) W-NW 298 0 min 0,000 mm 0,0 UV-I 33 W/m 13,2 C 14,8 C 3,2 km/h (1 Bft) 95,83 %
08.11.2015 15:49 14,8 C 91 % 1027,8 hPa 0,0 l/m 1,4 km/h (1 Bft) W-NW 298 0 min 0,000 mm 0,0 UV-I 33 W/m 13,3 C 14,8 C 3,2 km/h (1 Bft) 100,00 %
08.11.2015 15:50 14,8 C 91 % 1027,7 hPa 0,0 l/m 0,9 km/h (0 Bft) W-NW 298 0 min 0,000 mm 0,0 UV-I 32 W/m 13,3 C 14,8 C 1,6 km/h (1 Bft) 95,83 %
08.11.2015 15:51 14,7 C 91 % 1027,7 hPa 0,0 l/m 0,3 km/h (0 Bft) W-NW 298 0 min 0,000 mm 0,0 UV-I 30 W/m 13,2 C 14,7 C 1,6 km/h (1 Bft) 100,00 %
08.11.2015 15:52 14,7 C 91 % 1027,7 hPa 0,0 l/m 0,1 km/h (0 Bft) W-NW 298 0 min 0,000 mm 0,0 UV-I 30 W/m 13,2 C 14,7 C 1,6 km/h (1 Bft) 100,00 %
08.11.2015 15:53 14,6 C 91 % 1027,7 hPa 0,0 l/m 0,1 km/h (0 Bft) W-NW 298 0 min 0,000 mm 0,0 UV-I 32 W/m 13,1 C 14,6 C 1,6 km/h (1 Bft) 100,00 %
08.11.2015 15:54 14,6 C 91 % 1027,8 hPa 0,0 l/m 0,0 km/h (0 Bft) W-NW 298 0 min 0,000 mm 0,0 UV-I 35 W/m 13,1 C 14,6 C 0,0 km/h (0 Bft) 96,15 %
08.11.2015 15:55 14,6 C 92 % 1027,7 hPa 0,0 l/m 0,0 km/h (0 Bft) W-NW 298 0 min 0,000 mm 0,0 UV-I 37 W/m 13,3 C 14,6 C 0,0 km/h (0 Bft) 100,00 %
08.11.2015 15:56 14,6 C 92 % 1027,7 hPa 0,0 l/m 0,0 km/h (0 Bft) W-NW 298 0 min 0,000 mm 0,0 UV-I 37 W/m 13,3 C 14,6 C 0,0 km/h (0 Bft) 100,00 %
08.11.2015 15:57 14,6 C 91 % 1027,7 hPa 0,0 l/m 0,0 km/h (0 Bft) W-NW 298 0 min 0,000 mm 0,0 UV-I 37 W/m 13,1 C 14,6 C 0,0 km/h (0 Bft) 100,00 %
08.11.2015 15:58 14,6 C 92 % 1027,7 hPa 0,0 l/m 0,0 km/h (0 Bft) W-NW 298 0 min 0,000 mm 0,0 UV-I 42 W/m 13,3 C 14,6 C 0,0 km/h (0 Bft) 95,65 %
08.11.2015 15:59 14,5 C 92 % 1027,7 hPa 0,0 l/m 0,0 km/h (0 Bft) W-NW 298 0 min 0,000 mm 0,0 UV-I 43 W/m 13,2 C 14,5 C 0,0 km/h (0 Bft) 100,00 %
08.11.2015 16:00 14,5 C 92 % 1027,7 hPa 0,0 l/m 0,0 km/h (0 Bft) W-NW 298 0 min 0,051 mm 0,0 UV-I 38 W/m 13,2 C 14,5 C 0,0 km/h (0 Bft) 100,00 %
08.11.2015 16:01 14,5 C 92 % 1027,8 hPa 0,0 l/m 0,0 km/h (0 Bft) W-NW 298 0 min 0,000 mm 0,0 UV-I 33 W/m 13,2 C 14,5 C 0,0 km/h (0 Bft) 100,00 %
08.11.2015 16:02 14,5 C 92 % 1027,7 hPa 0,0 l/m 0,2 km/h (0 Bft) W-NW 298 0 min 0,000 mm 0,0 UV-I 35 W/m 13,2 C 14,5 C 1,6 km/h (1 Bft) 100,00 %
08.11.2015 16:03 14,5 C 92 % 1027,7 hPa 0,0 l/m 1,1 km/h (1 Bft) W-NW 298 1 min 0,000 mm 0,0 UV-I 39 W/m 13,2 C 14,5 C 1,6 km/h (1 Bft) 95,83 %
08.11.2015 16:04 14,5 C 92 % 1027,7 hPa 0,0 l/m 0,0 km/h (0 Bft) W-NW 298 1 min 0,000 mm 0,0 UV-I 40 W/m 13,2 C 14,5 C 0,0 km/h (0 Bft) 100,00 %
08.11.2015 16:05 14,5 C 92 % 1027,7 hPa 0,0 l/m 0,0 km/h (0 Bft) W-NW 298 1 min 0,000 mm 0,0 UV-I 41 W/m 13,2 C 14,5 C 0,0 km/h (0 Bft) 100,00 %
08.11.2015 16:06 14,5 C 92 % 1027,7 hPa 0,0 l/m 0,0 km/h (0 Bft) W-NW 298 1 min 0,000 mm 0,0 UV-I 40 W/m 13,2 C 14,5 C 0,0 km/h (0 Bft) 95,65 %
08.11.2015 16:07 14,4 C 92 % 1027,7 hPa 0,0 l/m 0,0 km/h (0 Bft) W-NW 298 1 min 0,000 mm 0,0 UV-I 36 W/m 13,1 C 14,4 C 0,0 km/h (0 Bft) 100,00 %
08.11.2015 16:08 14,4 C 91 % 1027,7 hPa 0,0 l/m 0,9 km/h (0 Bft) W-NW 298 1 min 0,000 mm 0,0 UV-I 33 W/m 12,9 C 14,4 C 1,6 km/h (1 Bft) 95,65 %
08.11.2015 16:09 14,4 C 92 % 1027,6 hPa 0,0 l/m 0,0 km/h (0 Bft) W-NW 298 1 min 0,000 mm 0,0 UV-I 32 W/m 13,1 C 14,4 C 0,0 km/h (0 Bft) 100,00 %
08.11.2015 16:10 14,4 C 92 % 1027,6 hPa 0,0 l/m 0,0 km/h (0 Bft) W-NW 298 1 min 0,000 mm 0,0 UV-I 30 W/m 13,1 C 14,4 C 0,0 km/h (0 Bft) 95,65 %
08.11.2015 16:11 14,3 C 92 % 1027,6 hPa 0,0 l/m 0,0 km/h (0 Bft) W-NW 298 0 min 0,000 mm 0,0 UV-I 27 W/m 13,0 C 14,3 C 0,0 km/h (0 Bft) 100,00 %
08.11.2015 16:12 14,3 C 92 % 1027,6 hPa 0,0 l/m 0,0 km/h (0 Bft) W-NW 298 1 min 0,000 mm 0,0 UV-I 26 W/m 13,0 C 14,3 C 0,0 km/h (0 Bft) 100,00 %
08.11.2015 16:13 14,3 C 92 % 1027,6 hPa 0,0 l/m 0,0 km/h (0 Bft) W-NW 298 1 min 0,000 mm 0,0 UV-I 26 W/m 13,0 C 14,3 C 0,0 km/h (0 Bft) 100,00 %
08.11.2015 16:14 14,3 C 92 % 1027,6 hPa 0,0 l/m 0,6 km/h (0 Bft) W-NW 298 1 min 0,000 mm 0,0 UV-I 26 W/m 13,0 C 14,3 C 1,6 km/h (1 Bft) 100,00 %
08.11.2015 16:15 14,3 C 92 % 1027,6 hPa 0,0 l/m 0,1 km/h (0 Bft) W-NW 298 1 min 0,000 mm 0,0 UV-I 25 W/m 13,0 C 14,3 C 1,6 km/h (1 Bft) 100,00 %
08.11.2015 16:16 14,3 C 92 % 1027,6 hPa 0,0 l/m 0,0 km/h (0 Bft) W-NW 298 1 min 0,000 mm 0,0 UV-I 26 W/m 13,0 C 14,3 C 0,0 km/h (0 Bft) 100,00 %
08.11.2015 16:17 14,3 C 92 % 1027,5 hPa 0,0 l/m 0,0 km/h (0 Bft) W-NW 298 1 min 0,000 mm 0,0 UV-I 26 W/m 13,0 C 14,3 C 0,0 km/h (0 Bft) 96,15 %
08.11.2015 16:18 14,2 C 92 % 1027,6 hPa 0,0 l/m 0,0 km/h (0 Bft) W-NW 298 1 min 0,000 mm 0,0 UV-I 24 W/m 12,9 C 14,2 C 0,0 km/h (0 Bft) 100,00 %
08.11.2015 16:19 14,2 C 92 % 1027,5 hPa 0,0 l/m 0,0 km/h (0 Bft) W-NW 298 1 min 0,000 mm 0,0 UV-I 22 W/m 12,9 C 14,2 C 0,0 km/h (0 Bft) 100,00 %
08.11.2015 16:20 14,2 C 92 % 1027,5 hPa 0,0 l/m 0,1 km/h (0 Bft) W-NW 298 1 min 0,000 mm 0,0 UV-I 19 W/m 12,9 C 14,2 C 1,6 km/h (1 Bft) 100,00 %
08.11.2015 16:21 14,1 C 92 % 1027,5 hPa 0,0 l/m 1,0 km/h (0 Bft) W-NW 298 1 min 0,000 mm 0,0 UV-I 18 W/m 12,8 C 14,1 C 1,6 km/h (1 Bft) 100,00 %
08.11.2015 16:22 14,1 C 92 % 1027,5 hPa 0,0 l/m 0,5 km/h (0 Bft) W-NW 298 1 min 0,000 mm 0,0 UV-I 16 W/m 12,8 C 14,1 C 1,6 km/h (1 Bft) 100,00 %
08.11.2015 16:23 14,1 C 93 % 1027,6 hPa 0,0 l/m 0,0 km/h (0 Bft) W-NW 298 1 min 0,000 mm 0,0 UV-I 15 W/m 13,0 C 14,1 C 0,0 km/h (0 Bft) 100,00 %
08.11.2015 16:24 14,1 C 93 % 1027,5 hPa 0,0 l/m 0,0 km/h (0 Bft) W-NW 298 1 min 0,000 mm 0,0 UV-I 14 W/m 13,0 C 14,1 C 0,0 km/h (0 Bft) 100,00 %
08.11.2015 16:25 14,1 C 93 % 1027,5 hPa 0,0 l/m 0,0 km/h (0 Bft) W-NW 298 0 min 0,000 mm 0,0 UV-I 13 W/m 13,0 C 14,1 C 0,0 km/h (0 Bft) 100,00 %
08.11.2015 16:26 14,0 C 93 % 1027,5 hPa 0,0 l/m 0,3 km/h (0 Bft) W-NW 298 0 min 0,000 mm 0,0 UV-I 12 W/m 12,9 C 14,0 C 1,6 km/h (1 Bft) 100,00 %
08.11.2015 16:27 13,9 C 93 % 1027,5 hPa 0,0 l/m 1,2 km/h (1 Bft) W-NW 298 0 min 0,000 mm 0,0 UV-I 11 W/m 12,8 C 13,9 C 1,6 km/h (1 Bft) 100,00 %
08.11.2015 16:28 13,9 C 92 % 1027,5 hPa 0,0 l/m 0,3 km/h (0 Bft) W-NW 298 0 min 0,000 mm 0,0 UV-I 10 W/m 12,6 C 13,9 C 1,6 km/h (1 Bft) 100,00 %
08.11.2015 16:29 13,8 C 92 % 1027,5 hPa 0,0 l/m 0,0 km/h (0 Bft) W-NW 298 0 min 0,000 mm 0,0 UV-I 9 W/m 12,5 C 13,8 C 0,0 km/h (0 Bft) 100,00 %
08.11.2015 16:30 13,8 C 93 % 1027,5 hPa 0,0 l/m 0,0 km/h (0 Bft) W-NW 298 0 min 0,000 mm 0,0 UV-I 8 W/m 12,7 C 13,8 C 0,0 km/h (0 Bft) 100,00 %
08.11.2015 16:31 13,8 C 93 % 1027,5 hPa 0,0 l/m 0,1 km/h (0 Bft) W-NW 298 0 min 0,000 mm 0,0 UV-I 7 W/m 12,7 C 13,8 C 1,6 km/h (1 Bft) 100,00 %
08.11.2015 16:32 13,8 C 93 % 1027,5 hPa 0,0 l/m 0,3 km/h (0 Bft) W-NW 298 0 min 0,000 mm 0,0 UV-I 7 W/m 12,7 C 13,8 C 1,6 km/h (1 Bft) 95,65 %
08.11.2015 16:33 13,8 C 93 % 1027,4 hPa 0,0 l/m 0,6 km/h (0 Bft) W-NW 298 0 min 0,000 mm 0,0 UV-I 7 W/m 12,7 C 13,8 C 1,6 km/h (1 Bft) 100,00 %
08.11.2015 16:34 13,7 C 93 % 1027,4 hPa 0,0 l/m 2,3 km/h (1 Bft) S-SO 165 0 min 0,000 mm 0,0 UV-I 5 W/m 12,6 C 13,7 C 4,8 km/h (1 Bft) 100,00 %
08.11.2015 16:35 13,7 C 93 % 1027,4 hPa 0,0 l/m 2,4 km/h (1 Bft) S-SO 167 0 min 0,000 mm 0,0 UV-I 5 W/m 12,6 C 13,7 C 4,8 km/h (1 Bft) 100,00 %
08.11.2015 16:36 13,6 C 93 % 1027,4 hPa 0,0 l/m 1,3 km/h (1 Bft) S-SO 163 0 min 0,000 mm 0,0 UV-I 5 W/m 12,5 C 13,6 C 3,2 km/h (1 Bft) 100,00 %
08.11.2015 16:37 13,6 C 94 % 1027,4 hPa 0,0 l/m 1,3 km/h (1 Bft) S-SO 163 0 min 0,000 mm 0,0 UV-I 5 W/m 12,7 C 13,6 C 1,6 km/h (1 Bft) 100,00 %
08.11.2015 16:38 13,6 C 94 % 1027,4 hPa 0,0 l/m 0,2 km/h (0 Bft) S-SO 163 0 min 0,000 mm 0,0 UV-I 5 W/m 12,7 C 13,6 C 1,6 km/h (1 Bft) 100,00 %
08.11.2015 16:39 13,6 C 93 % 1027,3 hPa 0,0 l/m 0,0 km/h (0 Bft) S-SO 163 0 min 0,000 mm 0,0 UV-I 7 W/m 12,5 C 13,6 C 0,0 km/h (0 Bft) 100,00 %
08.11.2015 16:40 13,5 C 94 % 1027,3 hPa 0,0 l/m 0,0 km/h (0 Bft) S-SO 163 0 min 0,000 mm 0,0 UV-I 7 W/m 12,6 C 13,5 C 0,0 km/h (0 Bft) 95,65 %
08.11.2015 16:41 13,4 C 94 % 1027,3 hPa 0,0 l/m 0,0 km/h (0 Bft) S-SO 163 0 min 0,000 mm 0,0 UV-I 8 W/m 12,5 C 13,4 C 0,0 km/h (0 Bft) 100,00 %
08.11.2015 16:42 13,4 C 94 % 1027,3 hPa 0,0 l/m 0,1 km/h (0 Bft) S-SO 163 0 min 0,000 mm 0,0 UV-I 9 W/m 12,5 C 13,4 C 1,6 km/h (1 Bft) 100,00 %
08.11.2015 16:43 13,3 C 94 % 1027,3 hPa 0,0 l/m 1,3 km/h (1 Bft) S-SO 163 0 min 0,000 mm 0,0 UV-I 7 W/m 12,4 C 13,3 C 1,6 km/h (1 Bft) 100,00 %
08.11.2015 16:44 13,3 C 94 % 1027,3 hPa 0,0 l/m 1,9 km/h (1 Bft) S-SO 163 0 min 0,000 mm 0,0 UV-I 7 W/m 12,4 C 13,3 C 3,2 km/h (1 Bft) 96,30 %
08.11.2015 16:45 13,2 C 95 % 1027,3 hPa 0,0 l/m 1,3 km/h (1 Bft) S-SO 163 0 min 0,000 mm 0,0 UV-I 7 W/m 12,4 C 13,2 C 1,6 km/h (1 Bft) 95,65 %
08.11.2015 16:46 13,3 C 95 % 1027,3 hPa 0,0 l/m 0,8 km/h (0 Bft) S-SO 163 0 min 0,000 mm 0,0 UV-I 7 W/m 12,5 C 13,3 C 1,6 km/h (1 Bft) 100,00 %
08.11.2015 16:47 13,2 C 95 % 1027,3 hPa 0,0 l/m 0,8 km/h (0 Bft) S-SO 163 0 min 0,000 mm 0,0 UV-I 6 W/m 12,4 C 13,2 C 1,6 km/h (1 Bft) 100,00 %
08.11.2015 16:48 13,1 C 95 % 1027,3 hPa 0,0 l/m 0,1 km/h (0 Bft) S-SO 163 0 min 0,000 mm 0,0 UV-I 5 W/m 12,3 C 13,1 C 1,6 km/h (1 Bft) 100,00 %
08.11.2015 16:49 13,1 C 95 % 1027,3 hPa 0,0 l/m 0,0 km/h (0 Bft) S-SO 163 0 min 0,000 mm 0,0 UV-I 5 W/m 12,3 C 13,1 C 0,0 km/h (0 Bft) 100,00 %
08.11.2015 16:50 13,0 C 95 % 1027,2 hPa 0,0 l/m 0,0 km/h (0 Bft) S-SO 163 0 min 0,000 mm 0,0 UV-I 0 W/m 12,2 C 13,0 C 0,0 km/h (0 Bft) 100,00 %
08.11.2015 16:51 13,0 C 95 % 1027,2 hPa 0,0 l/m 0,0 km/h (0 Bft) S-SO 163 0 min 0,000 mm 0,0 UV-I 0 W/m 12,2 C 13,0 C 0,0 km/h (0 Bft) 100,00 %
08.11.2015 16:52 12,9 C 95 % 1027,2 hPa 0,0 l/m 0,1 km/h (0 Bft) S-SO 163 0 min 0,000 mm 0,0 UV-I 0 W/m 12,1 C 12,9 C 1,6 km/h (1 Bft) 100,00 %
08.11.2015 16:53 12,9 C 95 % 1027,2 hPa 0,0 l/m 0,2 km/h (0 Bft) S-SO 163 0 min 0,000 mm 0,0 UV-I 0 W/m 12,1 C 12,9 C 1,6 km/h (1 Bft) 100,00 %
08.11.2015 16:54 12,9 C 95 % 1027,2 hPa 0,0 l/m 1,3 km/h (1 Bft) S-SO 163 0 min 0,000 mm 0,0 UV-I 0 W/m 12,1 C 12,9 C 1,6 km/h (1 Bft) 100,00 %
08.11.2015 16:55 12,9 C 95 % 1027,2 hPa 0,0 l/m 1,8 km/h (1 Bft) S-SO 163 0 min 0,000 mm 0,0 UV-I 0 W/m 12,1 C 12,9 C 3,2 km/h (1 Bft) 100,00 %
08.11.2015 16:56 12,9 C 96 % 1027,2 hPa 0,0 l/m 1,8 km/h (1 Bft) S-SO 163 0 min 0,000 mm 0,0 UV-I 0 W/m 12,3 C 12,9 C 3,2 km/h (1 Bft) 100,00 %
08.11.2015 16:57 12,9 C 96 % 1027,2 hPa 0,0 l/m 1,5 km/h (1 Bft) S-SO 163 0 min 0,000 mm 0,0 UV-I 0 W/m 12,3 C 12,9 C 3,2 km/h (1 Bft) 100,00 %
08.11.2015 16:58 12,8 C 96 % 1027,1 hPa 0,0 l/m 0,5 km/h (0 Bft) S-SO 163 0 min 0,000 mm 0,0 UV-I 0 W/m 12,2 C 12,8 C 1,6 km/h (1 Bft) 100,00 %
08.11.2015 16:59 12,9 C 95 % 1027,1 hPa 0,0 l/m 0,0 km/h (0 Bft) S-SO 163 0 min 0,000 mm 0,0 UV-I 0 W/m 12,1 C 12,9 C 0,0 km/h (0 Bft) 100,00 %
08.11.2015 17:00 12,9 C 96 % 1027,2 hPa 0,0 l/m 0,0 km/h (0 Bft) S-SO 163 0 min 0,000 mm 0,0 UV-I 0 W/m 12,3 C 12,9 C 0,0 km/h (0 Bft) 100,00 %
08.11.2015 17:01 12,9 C 96 % 1027,1 hPa 0,0 l/m 0,0 km/h (0 Bft) S-SO 163 0 min 0,000 mm 0,0 UV-I 0 W/m 12,3 C 12,9 C 0,0 km/h (0 Bft) 100,00 %
08.11.2015 17:02 12,9 C 96 % 1027,1 hPa 0,0 l/m 0,7 km/h (0 Bft) S-SO 163 0 min 0,000 mm 0,0 UV-I 0 W/m 12,3 C 12,9 C 1,6 km/h (1 Bft) 100,00 %
08.11.2015 17:03 12,9 C 96 % 1027,2 hPa 0,0 l/m 2,3 km/h (1 Bft) S-SO 158 0 min 0,000 mm 0,0 UV-I 0 W/m 12,3 C 12,9 C 3,2 km/h (1 Bft) 100,00 %
08.11.2015 17:04 12,8 C 96 % 1027,1 hPa 0,0 l/m 1,1 km/h (1 Bft) S-SO 158 0 min 0,000 mm 0,0 UV-I 0 W/m 12,2 C 12,8 C 1,6 km/h (1 Bft) 100,00 %
08.11.2015 17:05 12,8 C 95 % 1027,1 hPa 0,0 l/m 0,3 km/h (0 Bft) S-SO 158 0 min 0,000 mm 0,0 UV-I 0 W/m 12,0 C 12,8 C 1,6 km/h (1 Bft) 100,00 %
08.11.2015 17:06 12,7 C 95 % 1027,1 hPa 0,0 l/m 0,0 km/h (0 Bft) S-SO 158 0 min 0,000 mm 0,0 UV-I 0 W/m 11,9 C 12,7 C 0,0 km/h (0 Bft) 100,00 %
08.11.2015 17:07 12,7 C 96 % 1027,1 hPa 0,0 l/m 0,0 km/h (0 Bft) S-SO 158 0 min 0,000 mm 0,0 UV-I 0 W/m 12,1 C 12,7 C 0,0 km/h (0 Bft) 100,00 %
08.11.2015 17:08 12,7 C 96 % 1027,1 hPa 0,0 l/m 0,0 km/h (0 Bft) S-SO 158 0 min 0,000 mm 0,0 UV-I 0 W/m 12,1 C 12,7 C 0,0 km/h (0 Bft) 95,65 %
08.11.2015 17:09 12,7 C 96 % 1027,0 hPa 0,0 l/m 0,0 km/h (0 Bft) S-SO 158 0 min 0,000 mm 0,0 UV-I 0 W/m 12,1 C 12,7 C 0,0 km/h (0 Bft) 100,00 %
08.11.2015 17:10 12,8 C 96 % 1027,0 hPa 0,0 l/m 0,0 km/h (0 Bft) S-SO 158 0 min 0,000 mm 0,0 UV-I 0 W/m 12,2 C 12,8 C 0,0 km/h (0 Bft) 100,00 %
08.11.2015 17:11 12,8 C 96 % 1027,0 hPa 0,0 l/m 0,0 km/h (0 Bft) S-SO 158 0 min 0,000 mm 0,0 UV-I 0 W/m 12,2 C 12,8 C 0,0 km/h (0 Bft) 100,00 %
08.11.2015 17:12 12,7 C 96 % 1027,0 hPa 0,0 l/m 0,0 km/h (0 Bft) S-SO 158 0 min 0,000 mm 0,0 UV-I 0 W/m 12,1 C 12,7 C 0,0 km/h (0 Bft) 100,00 %
08.11.2015 17:13 12,7 C 96 % 1027,0 hPa 0,0 l/m 0,0 km/h (0 Bft) S-SO 158 0 min 0,000 mm 0,0 UV-I 0 W/m 12,1 C 12,7 C 0,0 km/h (0 Bft) 100,00 %
08.11.2015 17:14 12,7 C 95 % 1027,1 hPa 0,0 l/m 0,0 km/h (0 Bft) S-SO 158 0 min 0,000 mm 0,0 UV-I 0 W/m 11,9 C 12,7 C 0,0 km/h (0 Bft) 100,00 %
08.11.2015 17:15 12,6 C 96 % 1027,1 hPa 0,0 l/m 0,0 km/h (0 Bft) S-SO 158 0 min 0,000 mm 0,0 UV-I 0 W/m 12,0 C 12,6 C 0,0 km/h (0 Bft) 100,00 %
08.11.2015 17:16 12,6 C 95 % 1027,1 hPa 0,0 l/m 0,0 km/h (0 Bft) S-SO 158 0 min 0,000 mm 0,0 UV-I 0 W/m 11,8 C 12,6 C 0,0 km/h (0 Bft) 100,00 %
08.11.2015 17:17 12,5 C 95 % 1027,1 hPa 0,0 l/m 0,0 km/h (0 Bft) S-SO 158 0 min 0,000 mm 0,0 UV-I 0 W/m 11,7 C 12,5 C 0,0 km/h (0 Bft) 100,00 %
08.11.2015 17:18 12,5 C 96 % 1027,1 hPa 0,0 l/m 0,0 km/h (0 Bft) S-SO 158 0 min 0,000 mm 0,0 UV-I 0 W/m 11,9 C 12,5 C 0,0 km/h (0 Bft) 100,00 %
08.11.2015 17:19 12,4 C 96 % 1027,0 hPa 0,0 l/m 0,0 km/h (0 Bft) S-SO 158 0 min 0,000 mm 0,0 UV-I 0 W/m 11,8 C 12,4 C 0,0 km/h (0 Bft) 100,00 %
08.11.2015 17:20 12,4 C 96 % 1027,1 hPa 0,0 l/m 0,2 km/h (0 Bft) S-SO 158 0 min 0,000 mm 0,0 UV-I 0 W/m 11,8 C 12,4 C 1,6 km/h (1 Bft) 100,00 %
08.11.2015 17:21 12,3 C 95 % 1027,0 hPa 0,0 l/m 0,8 km/h (0 Bft) S-SO 157 0 min 0,000 mm 0,0 UV-I 0 W/m 11,5 C 12,3 C 3,2 km/h (1 Bft) 100,00 %
08.11.2015 17:22 12,3 C 95 % 1027,0 hPa 0,0 l/m 1,7 km/h (1 Bft) S-SO 157 0 min 0,000 mm 0,0 UV-I 0 W/m 11,5 C 12,3 C 3,2 km/h (1 Bft) 100,00 %
08.11.2015 17:23 12,3 C 96 % 1027,1 hPa 0,0 l/m 1,2 km/h (1 Bft) S-SO 157 0 min 0,000 mm 0,0 UV-I 0 W/m 11,7 C 12,3 C 3,2 km/h (1 Bft) 100,00 %
08.11.2015 17:24 12,3 C 96 % 1027,1 hPa 0,0 l/m 1,8 km/h (1 Bft) S-SO 156 0 min 0,000 mm 0,0 UV-I 0 W/m 11,7 C 12,3 C 3,2 km/h (1 Bft) 100,00 %
08.11.2015 17:25 12,3 C 97 % 1027,1 hPa 0,0 l/m 1,6 km/h (1 Bft) S-SO 156 0 min 0,000 mm 0,0 UV-I 0 W/m 11,8 C 12,3 C 1,6 km/h (1 Bft) 100,00 %
08.11.2015 17:26 12,4 C 97 % 1027,0 hPa 0,0 l/m 1,4 km/h (1 Bft) S-SO 156 0 min 0,000 mm 0,0 UV-I 0 W/m 11,9 C 12,4 C 1,6 km/h (1 Bft) 100,00 %
08.11.2015 17:27 12,4 C 97 % 1027,0 hPa 0,0 l/m 0,6 km/h (0 Bft) S-SO 156 0 min 0,000 mm 0,0 UV-I 0 W/m 11,9 C 12,4 C 1,6 km/h (1 Bft) 100,00 %
08.11.2015 17:28 12,4 C 97 % 1027,0 hPa 0,0 l/m 0,0 km/h (0 Bft) S-SO 156 0 min 0,000 mm 0,0 UV-I 0 W/m 11,9 C 12,4 C 0,0 km/h (0 Bft) 100,00 %
08.11.2015 17:29 12,3 C 96 % 1027,0 hPa 0,0 l/m 0,1 km/h (0 Bft) S-SO 156 0 min 0,000 mm 0,0 UV-I 0 W/m 11,7 C 12,3 C 1,6 km/h (1 Bft) 100,00 %
08.11.2015 17:30 12,2 C 96 % 1027,0 hPa 0,0 l/m 0,6 km/h (0 Bft) S-SO 156 0 min 0,000 mm 0,0 UV-I 0 W/m 11,6 C 12,2 C 1,6 km/h (1 Bft) 100,00 %
08.11.2015 17:31 12,2 C 96 % 1027,0 hPa 0,0 l/m 0,3 km/h (0 Bft) S-SO 156 0 min 0,000 mm 0,0 UV-I 0 W/m 11,6 C 12,2 C 1,6 km/h (1 Bft) 100,00 %
08.11.2015 17:32 12,1 C 96 % 1027,0 hPa 0,0 l/m 0,0 km/h (0 Bft) S-SO 156 0 min 0,000 mm 0,0 UV-I 0 W/m 11,5 C 12,1 C 0,0 km/h (0 Bft) 100,00 %
08.11.2015 17:33 12,1 C 96 % 1027,0 hPa 0,0 l/m 0,0 km/h (0 Bft) S-SO 156 0 min 0,000 mm 0,0 UV-I 0 W/m 11,5 C 12,1 C 0,0 km/h (0 Bft) 100,00 %
08.11.2015 17:34 12,2 C 97 % 1027,0 hPa 0,0 l/m 0,0 km/h (0 Bft) S-SO 156 0 min 0,000 mm 0,0 UV-I 0 W/m 11,7 C 12,2 C 0,0 km/h (0 Bft) 100,00 %
08.11.2015 17:35 12,2 C 97 % 1027,0 hPa 0,0 l/m 0,0 km/h (0 Bft) S-SO 156 0 min 0,000 mm 0,0 UV-I 0 W/m 11,7 C 12,2 C 0,0 km/h (0 Bft) 95,65 %
08.11.2015 17:36 12,2 C 97 % 1027,1 hPa 0,0 l/m 0,0 km/h (0 Bft) S-SO 156 0 min 0,000 mm 0,0 UV-I 0 W/m 11,7 C 12,2 C 0,0 km/h (0 Bft) 100,00 %
08.11.2015 17:37 12,2 C 97 % 1027,0 hPa 0,0 l/m 0,0 km/h (0 Bft) S-SO 156 0 min 0,000 mm 0,0 UV-I 0 W/m 11,7 C 12,2 C 0,0 km/h (0 Bft) 86,96 %
08.11.2015 17:38 12,2 C 97 % 1027,1 hPa 0,0 l/m 0,0 km/h (0 Bft) S-SO 156 0 min 0,000 mm 0,0 UV-I 0 W/m 11,7 C 12,2 C 0,0 km/h (0 Bft) 95,83 %
08.11.2015 17:39 12,2 C 97 % 1027,1 hPa 0,0 l/m 0,0 km/h (0 Bft) S-SO 156 0 min 0,000 mm 0,0 UV-I 0 W/m 11,7 C 12,2 C 0,0 km/h (0 Bft) 100,00 %
08.11.2015 17:40 12,2 C 97 % 1027,1 hPa 0,0 l/m 0,0 km/h (0 Bft) S-SO 156 0 min 0,000 mm 0,0 UV-I 0 W/m 11,7 C 12,2 C 0,0 km/h (0 Bft) 100,00 %
08.11.2015 17:41 12,2 C 97 % 1027,0 hPa 0,0 l/m 0,0 km/h (0 Bft) S-SO 156 0 min 0,000 mm 0,0 UV-I 0 W/m 11,7 C 12,2 C 0,0 km/h (0 Bft) 100,00 %
08.11.2015 17:42 12,2 C 97 % 1027,0 hPa 0,0 l/m 0,0 km/h (0 Bft) S-SO 156 0 min 0,000 mm 0,0 UV-I 0 W/m 11,7 C 12,2 C 0,0 km/h (0 Bft) 100,00 %
08.11.2015 17:43 12,2 C 97 % 1027,0 hPa 0,0 l/m 0,0 km/h (0 Bft) S-SO 156 0 min 0,000 mm 0,0 UV-I 0 W/m 11,7 C 12,2 C 0,0 km/h (0 Bft) 96,15 %
08.11.2015 17:44 12,2 C 97 % 1027,0 hPa 0,0 l/m 0,0 km/h (0 Bft) S-SO 156 0 min 0,000 mm 0,0 UV-I 0 W/m 11,7 C 12,2 C 0,0 km/h (0 Bft) 100,00 %
08.11.2015 17:45 12,2 C 97 % 1027,0 hPa 0,0 l/m 0,0 km/h (0 Bft) S-SO 156 0 min 0,000 mm 0,0 UV-I 0 W/m 11,7 C 12,2 C 0,0 km/h (0 Bft) 96,15 %
08.11.2015 17:46 12,2 C 97 % 1027,0 hPa 0,0 l/m 0,0 km/h (0 Bft) S-SO 156 0 min 0,000 mm 0,0 UV-I 0 W/m 11,7 C 12,2 C 0,0 km/h (0 Bft) 100,00 %
08.11.2015 17:47 12,1 C 97 % 1027,0 hPa 0,0 l/m 0,0 km/h (0 Bft) S-SO 156 0 min 0,000 mm 0,0 UV-I 0 W/m 11,6 C 12,1 C 0,0 km/h (0 Bft) 100,00 %
08.11.2015 17:48 12,1 C 97 % 1026,9 hPa 0,0 l/m 0,0 km/h (0 Bft) S-SO 156 0 min 0,000 mm 0,0 UV-I 0 W/m 11,6 C 12,1 C 0,0 km/h (0 Bft) 100,00 %
08.11.2015 17:49 12,1 C 97 % 1026,9 hPa 0,0 l/m 0,0 km/h (0 Bft) S-SO 156 0 min 0,000 mm 0,0 UV-I 0 W/m 11,6 C 12,1 C 0,0 km/h (0 Bft) 100,00 %
08.11.2015 17:50 12,1 C 97 % 1026,9 hPa 0,0 l/m 0,0 km/h (0 Bft) S-SO 156 0 min 0,000 mm 0,0 UV-I 0 W/m 11,6 C 12,1 C 0,0 km/h (0 Bft) 95,65 %
08.11.2015 17:51 12,1 C 97 % 1026,9 hPa 0,0 l/m 0,0 km/h (0 Bft) S-SO 156 0 min 0,000 mm 0,0 UV-I 0 W/m 11,6 C 12,1 C 0,0 km/h (0 Bft) 100,00 %
08.11.2015 17:52 12,2 C 97 % 1026,9 hPa 0,0 l/m 0,0 km/h (0 Bft) S-SO 156 0 min 0,000 mm 0,0 UV-I 0 W/m 11,7 C 12,2 C 0,0 km/h (0 Bft) 96,15 %
08.11.2015 17:53 12,2 C 97 % 1026,9 hPa 0,0 l/m 0,0 km/h (0 Bft) S-SO 156 0 min 0,000 mm 0,0 UV-I 0 W/m 11,7 C 12,2 C 0,0 km/h (0 Bft) 100,00 %
08.11.2015 17:54 12,2 C 97 % 1026,8 hPa 0,0 l/m 0,0 km/h (0 Bft) S-SO 156 0 min 0,000 mm 0,0 UV-I 0 W/m 11,7 C 12,2 C 0,0 km/h (0 Bft) 100,00 %
08.11.2015 17:55 12,2 C 97 % 1026,9 hPa 0,0 l/m 0,0 km/h (0 Bft) S-SO 156 0 min 0,000 mm 0,0 UV-I 0 W/m 11,7 C 12,2 C 0,0 km/h (0 Bft) 100,00 %
08.11.2015 17:56 12,2 C 97 % 1026,9 hPa 0,0 l/m 0,0 km/h (0 Bft) S-SO 156 0 min 0,000 mm 0,0 UV-I 0 W/m 11,7 C 12,2 C 0,0 km/h (0 Bft) 100,00 %
08.11.2015 17:57 12,2 C 97 % 1026,9 hPa 0,0 l/m 0,0 km/h (0 Bft) S-SO 156 0 min 0,000 mm 0,0 UV-I 0 W/m 11,7 C 12,2 C 0,0 km/h (0 Bft) 100,00 %
08.11.2015 17:58 12,2 C 97 % 1027,0 hPa 0,0 l/m 0,0 km/h (0 Bft) S-SO 156 0 min 0,000 mm 0,0 UV-I 0 W/m 11,7 C 12,2 C 0,0 km/h (0 Bft) 100,00 %
08.11.2015 17:59 12,1 C 97 % 1026,9 hPa 0,0 l/m 0,0 km/h (0 Bft) S-SO 156 0 min 0,000 mm 0,0 UV-I 0 W/m 11,6 C 12,1 C 0,0 km/h (0 Bft) 100,00 %
08.11.2015 18:00 12,1 C 97 % 1026,9 hPa 0,0 l/m 0,0 km/h (0 Bft) S-SO 156 0 min 0,000 mm 0,0 UV-I 0 W/m 11,6 C 12,1 C 0,0 km/h (0 Bft) 100,00 %
08.11.2015 18:01 12,1 C 97 % 1026,9 hPa 0,0 l/m 0,0 km/h (0 Bft) S-SO 156 0 min 0,000 mm 0,0 UV-I 0 W/m 11,6 C 12,1 C 0,0 km/h (0 Bft) 100,00 %
08.11.2015 18:02 12,1 C 97 % 1026,9 hPa 0,0 l/m 0,0 km/h (0 Bft) S-SO 156 0 min 0,000 mm 0,0 UV-I 0 W/m 11,6 C 12,1 C 0,0 km/h (0 Bft) 100,00 %
08.11.2015 18:03 12,1 C 97 % 1026,9 hPa 0,0 l/m 0,0 km/h (0 Bft) S-SO 156 0 min 0,000 mm 0,0 UV-I 0 W/m 11,6 C 12,1 C 0,0 km/h (0 Bft) 100,00 %
08.11.2015 18:04 12,1 C 97 % 1026,9 hPa 0,0 l/m 0,0 km/h (0 Bft) S-SO 156 0 min 0,000 mm 0,0 UV-I 0 W/m 11,6 C 12,1 C 0,0 km/h (0 Bft) 100,00 %
08.11.2015 18:05 12,0 C 97 % 1027,0 hPa 0,0 l/m 0,0 km/h (0 Bft) S-SO 156 0 min 0,000 mm 0,0 UV-I 0 W/m 11,5 C 12,0 C 0,0 km/h (0 Bft) 100,00 %
08.11.2015 18:06 12,0 C 97 % 1026,9 hPa 0,0 l/m 0,1 km/h (0 Bft) S-SO 156 0 min 0,000 mm 0,0 UV-I 0 W/m 11,5 C 12,0 C 1,6 km/h (1 Bft) 95,83 %
08.11.2015 18:07 11,9 C 97 % 1026,9 hPa 0,0 l/m 0,0 km/h (0 Bft) S-SO 156 0 min 0,000 mm 0,0 UV-I 0 W/m 11,4 C 11,9 C 0,0 km/h (0 Bft) 95,65 %
08.11.2015 18:08 11,8 C 97 % 1026,9 hPa 0,0 l/m 0,0 km/h (0 Bft) S-SO 156 0 min 0,000 mm 0,0 UV-I 0 W/m 11,3 C 11,8 C 0,0 km/h (0 Bft) 100,00 %
08.11.2015 18:09 11,7 C 96 % 1026,9 hPa 0,0 l/m 0,0 km/h (0 Bft) S-SO 156 0 min 0,000 mm 0,0 UV-I 0 W/m 11,1 C 11,7 C 0,0 km/h (0 Bft) 100,00 %
08.11.2015 18:10 11,7 C 97 % 1026,9 hPa 0,0 l/m 0,0 km/h (0 Bft) S-SO 156 0 min 0,000 mm 0,0 UV-I 0 W/m 11,2 C 11,7 C 0,0 km/h (0 Bft) 100,00 %
08.11.2015 18:11 11,6 C 97 % 1026,9 hPa 0,0 l/m 0,0 km/h (0 Bft) S-SO 156 0 min 0,000 mm 0,0 UV-I 0 W/m 11,1 C 11,6 C 0,0 km/h (0 Bft) 100,00 %
08.11.2015 18:12 11,6 C 97 % 1026,9 hPa 0,0 l/m 0,0 km/h (0 Bft) S-SO 156 0 min 0,000 mm 0,0 UV-I 0 W/m 11,1 C 11,6 C 0,0 km/h (0 Bft) 100,00 %
08.11.2015 18:13 11,5 C 97 % 1026,9 hPa 0,0 l/m 0,0 km/h (0 Bft) S-SO 156 0 min 0,000 mm 0,0 UV-I 0 W/m 11,0 C 11,5 C 0,0 km/h (0 Bft) 100,00 %
08.11.2015 18:14 11,4 C 97 % 1026,9 hPa 0,0 l/m 0,0 km/h (0 Bft) S-SO 156 0 min 0,000 mm 0,0 UV-I 0 W/m 10,9 C 11,4 C 0,0 km/h (0 Bft) 100,00 %
08.11.2015 18:15 11,4 C 97 % 1026,9 hPa 0,0 l/m 0,0 km/h (0 Bft) S-SO 156 0 min 0,000 mm 0,0 UV-I 0 W/m 10,9 C 11,4 C 0,0 km/h (0 Bft) 100,00 %
08.11.2015 18:16 11,3 C 97 % 1026,9 hPa 0,0 l/m 0,0 km/h (0 Bft) S-SO 156 0 min 0,000 mm 0,0 UV-I 0 W/m 10,8 C 11,3 C 0,0 km/h (0 Bft) 100,00 %
08.11.2015 18:17 11,3 C 97 % 1026,9 hPa 0,0 l/m 0,0 km/h (0 Bft) S-SO 156 0 min 0,000 mm 0,0 UV-I 0 W/m 10,8 C 11,3 C 0,0 km/h (0 Bft) 100,00 %
08.11.2015 18:18 11,3 C 97 % 1027,0 hPa 0,0 l/m 0,0 km/h (0 Bft) S-SO 156 0 min 0,000 mm 0,0 UV-I 0 W/m 10,8 C 11,3 C 0,0 km/h (0 Bft) 100,00 %
08.11.2015 18:19 11,3 C 97 % 1027,0 hPa 0,0 l/m 0,0 km/h (0 Bft) S-SO 156 0 min 0,000 mm 0,0 UV-I 0 W/m 10,8 C 11,3 C 0,0 km/h (0 Bft) 100,00 %
08.11.2015 18:20 11,3 C 97 % 1026,9 hPa 0,0 l/m 0,0 km/h (0 Bft) S-SO 156 0 min 0,000 mm 0,0 UV-I 0 W/m 10,8 C 11,3 C 0,0 km/h (0 Bft) 100,00 %
08.11.2015 18:21 11,3 C 98 % 1026,9 hPa 0,0 l/m 0,0 km/h (0 Bft) S-SO 156 0 min 0,000 mm 0,0 UV-I 0 W/m 11,0 C 11,3 C 0,0 km/h (0 Bft) 100,00 %
08.11.2015 18:22 11,3 C 98 % 1026,9 hPa 0,0 l/m 0,0 km/h (0 Bft) S-SO 156 0 min 0,000 mm 0,0 UV-I 0 W/m 11,0 C 11,3 C 0,0 km/h (0 Bft) 100,00 %
08.11.2015 18:23 11,4 C 98 % 1026,9 hPa 0,0 l/m 0,0 km/h (0 Bft) S-SO 156 0 min 0,000 mm 0,0 UV-I 0 W/m 11,1 C 11,4 C 0,0 km/h (0 Bft) 100,00 %
08.11.2015 18:24 11,4 C 98 % 1026,9 hPa 0,0 l/m 0,0 km/h (0 Bft) S-SO 156 0 min 0,000 mm 0,0 UV-I 0 W/m 11,1 C 11,4 C 0,0 km/h (0 Bft) 100,00 %
08.11.2015 18:25 11,4 C 98 % 1026,9 hPa 0,0 l/m 0,0 km/h (0 Bft) S-SO 156 0 min 0,000 mm 0,0 UV-I 0 W/m 11,1 C 11,4 C 0,0 km/h (0 Bft) 100,00 %
08.11.2015 18:26 11,4 C 98 % 1026,8 hPa 0,0 l/m 0,0 km/h (0 Bft) S-SO 156 0 min 0,000 mm 0,0 UV-I 0 W/m 11,1 C 11,4 C 0,0 km/h (0 Bft) 100,00 %
08.11.2015 18:27 11,4 C 98 % 1026,8 hPa 0,0 l/m 0,0 km/h (0 Bft) S-SO 156 0 min 0,000 mm 0,0 UV-I 0 W/m 11,1 C 11,4 C 0,0 km/h (0 Bft) 100,00 %
08.11.2015 18:28 11,4 C 98 % 1026,9 hPa 0,0 l/m 0,0 km/h (0 Bft) S-SO 156 0 min 0,000 mm 0,0 UV-I 0 W/m 11,1 C 11,4 C 0,0 km/h (0 Bft) 100,00 %
08.11.2015 18:29 11,4 C 98 % 1026,9 hPa 0,0 l/m 0,0 km/h (0 Bft) S-SO 156 0 min 0,000 mm 0,0 UV-I 0 W/m 11,1 C 11,4 C 0,0 km/h (0 Bft) 100,00 %
08.11.2015 18:30 11,3 C 98 % 1026,9 hPa 0,0 l/m 0,0 km/h (0 Bft) S-SO 156 0 min 0,000 mm 0,0 UV-I 0 W/m 11,0 C 11,3 C 0,0 km/h (0 Bft) 100,00 %
08.11.2015 18:31 11,3 C 98 % 1026,9 hPa 0,0 l/m 0,0 km/h (0 Bft) S-SO 156 0 min 0,000 mm 0,0 UV-I 0 W/m 11,0 C 11,3 C 0,0 km/h (0 Bft) 100,00 %
08.11.2015 18:32 11,3 C 98 % 1026,9 hPa 0,0 l/m 0,0 km/h (0 Bft) S-SO 156 0 min 0,000 mm 0,0 UV-I 0 W/m 11,0 C 11,3 C 0,0 km/h (0 Bft) 100,00 %
08.11.2015 18:33 11,3 C 98 % 1026,9 hPa 0,0 l/m 0,0 km/h (0 Bft) S-SO 156 0 min 0,000 mm 0,0 UV-I 0 W/m 11,0 C 11,3 C 0,0 km/h (0 Bft) 95,83 %
08.11.2015 18:34 11,3 C 98 % 1027,0 hPa 0,0 l/m 0,0 km/h (0 Bft) S-SO 156 0 min 0,000 mm 0,0 UV-I 0 W/m 11,0 C 11,3 C 0,0 km/h (0 Bft) 96,15 %
08.11.2015 18:35 11,3 C 98 % 1027,0 hPa 0,0 l/m 0,0 km/h (0 Bft) S-SO 156 0 min 0,000 mm 0,0 UV-I 0 W/m 11,0 C 11,3 C 0,0 km/h (0 Bft) 50,00 %
08.11.2015 18:36 11,3 C 98 % 1027,0 hPa 0,0 l/m 0,0 km/h (0 Bft) S-SO 156 0 min 0,000 mm 0,0 UV-I 0 W/m 11,0 C 11,3 C 0,0 km/h (0 Bft) 99,09 %
08.11.2015 18:37 11,3 C 98 % 1027,0 hPa 0,0 l/m 0,0 km/h (0 Bft) S-SO 156 0 min 0,000 mm 0,0 UV-I 0 W/m 11,0 C 11,3 C 0,0 km/h (0 Bft) 100,00 %
08.11.2015 18:38 11,3 C 98 % 1026,9 hPa 0,0 l/m 0,0 km/h (0 Bft) S-SO 156 0 min 0,000 mm 0,0 UV-I 0 W/m 11,0 C 11,3 C 0,0 km/h (0 Bft) 100,00 %
08.11.2015 18:39 11,3 C 98 % 1026,9 hPa 0,0 l/m 0,0 km/h (0 Bft) S-SO 156 0 min 0,000 mm 0,0 UV-I 0 W/m 11,0 C 11,3 C 0,0 km/h (0 Bft) 100,00 %
08.11.2015 18:40 11,3 C 98 % 1027,0 hPa 0,0 l/m 0,0 km/h (0 Bft) S-SO 156 0 min 0,000 mm 0,0 UV-I 0 W/m 11,0 C 11,3 C 0,0 km/h (0 Bft) 100,00 %
08.11.2015 18:41 11,3 C 98 % 1026,9 hPa 0,0 l/m 0,0 km/h (0 Bft) S-SO 156 0 min 0,000 mm 0,0 UV-I 0 W/m 11,0 C 11,3 C 0,0 km/h (0 Bft) 100,00 %
08.11.2015 18:42 11,3 C 98 % 1026,9 hPa 0,0 l/m 0,0 km/h (0 Bft) S-SO 156 0 min 0,000 mm 0,0 UV-I 0 W/m 11,0 C 11,3 C 0,0 km/h (0 Bft) 100,00 %
08.11.2015 18:43 11,4 C 98 % 1026,8 hPa 0,0 l/m 0,0 km/h (0 Bft) S-SO 156 0 min 0,000 mm 0,0 UV-I 0 W/m 11,1 C 11,4 C 0,0 km/h (0 Bft) 100,00 %
08.11.2015 18:44 11,3 C 98 % 1026,8 hPa 0,0 l/m 0,0 km/h (0 Bft) S-SO 156 0 min 0,000 mm 0,0 UV-I 0 W/m 11,0 C 11,3 C 0,0 km/h (0 Bft) 95,83 %
08.11.2015 18:45 11,3 C 98 % 1026,8 hPa 0,0 l/m 0,0 km/h (0 Bft) S-SO 156 0 min 0,000 mm 0,0 UV-I 0 W/m 11,0 C 11,3 C 0,0 km/h (0 Bft) 100,00 %
08.11.2015 18:46 11,3 C 98 % 1026,8 hPa 0,0 l/m 0,0 km/h (0 Bft) S-SO 156 0 min 0,000 mm 0,0 UV-I 0 W/m 11,0 C 11,3 C 0,0 km/h (0 Bft) 100,00 %
08.11.2015 18:47 11,2 C 98 % 1026,8 hPa 0,0 l/m 0,0 km/h (0 Bft) S-SO 156 0 min 0,000 mm 0,0 UV-I 0 W/m 10,9 C 11,2 C 0,0 km/h (0 Bft) 95,65 %
08.11.2015 18:48 11,2 C 98 % 1026,8 hPa 0,0 l/m 0,0 km/h (0 Bft) S-SO 156 0 min 0,000 mm 0,0 UV-I 0 W/m 10,9 C 11,2 C 0,0 km/h (0 Bft) 100,00 %
08.11.2015 18:49 11,1 C 98 % 1026,8 hPa 0,0 l/m 0,0 km/h (0 Bft) S-SO 156 0 min 0,000 mm 0,0 UV-I 0 W/m 10,8 C 11,1 C 0,0 km/h (0 Bft) 100,00 %
08.11.2015 18:50 11,1 C 98 % 1026,8 hPa 0,0 l/m 0,0 km/h (0 Bft) S-SO 156 0 min 0,000 mm 0,0 UV-I 0 W/m 10,8 C 11,1 C 0,0 km/h (0 Bft) 100,00 %
08.11.2015 18:51 11,1 C 98 % 1026,8 hPa 0,0 l/m 0,0 km/h (0 Bft) S-SO 156 0 min 0,000 mm 0,0 UV-I 0 W/m 10,8 C 11,1 C 0,0 km/h (0 Bft) 100,00 %
08.11.2015 18:52 11,1 C 98 % 1026,9 hPa 0,0 l/m 0,0 km/h (0 Bft) S-SO 156 0 min 0,000 mm 0,0 UV-I 0 W/m 10,8 C 11,1 C 0,0 km/h (0 Bft) 100,00 %
08.11.2015 18:53 11,0 C 98 % 1026,8 hPa 0,0 l/m 0,0 km/h (0 Bft) S-SO 156 0 min 0,000 mm 0,0 UV-I 0 W/m 10,7 C 11,0 C 0,0 km/h (0 Bft) 100,00 %
08.11.2015 18:54 10,8 C 98 % 1026,8 hPa 0,0 l/m 0,0 km/h (0 Bft) S-SO 156 0 min 0,000 mm 0,0 UV-I 0 W/m 10,5 C 10,8 C 0,0 km/h (0 Bft) 100,00 %
08.11.2015 18:55 10,8 C 98 % 1026,8 hPa 0,0 l/m 0,0 km/h (0 Bft) S-SO 156 0 min 0,000 mm 0,0 UV-I 0 W/m 10,5 C 10,8 C 0,0 km/h (0 Bft) 100,00 %
08.11.2015 18:56 10,8 C 98 % 1026,8 hPa 0,0 l/m 0,0 km/h (0 Bft) S-SO 156 0 min 0,000 mm 0,0 UV-I 0 W/m 10,5 C 10,8 C 0,0 km/h (0 Bft) 100,00 %
08.11.2015 18:57 10,8 C 98 % 1026,9 hPa 0,0 l/m 0,0 km/h (0 Bft) S-SO 156 0 min 0,000 mm 0,0 UV-I 0 W/m 10,5 C 10,8 C 0,0 km/h (0 Bft) 100,00 %
08.11.2015 18:58 10,8 C 98 % 1026,9 hPa 0,0 l/m 0,0 km/h (0 Bft) S-SO 156 0 min 0,000 mm 0,0 UV-I 0 W/m 10,5 C 10,8 C 0,0 km/h (0 Bft) 100,00 %
08.11.2015 18:59 10,9 C 98 % 1026,9 hPa 0,0 l/m 0,0 km/h (0 Bft) S-SO 156 0 min 0,000 mm 0,0 UV-I 0 W/m 10,6 C 10,9 C 0,0 km/h (0 Bft) 100,00 %
08.11.2015 19:00 10,9 C 98 % 1026,9 hPa 0,0 l/m 0,0 km/h (0 Bft) S-SO 156 0 min 0,000 mm 0,0 UV-I 0 W/m 10,6 C 10,9 C 0,0 km/h (0 Bft) 100,00 %
08.11.2015 19:01 10,8 C 98 % 1026,8 hPa 0,0 l/m 0,0 km/h (0 Bft) S-SO 156 0 min 0,000 mm 0,0 UV-I 0 W/m 10,5 C 10,8 C 0,0 km/h (0 Bft) 100,00 %
08.11.2015 19:02 10,7 C 98 % 1026,8 hPa 0,0 l/m 0,0 km/h (0 Bft) S-SO 156 0 min 0,000 mm 0,0 UV-I 0 W/m 10,4 C 10,7 C 0,0 km/h (0 Bft) 100,00 %
08.11.2015 19:03 10,7 C 98 % 1026,8 hPa 0,0 l/m 0,0 km/h (0 Bft) S-SO 156 0 min 0,000 mm 0,0 UV-I 0 W/m 10,4 C 10,7 C 0,0 km/h (0 Bft) 100,00 %
08.11.2015 19:04 10,6 C 98 % 1026,8 hPa 0,0 l/m 0,0 km/h (0 Bft) S-SO 156 0 min 0,000 mm 0,0 UV-I 0 W/m 10,3 C 10,6 C 0,0 km/h (0 Bft) 100,00 %
08.11.2015 19:05 10,6 C 98 % 1026,8 hPa 0,0 l/m 0,0 km/h (0 Bft) S-SO 156 0 min 0,000 mm 0,0 UV-I 0 W/m 10,3 C 10,6 C 0,0 km/h (0 Bft) 100,00 %
08.11.2015 19:06 10,6 C 98 % 1026,8 hPa 0,0 l/m 0,0 km/h (0 Bft) S-SO 156 0 min 0,000 mm 0,0 UV-I 0 W/m 10,3 C 10,6 C 0,0 km/h (0 Bft) 100,00 %
08.11.2015 19:07 10,6 C 98 % 1026,8 hPa 0,0 l/m 0,0 km/h (0 Bft) S-SO 156 0 min 0,000 mm 0,0 UV-I 0 W/m 10,3 C 10,6 C 0,0 km/h (0 Bft) 100,00 %
08.11.2015 19:09 10,5 C 98 % 1026,8 hPa 0,0 l/m 0,0 km/h (0 Bft) S-SO 156 0 min 0,000 mm 0,0 UV-I 0 W/m 10,2 C 10,5 C 0,0 km/h (0 Bft) 100,00 %
08.11.2015 19:10 10,4 C 98 % 1026,8 hPa 0,0 l/m 0,0 km/h (0 Bft) S-SO 156 0 min 0,000 mm 0,0 UV-I 0 W/m 10,1 C 10,4 C 0,0 km/h (0 Bft) 100,00 %
08.11.2015 19:11 10,4 C 98 % 1026,8 hPa 0,0 l/m 0,0 km/h (0 Bft) S-SO 156 0 min 0,000 mm 0,0 UV-I 0 W/m 10,1 C 10,4 C 0,0 km/h (0 Bft) 100,00 %
08.11.2015 19:12 10,5 C 98 % 1026,8 hPa 0,0 l/m 0,0 km/h (0 Bft) S-SO 156 0 min 0,000 mm 0,0 UV-I 0 W/m 10,2 C 10,5 C 0,0 km/h (0 Bft) 100,00 %
08.11.2015 19:13 10,6 C 98 % 1026,7 hPa 0,0 l/m 0,0 km/h (0 Bft) S-SO 156 0 min 0,000 mm 0,0 UV-I 0 W/m 10,3 C 10,6 C 0,0 km/h (0 Bft) 100,00 %
08.11.2015 19:14 10,7 C 98 % 1026,7 hPa 0,0 l/m 0,0 km/h (0 Bft) S-SO 156 0 min 0,000 mm 0,0 UV-I 0 W/m 10,4 C 10,7 C 0,0 km/h (0 Bft) 100,00 %
08.11.2015 19:15 10,7 C 98 % 1026,7 hPa 0,0 l/m 0,0 km/h (0 Bft) S-SO 156 0 min 0,000 mm 0,0 UV-I 0 W/m 10,4 C 10,7 C 0,0 km/h (0 Bft) 95,83 %
08.11.2015 19:16 10,7 C 98 % 1026,7 hPa 0,0 l/m 0,0 km/h (0 Bft) S-SO 156 0 min 0,000 mm 0,0 UV-I 0 W/m 10,4 C 10,7 C 0,0 km/h (0 Bft) 100,00 %
08.11.2015 19:17 10,7 C 98 % 1026,7 hPa 0,0 l/m 0,0 km/h (0 Bft) S-SO 156 0 min 0,000 mm 0,0 UV-I 0 W/m 10,4 C 10,7 C 0,0 km/h (0 Bft) 95,83 %
08.11.2015 19:18 10,7 C 98 % 1026,6 hPa 0,0 l/m 0,0 km/h (0 Bft) S-SO 156 0 min 0,000 mm 0,0 UV-I 0 W/m 10,4 C 10,7 C 0,0 km/h (0 Bft) 100,00 %
08.11.2015 19:19 10,7 C 98 % 1026,7 hPa 0,0 l/m 0,0 km/h (0 Bft) S-SO 156 0 min 0,000 mm 0,0 UV-I 0 W/m 10,4 C 10,7 C 0,0 km/h (0 Bft) 100,00 %
08.11.2015 19:20 10,7 C 98 % 1026,7 hPa 0,0 l/m 0,0 km/h (0 Bft) S-SO 156 0 min 0,000 mm 0,0 UV-I 0 W/m 10,4 C 10,7 C 0,0 km/h (0 Bft) 100,00 %
08.11.2015 19:21 10,7 C 98 % 1026,7 hPa 0,0 l/m 0,0 km/h (0 Bft) S-SO 156 0 min 0,000 mm 0,0 UV-I 0 W/m 10,4 C 10,7 C 0,0 km/h (0 Bft) 95,65 %
08.11.2015 19:22 10,7 C 98 % 1026,7 hPa 0,0 l/m 0,0 km/h (0 Bft) S-SO 156 0 min 0,000 mm 0,0 UV-I 0 W/m 10,4 C 10,7 C 0,0 km/h (0 Bft) 100,00 %
08.11.2015 19:23 10,8 C 98 % 1026,7 hPa 0,0 l/m 0,0 km/h (0 Bft) S-SO 156 0 min 0,000 mm 0,0 UV-I 0 W/m 10,5 C 10,8 C 0,0 km/h (0 Bft) 100,00 %
08.11.2015 19:25 10,8 C 98 % 1026,6 hPa 0,0 l/m 0,0 km/h (0 Bft) N 0 0 min 0,000 mm 0,0 UV-I 0 W/m 10,5 C 10,8 C 0,0 km/h (0 Bft) 100,00 %
08.11.2015 19:31 11,1 C 98 % 1026,6 hPa 0,0 l/m 0,0 km/h (0 Bft) S-SO 156 0 min 0,000 mm 0,0 UV-I 0 W/m 10,8 C 11,1 C 0,0 km/h (0 Bft) 100,00 %
08.11.2015 19:32 11,2 C 98 % 1026,6 hPa 0,0 l/m 0,0 km/h (0 Bft) S-SO 156 0 min 0,000 mm 0,0 UV-I 0 W/m 10,9 C 11,2 C 0,0 km/h (0 Bft) 97,87 %
08.11.2015 19:33 11,1 C 98 % 1026,6 hPa 0,0 l/m 0,0 km/h (0 Bft) S-SO 156 0 min 0,000 mm 0,0 UV-I 0 W/m 10,8 C 11,1 C 0,0 km/h (0 Bft) 100,00 %
08.11.2015 19:34 11,1 C 98 % 1026,6 hPa 0,0 l/m 0,0 km/h (0 Bft) S-SO 156 0 min 0,000 mm 0,0 UV-I 0 W/m 10,8 C 11,1 C 0,0 km/h (0 Bft) 95,83 %
08.11.2015 19:35 11,1 C 98 % 1026,6 hPa 0,0 l/m 0,0 km/h (0 Bft) S-SO 156 0 min 0,000 mm 0,0 UV-I 0 W/m 10,8 C 11,1 C 0,0 km/h (0 Bft) 100,00 %
08.11.2015 19:36 11,2 C 98 % 1026,6 hPa 0,0 l/m 0,0 km/h (0 Bft) S-SO 156 0 min 0,000 mm 0,0 UV-I 0 W/m 10,9 C 11,2 C 0,0 km/h (0 Bft) 100,00 %
08.11.2015 19:37 11,1 C 98 % 1026,6 hPa 0,0 l/m 0,0 km/h (0 Bft) S-SO 156 0 min 0,000 mm 0,0 UV-I 0 W/m 10,8 C 11,1 C 0,0 km/h (0 Bft) 100,00 %
08.11.2015 19:38 11,1 C 98 % 1026,6 hPa 0,0 l/m 0,0 km/h (0 Bft) S-SO 156 0 min 0,000 mm 0,0 UV-I 0 W/m 10,8 C 11,1 C 0,0 km/h (0 Bft) 100,00 %
08.11.2015 19:39 10,9 C 98 % 1026,6 hPa 0,0 l/m 0,0 km/h (0 Bft) S-SO 156 0 min 0,000 mm 0,0 UV-I 0 W/m 10,6 C 10,9 C 0,0 km/h (0 Bft) 100,00 %
08.11.2015 19:41 10,9 C 98 % 1026,7 hPa 0,0 l/m 0,0 km/h (0 Bft) S-SO 156 0 min 0,000 mm 0,0 UV-I 0 W/m 10,6 C 10,9 C 0,0 km/h (0 Bft) 100,00 %
08.11.2015 19:42 10,9 C 98 % 1026,7 hPa 0,0 l/m 0,0 km/h (0 Bft) S-SO 156 0 min 0,000 mm 0,0 UV-I 0 W/m 10,6 C 10,9 C 0,0 km/h (0 Bft) 95,83 %
08.11.2015 19:43 10,8 C 98 % 1026,7 hPa 0,0 l/m 0,0 km/h (0 Bft) S-SO 156 0 min 0,000 mm 0,0 UV-I 0 W/m 10,5 C 10,8 C 0,0 km/h (0 Bft) 100,00 %
08.11.2015 19:44 10,7 C 98 % 1026,6 hPa 0,0 l/m 0,0 km/h (0 Bft) S-SO 156 0 min 0,000 mm 0,0 UV-I 0 W/m 10,4 C 10,7 C 0,0 km/h (0 Bft) 100,00 %
08.11.2015 19:45 10,6 C 98 % 1026,7 hPa 0,0 l/m 0,0 km/h (0 Bft) S-SO 156 0 min 0,000 mm 0,0 UV-I 0 W/m 10,3 C 10,6 C 0,0 km/h (0 Bft) 95,65 %
08.11.2015 19:46 10,6 C 98 % 1026,6 hPa 0,0 l/m 0,0 km/h (0 Bft) S-SO 156 0 min 0,000 mm 0,0 UV-I 0 W/m 10,3 C 10,6 C 0,0 km/h (0 Bft) 100,00 %
08.11.2015 19:47 10,6 C 98 % 1026,6 hPa 0,0 l/m 0,0 km/h (0 Bft) S-SO 156 0 min 0,000 mm 0,0 UV-I 0 W/m 10,3 C 10,6 C 0,0 km/h (0 Bft) 100,00 %
08.11.2015 19:48 10,6 C 98 % 1026,7 hPa 0,0 l/m 0,0 km/h (0 Bft) S-SO 156 0 min 0,000 mm 0,0 UV-I 0 W/m 10,3 C 10,6 C 0,0 km/h (0 Bft) 100,00 %
08.11.2015 19:49 10,5 C 98 % 1026,6 hPa 0,0 l/m 0,0 km/h (0 Bft) S-SO 156 0 min 0,000 mm 0,0 UV-I 0 W/m 10,2 C 10,5 C 0,0 km/h (0 Bft) 100,00 %
08.11.2015 19:50 10,4 C 98 % 1026,6 hPa 0,0 l/m 0,0 km/h (0 Bft) S-SO 156 0 min 0,000 mm 0,0 UV-I 0 W/m 10,1 C 10,4 C 0,0 km/h (0 Bft) 100,00 %
08.11.2015 19:51 10,3 C 98 % 1026,5 hPa 0,0 l/m 0,0 km/h (0 Bft) S-SO 156 0 min 0,000 mm 0,0 UV-I 0 W/m 10,0 C 10,3 C 0,0 km/h (0 Bft) 100,00 %
08.11.2015 19:52 10,3 C 98 % 1026,5 hPa 0,0 l/m 0,0 km/h (0 Bft) S-SO 156 0 min 0,000 mm 0,0 UV-I 0 W/m 10,0 C 10,3 C 0,0 km/h (0 Bft) 100,00 %
08.11.2015 19:53 10,3 C 98 % 1026,5 hPa 0,0 l/m 0,0 km/h (0 Bft) S-SO 156 0 min 0,000 mm 0,0 UV-I 0 W/m 10,0 C 10,3 C 0,0 km/h (0 Bft) 100,00 %
08.11.2015 19:54 10,2 C 98 % 1026,5 hPa 0,0 l/m 0,0 km/h (0 Bft) S-SO 156 0 min 0,000 mm 0,0 UV-I 0 W/m 9,9 C 10,2 C 0,0 km/h (0 Bft) 100,00 %
08.11.2015 19:55 10,2 C 98 % 1026,5 hPa 0,0 l/m 0,0 km/h (0 Bft) S-SO 156 0 min 0,000 mm 0,0 UV-I 0 W/m 9,9 C 10,2 C 0,0 km/h (0 Bft) 100,00 %
08.11.2015 19:56 10,1 C 98 % 1026,5 hPa 0,0 l/m 0,0 km/h (0 Bft) S-SO 156 0 min 0,000 mm 0,0 UV-I 0 W/m 9,8 C 10,1 C 0,0 km/h (0 Bft) 100,00 %
08.11.2015 19:57 10,1 C 98 % 1026,5 hPa 0,0 l/m 0,0 km/h (0 Bft) S-SO 156 0 min 0,000 mm 0,0 UV-I 0 W/m 9,8 C 10,1 C 0,0 km/h (0 Bft) 100,00 %
08.11.2015 19:58 10,1 C 98 % 1026,5 hPa 0,0 l/m 0,0 km/h (0 Bft) S-SO 156 0 min 0,000 mm 0,0 UV-I 0 W/m 9,8 C 10,1 C 0,0 km/h (0 Bft) 95,65 %
08.11.2015 19:59 10,1 C 98 % 1026,5 hPa 0,0 l/m 0,0 km/h (0 Bft) S-SO 156 0 min 0,000 mm 0,0 UV-I 0 W/m 9,8 C 10,1 C 0,0 km/h (0 Bft) 100,00 %
08.11.2015 20:00 10,0 C 98 % 1026,5 hPa 0,0 l/m 0,0 km/h (0 Bft) S-SO 156 0 min 0,000 mm 0,0 UV-I 0 W/m 9,7 C 10,0 C 0,0 km/h (0 Bft) 100,00 %
08.11.2015 20:01 10,0 C 98 % 1026,5 hPa 0,0 l/m 0,0 km/h (0 Bft) S-SO 156 0 min 0,000 mm 0,0 UV-I 0 W/m 9,7 C 10,0 C 0,0 km/h (0 Bft) 95,83 %
08.11.2015 20:02 10,1 C 98 % 1026,4 hPa 0,0 l/m 0,0 km/h (0 Bft) S-SO 156 0 min 0,000 mm 0,0 UV-I 0 W/m 9,8 C 10,1 C 0,0 km/h (0 Bft) 100,00 %
08.11.2015 20:03 10,1 C 98 % 1026,5 hPa 0,0 l/m 0,0 km/h (0 Bft) S-SO 156 0 min 0,000 mm 0,0 UV-I 0 W/m 9,8 C 10,1 C 0,0 km/h (0 Bft) 100,00 %
08.11.2015 20:04 10,2 C 98 % 1026,4 hPa 0,0 l/m 0,0 km/h (0 Bft) S-SO 156 0 min 0,000 mm 0,0 UV-I 0 W/m 9,9 C 10,2 C 0,0 km/h (0 Bft) 100,00 %
08.11.2015 20:05 10,1 C 98 % 1026,4 hPa 0,0 l/m 0,0 km/h (0 Bft) S-SO 156 0 min 0,000 mm 0,0 UV-I 0 W/m 9,8 C 10,1 C 0,0 km/h (0 Bft) 95,83 %
08.11.2015 20:06 10,1 C 98 % 1026,4 hPa 0,0 l/m 0,0 km/h (0 Bft) S-SO 156 0 min 0,000 mm 0,0 UV-I 0 W/m 9,8 C 10,1 C 0,0 km/h (0 Bft) 100,00 %
08.11.2015 20:07 10,1 C 98 % 1026,4 hPa 0,0 l/m 0,0 km/h (0 Bft) S-SO 156 0 min 0,000 mm 0,0 UV-I 0 W/m 9,8 C 10,1 C 0,0 km/h (0 Bft) 100,00 %
08.11.2015 20:08 10,0 C 98 % 1026,4 hPa 0,0 l/m 0,0 km/h (0 Bft) S-SO 156 0 min 0,000 mm 0,0 UV-I 0 W/m 9,7 C 10,0 C 0,0 km/h (0 Bft) 95,65 %
08.11.2015 20:09 9,9 C 98 % 1026,3 hPa 0,0 l/m 0,0 km/h (0 Bft) S-SO 156 0 min 0,000 mm 0,0 UV-I 0 W/m 9,6 C 9,9 C 0,0 km/h (0 Bft) 100,00 %
08.11.2015 20:10 9,9 C 98 % 1026,3 hPa 0,0 l/m 0,0 km/h (0 Bft) S-SO 156 0 min 0,000 mm 0,0 UV-I 0 W/m 9,6 C 9,9 C 0,0 km/h (0 Bft) 95,65 %
08.11.2015 20:11 9,9 C 98 % 1026,3 hPa 0,0 l/m 0,0 km/h (0 Bft) S-SO 156 0 min 0,000 mm 0,0 UV-I 0 W/m 9,6 C 9,9 C 0,0 km/h (0 Bft) 100,00 %
08.11.2015 20:12 9,9 C 98 % 1026,3 hPa 0,0 l/m 0,0 km/h (0 Bft) S-SO 156 0 min 0,000 mm 0,0 UV-I 0 W/m 9,6 C 9,9 C 0,0 km/h (0 Bft) 100,00 %
08.11.2015 20:13 9,8 C 98 % 1026,3 hPa 0,0 l/m 0,0 km/h (0 Bft) S-SO 156 0 min 0,000 mm 0,0 UV-I 0 W/m 9,5 C 9,8 C 0,0 km/h (0 Bft) 100,00 %
08.11.2015 20:14 9,8 C 98 % 1026,3 hPa 0,0 l/m 0,0 km/h (0 Bft) S-SO 156 0 min 0,000 mm 0,0 UV-I 0 W/m 9,5 C 9,8 C 0,0 km/h (0 Bft) 100,00 %
08.11.2015 20:15 9,9 C 98 % 1026,3 hPa 0,0 l/m 0,0 km/h (0 Bft) S-SO 156 0 min 0,000 mm 0,0 UV-I 0 W/m 9,6 C 9,9 C 0,0 km/h (0 Bft) 96,15 %
08.11.2015 20:16 10,0 C 98 % 1026,3 hPa 0,0 l/m 0,0 km/h (0 Bft) S-SO 156 0 min 0,000 mm 0,0 UV-I 0 W/m 9,7 C 10,0 C 0,0 km/h (0 Bft) 95,83 %
08.11.2015 20:17 10,1 C 98 % 1026,3 hPa 0,0 l/m 0,0 km/h (0 Bft) S-SO 156 0 min 0,000 mm 0,0 UV-I 0 W/m 9,8 C 10,1 C 0,0 km/h (0 Bft) 95,65 %
08.11.2015 20:18 10,1 C 98 % 1026,3 hPa 0,0 l/m 0,0 km/h (0 Bft) S-SO 156 0 min 0,000 mm 0,0 UV-I 0 W/m 9,8 C 10,1 C 0,0 km/h (0 Bft) 100,00 %
08.11.2015 20:19 10,1 C 98 % 1026,3 hPa 0,0 l/m 0,0 km/h (0 Bft) S-SO 156 0 min 0,000 mm 0,0 UV-I 0 W/m 9,8 C 10,1 C 0,0 km/h (0 Bft) 100,00 %
08.11.2015 20:20 10,0 C 98 % 1026,3 hPa 0,0 l/m 0,0 km/h (0 Bft) S-SO 156 0 min 0,000 mm 0,0 UV-I 0 W/m 9,7 C 10,0 C 0,0 km/h (0 Bft) 100,00 %
08.11.2015 20:21 9,9 C 98 % 1026,3 hPa 0,0 l/m 0,0 km/h (0 Bft) S-SO 156 0 min 0,000 mm 0,0 UV-I 0 W/m 9,6 C 9,9 C 0,0 km/h (0 Bft) 100,00 %
08.11.2015 20:22 9,9 C 98 % 1026,3 hPa 0,0 l/m 0,0 km/h (0 Bft) S-SO 156 0 min 0,000 mm 0,0 UV-I 0 W/m 9,6 C 9,9 C 0,0 km/h (0 Bft) 100,00 %
08.11.2015 20:23 9,9 C 98 % 1026,3 hPa 0,0 l/m 0,0 km/h (0 Bft) S-SO 156 0 min 0,000 mm 0,0 UV-I 0 W/m 9,6 C 9,9 C 0,0 km/h (0 Bft) 95,65 %
08.11.2015 20:24 9,8 C 98 % 1026,3 hPa 0,0 l/m 0,0 km/h (0 Bft) S-SO 156 0 min 0,000 mm 0,0 UV-I 0 W/m 9,5 C 9,8 C 0,0 km/h (0 Bft) 100,00 %
08.11.2015 20:25 9,8 C 98 % 1026,3 hPa 0,0 l/m 0,0 km/h (0 Bft) S-SO 156 0 min 0,000 mm 0,0 UV-I 0 W/m 9,5 C 9,8 C 0,0 km/h (0 Bft) 100,00 %
08.11.2015 20:26 9,7 C 98 % 1026,2 hPa 0,0 l/m 0,0 km/h (0 Bft) S-SO 156 0 min 0,000 mm 0,0 UV-I 0 W/m 9,4 C 9,7 C 0,0 km/h (0 Bft) 100,00 %
08.11.2015 20:27 9,7 C 98 % 1026,3 hPa 0,0 l/m 0,0 km/h (0 Bft) S-SO 156 0 min 0,000 mm 0,0 UV-I 0 W/m 9,4 C 9,7 C 0,0 km/h (0 Bft) 100,00 %
08.11.2015 20:28 9,7 C 98 % 1026,2 hPa 0,0 l/m 0,0 km/h (0 Bft) S-SO 156 0 min 0,000 mm 0,0 UV-I 0 W/m 9,4 C 9,7 C 0,0 km/h (0 Bft) 100,00 %
08.11.2015 20:29 9,6 C 98 % 1026,2 hPa 0,0 l/m 0,0 km/h (0 Bft) S-SO 156 0 min 0,000 mm 0,0 UV-I 0 W/m 9,3 C 9,6 C 0,0 km/h (0 Bft) 100,00 %
08.11.2015 20:30 9,5 C 98 % 1026,2 hPa 0,0 l/m 0,0 km/h (0 Bft) S-SO 156 0 min 0,000 mm 0,0 UV-I 0 W/m 9,2 C 9,5 C 0,0 km/h (0 Bft) 100,00 %
08.11.2015 20:31 9,4 C 98 % 1026,2 hPa 0,0 l/m 0,0 km/h (0 Bft) S-SO 156 0 min 0,000 mm 0,0 UV-I 0 W/m 9,1 C 9,4 C 0,0 km/h (0 Bft) 96,15 %
08.11.2015 20:32 9,4 C 98 % 1026,3 hPa 0,0 l/m 0,0 km/h (0 Bft) S-SO 156 0 min 0,000 mm 0,0 UV-I 0 W/m 9,1 C 9,4 C 0,0 km/h (0 Bft) 95,83 %
08.11.2015 20:33 9,3 C 98 % 1026,2 hPa 0,0 l/m 0,0 km/h (0 Bft) S-SO 156 0 min 0,000 mm 0,0 UV-I 0 W/m 9,0 C 9,3 C 0,0 km/h (0 Bft) 100,00 %
08.11.2015 20:34 9,3 C 98 % 1026,2 hPa 0,0 l/m 0,0 km/h (0 Bft) S-SO 156 0 min 0,000 mm 0,0 UV-I 0 W/m 9,0 C 9,3 C 0,0 km/h (0 Bft) 100,00 %
08.11.2015 20:35 9,3 C 98 % 1026,1 hPa 0,0 l/m 0,0 km/h (0 Bft) S-SO 156 0 min 0,000 mm 0,0 UV-I 0 W/m 9,0 C 9,3 C 0,0 km/h (0 Bft) 100,00 %
08.11.2015 20:36 9,3 C 98 % 1026,1 hPa 0,0 l/m 0,0 km/h (0 Bft) S-SO 156 0 min 0,000 mm 0,0 UV-I 0 W/m 9,0 C 9,3 C 0,0 km/h (0 Bft) 100,00 %
08.11.2015 20:37 9,3 C 98 % 1026,2 hPa 0,0 l/m 0,0 km/h (0 Bft) S-SO 156 0 min 0,000 mm 0,0 UV-I 0 W/m 9,0 C 9,3 C 0,0 km/h (0 Bft) 100,00 %
08.11.2015 20:38 9,3 C 98 % 1026,2 hPa 0,0 l/m 0,0 km/h (0 Bft) S-SO 156 0 min 0,000 mm 0,0 UV-I 0 W/m 9,0 C 9,3 C 0,0 km/h (0 Bft) 100,00 %
08.11.2015 20:39 9,4 C 98 % 1026,1 hPa 0,0 l/m 0,0 km/h (0 Bft) S-SO 156 0 min 0,000 mm 0,0 UV-I 0 W/m 9,1 C 9,4 C 0,0 km/h (0 Bft) 100,00 %
08.11.2015 20:40 9,4 C 98 % 1026,1 hPa 0,0 l/m 0,0 km/h (0 Bft) S-SO 156 0 min 0,000 mm 0,0 UV-I 0 W/m 9,1 C 9,4 C 0,0 km/h (0 Bft) 100,00 %
08.11.2015 20:41 9,4 C 98 % 1026,1 hPa 0,0 l/m 0,0 km/h (0 Bft) S-SO 156 0 min 0,000 mm 0,0 UV-I 0 W/m 9,1 C 9,4 C 0,0 km/h (0 Bft) 100,00 %
08.11.2015 20:42 9,4 C 98 % 1026,1 hPa 0,0 l/m 0,0 km/h (0 Bft) S-SO 156 0 min 0,000 mm 0,0 UV-I 0 W/m 9,1 C 9,4 C 0,0 km/h (0 Bft) 100,00 %
08.11.2015 20:43 9,4 C 98 % 1026,1 hPa 0,0 l/m 0,0 km/h (0 Bft) S-SO 156 0 min 0,000 mm 0,0 UV-I 0 W/m 9,1 C 9,4 C 0,0 km/h (0 Bft) 91,67 %
08.11.2015 20:44 9,4 C 98 % 1026,1 hPa 0,0 l/m 0,0 km/h (0 Bft) S-SO 156 0 min 0,000 mm 0,0 UV-I 0 W/m 9,1 C 9,4 C 0,0 km/h (0 Bft) 100,00 %
08.11.2015 20:45 9,4 C 98 % 1026,1 hPa 0,0 l/m 0,0 km/h (0 Bft) S-SO 156 0 min 0,000 mm 0,0 UV-I 0 W/m 9,1 C 9,4 C 0,0 km/h (0 Bft) 100,00 %
08.11.2015 20:46 9,4 C 98 % 1026,1 hPa 0,0 l/m 0,0 km/h (0 Bft) S-SO 156 0 min 0,000 mm 0,0 UV-I 0 W/m 9,1 C 9,4 C 0,0 km/h (0 Bft) 95,65 %
08.11.2015 20:47 9,5 C 98 % 1026,1 hPa 0,0 l/m 0,0 km/h (0 Bft) S-SO 156 0 min 0,000 mm 0,0 UV-I 0 W/m 9,2 C 9,5 C 0,0 km/h (0 Bft) 95,83 %
08.11.2015 20:48 9,4 C 98 % 1026,1 hPa 0,0 l/m 0,0 km/h (0 Bft) S-SO 156 0 min 0,000 mm 0,0 UV-I 0 W/m 9,1 C 9,4 C 0,0 km/h (0 Bft) 100,00 %
08.11.2015 20:49 9,4 C 98 % 1026,1 hPa 0,0 l/m 0,0 km/h (0 Bft) S-SO 156 0 min 0,000 mm 0,0 UV-I 0 W/m 9,1 C 9,4 C 0,0 km/h (0 Bft) 100,00 %
08.11.2015 20:50 9,4 C 98 % 1026,0 hPa 0,0 l/m 0,0 km/h (0 Bft) S-SO 156 0 min 0,000 mm 0,0 UV-I 0 W/m 9,1 C 9,4 C 0,0 km/h (0 Bft) 95,65 %
08.11.2015 20:51 9,4 C 98 % 1026,0 hPa 0,0 l/m 0,0 km/h (0 Bft) S-SO 156 0 min 0,000 mm 0,0 UV-I 0 W/m 9,1 C 9,4 C 0,0 km/h (0 Bft) 100,00 %
08.11.2015 20:52 9,4 C 98 % 1026,0 hPa 0,0 l/m 0,0 km/h (0 Bft) S-SO 156 0 min 0,000 mm 0,0 UV-I 0 W/m 9,1 C 9,4 C 0,0 km/h (0 Bft) 100,00 %
08.11.2015 20:53 9,4 C 98 % 1026,0 hPa 0,0 l/m 0,0 km/h (0 Bft) S-SO 156 0 min 0,000 mm 0,0 UV-I 0 W/m 9,1 C 9,4 C 0,0 km/h (0 Bft) 95,65 %
08.11.2015 20:54 9,5 C 98 % 1026,0 hPa 0,0 l/m 0,0 km/h (0 Bft) S-SO 156 0 min 0,000 mm 0,0 UV-I 0 W/m 9,2 C 9,5 C 0,0 km/h (0 Bft) 100,00 %
08.11.2015 20:55 9,5 C 98 % 1026,0 hPa 0,0 l/m 0,0 km/h (0 Bft) S-SO 156 0 min 0,000 mm 0,0 UV-I 0 W/m 9,2 C 9,5 C 0,0 km/h (0 Bft) 100,00 %
08.11.2015 20:56 9,5 C 98 % 1026,0 hPa 0,0 l/m 0,0 km/h (0 Bft) S-SO 156 0 min 0,000 mm 0,0 UV-I 0 W/m 9,2 C 9,5 C 0,0 km/h (0 Bft) 100,00 %
08.11.2015 20:57 9,5 C 98 % 1026,0 hPa 0,0 l/m 0,0 km/h (0 Bft) S-SO 156 0 min 0,000 mm 0,0 UV-I 0 W/m 9,2 C 9,5 C 0,0 km/h (0 Bft) 95,65 %
08.11.2015 20:58 9,5 C 98 % 1026,0 hPa 0,0 l/m 0,0 km/h (0 Bft) S-SO 156 0 min 0,000 mm 0,0 UV-I 0 W/m 9,2 C 9,5 C 0,0 km/h (0 Bft) 95,83 %
08.11.2015 20:59 9,5 C 99 % 1026,0 hPa 0,0 l/m 0,0 km/h (0 Bft) S-SO 156 0 min 0,000 mm 0,0 UV-I 0 W/m 9,4 C 9,5 C 0,0 km/h (0 Bft) 100,00 %
08.11.2015 21:00 9,4 C 99 % 1026,0 hPa 0,0 l/m 0,0 km/h (0 Bft) S-SO 156 0 min 0,000 mm 0,0 UV-I 0 W/m 9,3 C 9,4 C 0,0 km/h (0 Bft) 100,00 %
08.11.2015 21:01 9,4 C 99 % 1026,0 hPa 0,0 l/m 0,0 km/h (0 Bft) S-SO 156 0 min 0,000 mm 0,0 UV-I 0 W/m 9,3 C 9,4 C 0,0 km/h (0 Bft) 100,00 %
08.11.2015 21:02 9,4 C 99 % 1026,0 hPa 0,0 l/m 0,0 km/h (0 Bft) S-SO 156 0 min 0,000 mm 0,0 UV-I 0 W/m 9,3 C 9,4 C 0,0 km/h (0 Bft) 100,00 %
08.11.2015 21:03 9,4 C 99 % 1026,0 hPa 0,0 l/m 0,0 km/h (0 Bft) S-SO 156 0 min 0,000 mm 0,0 UV-I 0 W/m 9,3 C 9,4 C 0,0 km/h (0 Bft) 95,65 %
08.11.2015 21:04 9,4 C 99 % 1026,0 hPa 0,0 l/m 0,1 km/h (0 Bft) S-SO 156 0 min 0,000 mm 0,0 UV-I 0 W/m 9,3 C 9,4 C 1,6 km/h (1 Bft) 100,00 %
08.11.2015 21:05 9,4 C 99 % 1026,0 hPa 0,0 l/m 0,9 km/h (0 Bft) S-SO 156 0 min 0,000 mm 0,0 UV-I 0 W/m 9,3 C 9,4 C 1,6 km/h (1 Bft) 92,31 %
08.11.2015 21:06 9,4 C 99 % 1026,0 hPa 0,0 l/m 0,1 km/h (0 Bft) S-SO 156 0 min 0,000 mm 0,0 UV-I 0 W/m 9,3 C 9,4 C 1,6 km/h (1 Bft) 100,00 %
08.11.2015 21:07 9,4 C 99 % 1026,0 hPa 0,0 l/m 0,0 km/h (0 Bft) S-SO 156 0 min 0,000 mm 0,0 UV-I 0 W/m 9,3 C 9,4 C 0,0 km/h (0 Bft) 100,00 %
08.11.2015 21:08 9,4 C 99 % 1026,0 hPa 0,0 l/m 0,0 km/h (0 Bft) S-SO 156 0 min 0,000 mm 0,0 UV-I 0 W/m 9,3 C 9,4 C 0,0 km/h (0 Bft) 100,00 %
08.11.2015 21:09 9,3 C 99 % 1026,1 hPa 0,0 l/m 0,0 km/h (0 Bft) S-SO 156 0 min 0,000 mm 0,0 UV-I 0 W/m 9,2 C 9,3 C 0,0 km/h (0 Bft) 100,00 %
08.11.2015 21:10 9,3 C 98 % 1026,1 hPa 0,0 l/m 0,0 km/h (0 Bft) S-SO 156 0 min 0,000 mm 0,0 UV-I 0 W/m 9,0 C 9,3 C 0,0 km/h (0 Bft) 95,83 %
08.11.2015 21:11 9,3 C 98 % 1026,1 hPa 0,0 l/m 0,0 km/h (0 Bft) S-SO 156 0 min 0,000 mm 0,0 UV-I 0 W/m 9,0 C 9,3 C 0,0 km/h (0 Bft) 100,00 %
08.11.2015 21:12 9,3 C 98 % 1026,0 hPa 0,0 l/m 0,0 km/h (0 Bft) S-SO 156 0 min 0,000 mm 0,0 UV-I 0 W/m 9,0 C 9,3 C 0,0 km/h (0 Bft) 100,00 %
08.11.2015 21:13 9,3 C 99 % 1026,0 hPa 0,0 l/m 0,0 km/h (0 Bft) S-SO 156 0 min 0,000 mm 0,0 UV-I 0 W/m 9,2 C 9,3 C 0,0 km/h (0 Bft) 100,00 %
08.11.2015 21:14 9,4 C 99 % 1026,0 hPa 0,0 l/m 0,0 km/h (0 Bft) S-SO 156 0 min 0,000 mm 0,0 UV-I 0 W/m 9,3 C 9,4 C 0,0 km/h (0 Bft) 100,00 %
08.11.2015 21:15 9,5 C 99 % 1026,0 hPa 0,0 l/m 0,8 km/h (0 Bft) S-SO 156 0 min 0,000 mm 0,0 UV-I 0 W/m 9,4 C 9,5 C 1,6 km/h (1 Bft) 100,00 %
08.11.2015 21:16 9,5 C 99 % 1025,9 hPa 0,0 l/m 0,8 km/h (0 Bft) S-SO 157 0 min 0,000 mm 0,0 UV-I 0 W/m 9,4 C 9,5 C 1,6 km/h (1 Bft) 100,00 %
08.11.2015 21:17 9,5 C 99 % 1025,9 hPa 0,0 l/m 0,7 km/h (0 Bft) S-SO 157 0 min 0,000 mm 0,0 UV-I 0 W/m 9,4 C 9,5 C 1,6 km/h (1 Bft) 95,83 %
08.11.2015 21:18 9,5 C 99 % 1025,9 hPa 0,0 l/m 0,7 km/h (0 Bft) S-SO 157 0 min 0,000 mm 0,0 UV-I 0 W/m 9,4 C 9,5 C 1,6 km/h (1 Bft) 100,00 %
08.11.2015 21:19 9,5 C 99 % 1025,9 hPa 0,0 l/m 0,5 km/h (0 Bft) S-SO 157 0 min 0,000 mm 0,0 UV-I 0 W/m 9,4 C 9,5 C 1,6 km/h (1 Bft) 100,00 %
08.11.2015 21:20 9,5 C 99 % 1025,9 hPa 0,0 l/m 0,8 km/h (0 Bft) S-SO 157 0 min 0,000 mm 0,0 UV-I 0 W/m 9,4 C 9,5 C 1,6 km/h (1 Bft) 100,00 %
08.11.2015 21:21 9,6 C 99 % 1026,0 hPa 0,0 l/m 0,5 km/h (0 Bft) S-SO 157 0 min 0,000 mm 0,0 UV-I 0 W/m 9,5 C 9,6 C 1,6 km/h (1 Bft) 100,00 %
08.11.2015 21:22 9,5 C 98 % 1025,9 hPa 0,0 l/m 0,0 km/h (0 Bft) S-SO 157 0 min 0,000 mm 0,0 UV-I 0 W/m 9,2 C 9,5 C 0,0 km/h (0 Bft) 100,00 %
08.11.2015 21:23 9,5 C 99 % 1025,9 hPa 0,0 l/m 0,0 km/h (0 Bft) S-SO 157 0 min 0,000 mm 0,0 UV-I 0 W/m 9,4 C 9,5 C 0,0 km/h (0 Bft) 100,00 %
08.11.2015 21:24 9,4 C 99 % 1025,9 hPa 0,0 l/m 0,3 km/h (0 Bft) S-SO 157 0 min 0,000 mm 0,0 UV-I 0 W/m 9,3 C 9,4 C 1,6 km/h (1 Bft) 100,00 %
08.11.2015 21:25 9,4 C 99 % 1025,9 hPa 0,0 l/m 0,0 km/h (0 Bft) S-SO 157 0 min 0,000 mm 0,0 UV-I 0 W/m 9,3 C 9,4 C 0,0 km/h (0 Bft) 100,00 %
08.11.2015 21:26 9,5 C 99 % 1025,9 hPa 0,0 l/m 0,1 km/h (0 Bft) S-SO 157 0 min 0,000 mm 0,0 UV-I 0 W/m 9,4 C 9,5 C 1,6 km/h (1 Bft) 100,00 %
08.11.2015 21:27 9,5 C 99 % 1025,9 hPa 0,0 l/m 0,0 km/h (0 Bft) S-SO 157 0 min 0,000 mm 0,0 UV-I 0 W/m 9,4 C 9,5 C 0,0 km/h (0 Bft) 100,00 %
08.11.2015 21:28 9,5 C 99 % 1025,9 hPa 0,0 l/m 0,0 km/h (0 Bft) S-SO 157 0 min 0,000 mm 0,0 UV-I 0 W/m 9,4 C 9,5 C 0,0 km/h (0 Bft) 100,00 %
08.11.2015 21:29 9,5 C 99 % 1025,9 hPa 0,0 l/m 0,0 km/h (0 Bft) S-SO 157 0 min 0,000 mm 0,0 UV-I 0 W/m 9,4 C 9,5 C 0,0 km/h (0 Bft) 100,00 %
08.11.2015 21:30 9,5 C 99 % 1025,8 hPa 0,0 l/m 0,0 km/h (0 Bft) S-SO 157 0 min 0,000 mm 0,0 UV-I 0 W/m 9,4 C 9,5 C 0,0 km/h (0 Bft) 95,83 %
08.11.2015 21:31 9,6 C 99 % 1025,8 hPa 0,0 l/m 0,0 km/h (0 Bft) S-SO 157 0 min 0,000 mm 0,0 UV-I 0 W/m 9,5 C 9,6 C 0,0 km/h (0 Bft) 100,00 %
08.11.2015 21:32 9,6 C 99 % 1025,8 hPa 0,0 l/m 0,0 km/h (0 Bft) S-SO 157 0 min 0,000 mm 0,0 UV-I 0 W/m 9,5 C 9,6 C 0,0 km/h (0 Bft) 100,00 %
08.11.2015 21:33 9,6 C 99 % 1025,8 hPa 0,0 l/m 0,0 km/h (0 Bft) S-SO 157 0 min 0,000 mm 0,0 UV-I 0 W/m 9,5 C 9,6 C 0,0 km/h (0 Bft) 95,65 %
08.11.2015 21:34 9,6 C 99 % 1025,8 hPa 0,0 l/m 0,0 km/h (0 Bft) S-SO 157 0 min 0,000 mm 0,0 UV-I 0 W/m 9,5 C 9,6 C 0,0 km/h (0 Bft) 100,00 %
08.11.2015 21:35 9,6 C 98 % 1025,8 hPa 0,0 l/m 0,1 km/h (0 Bft) S-SO 163 0 min 0,000 mm 0,0 UV-I 0 W/m 9,3 C 9,6 C 1,6 km/h (1 Bft) 100,00 %
08.11.2015 21:36 9,7 C 98 % 1025,8 hPa 0,0 l/m 0,3 km/h (0 Bft) S-SO 163 0 min 0,000 mm 0,0 UV-I 0 W/m 9,4 C 9,7 C 1,6 km/h (1 Bft) 95,83 %
08.11.2015 21:37 9,7 C 98 % 1025,8 hPa 0,0 l/m 0,1 km/h (0 Bft) S-SO 163 0 min 0,000 mm 0,0 UV-I 0 W/m 9,4 C 9,7 C 1,6 km/h (1 Bft) 100,00 %
08.11.2015 21:38 9,6 C 98 % 1025,8 hPa 0,0 l/m 0,4 km/h (0 Bft) S-SO 167 0 min 0,000 mm 0,0 UV-I 0 W/m 9,3 C 9,6 C 1,6 km/h (1 Bft) 100,00 %
08.11.2015 21:39 9,6 C 98 % 1025,9 hPa 0,0 l/m 1,3 km/h (1 Bft) S-SW 209 0 min 0,000 mm 0,0 UV-I 0 W/m 9,3 C 9,6 C 3,2 km/h (1 Bft) 100,00 %
08.11.2015 21:40 9,7 C 98 % 1025,9 hPa 0,0 l/m 1,3 km/h (1 Bft) S-SW 209 0 min 0,000 mm 0,0 UV-I 0 W/m 9,4 C 9,7 C 3,2 km/h (1 Bft) 100,00 %
08.11.2015 21:41 9,7 C 98 % 1025,9 hPa 0,0 l/m 0,9 km/h (0 Bft) S-SW 209 0 min 0,000 mm 0,0 UV-I 0 W/m 9,4 C 9,7 C 1,6 km/h (1 Bft) 100,00 %
08.11.2015 21:42 9,7 C 98 % 1025,8 hPa 0,0 l/m 1,4 km/h (1 Bft) S-SW 209 0 min 0,000 mm 0,0 UV-I 0 W/m 9,4 C 9,7 C 3,2 km/h (1 Bft) 100,00 %
08.11.2015 21:43 9,7 C 98 % 1025,9 hPa 0,0 l/m 1,3 km/h (1 Bft) S-SW 209 0 min 0,000 mm 0,0 UV-I 0 W/m 9,4 C 9,7 C 3,2 km/h (1 Bft) 100,00 %
08.11.2015 21:44 9,7 C 98 % 1025,8 hPa 0,0 l/m 1,4 km/h (1 Bft) S-SW 209 0 min 0,000 mm 0,0 UV-I 0 W/m 9,4 C 9,7 C 1,6 km/h (1 Bft) 100,00 %
08.11.2015 21:45 9,7 C 98 % 1025,8 hPa 0,0 l/m 1,1 km/h (1 Bft) S-SW 209 0 min 0,000 mm 0,0 UV-I 0 W/m 9,4 C 9,7 C 1,6 km/h (1 Bft) 96,15 %
08.11.2015 21:46 9,7 C 98 % 1025,8 hPa 0,0 l/m 0,8 km/h (0 Bft) S-SW 209 0 min 0,000 mm 0,0 UV-I 0 W/m 9,4 C 9,7 C 1,6 km/h (1 Bft) 100,00 %
08.11.2015 21:47 9,6 C 98 % 1025,8 hPa 0,0 l/m 0,3 km/h (0 Bft) S-SW 209 0 min 0,000 mm 0,0 UV-I 0 W/m 9,3 C 9,6 C 1,6 km/h (1 Bft) 100,00 %
08.11.2015 21:48 9,6 C 98 % 1025,8 hPa 0,0 l/m 0,1 km/h (0 Bft) S-SW 209 0 min 0,000 mm 0,0 UV-I 0 W/m 9,3 C 9,6 C 1,6 km/h (1 Bft) 100,00 %
08.11.2015 21:49 9,6 C 98 % 1025,9 hPa 0,0 l/m 0,1 km/h (0 Bft) S-SW 209 0 min 0,000 mm 0,0 UV-I 0 W/m 9,3 C 9,6 C 1,6 km/h (1 Bft) 100,00 %
08.11.2015 21:50 9,6 C 99 % 1025,8 hPa 0,0 l/m 1,0 km/h (0 Bft) S-SW 209 0 min 0,000 mm 0,0 UV-I 0 W/m 9,5 C 9,6 C 3,2 km/h (1 Bft) 100,00 %
08.11.2015 21:51 9,6 C 99 % 1025,8 hPa 0,0 l/m 0,1 km/h (0 Bft) S-SW 209 0 min 0,000 mm 0,0 UV-I 0 W/m 9,5 C 9,6 C 1,6 km/h (1 Bft) 100,00 %
08.11.2015 21:52 9,6 C 99 % 1025,8 hPa 0,0 l/m 1,1 km/h (1 Bft) S-SW 209 0 min 0,000 mm 0,0 UV-I 0 W/m 9,5 C 9,6 C 1,6 km/h (1 Bft) 100,00 %
08.11.2015 21:53 9,6 C 99 % 1025,8 hPa 0,0 l/m 3,0 km/h (1 Bft) SW 232 0 min 0,000 mm 0,0 UV-I 0 W/m 9,5 C 9,6 C 3,2 km/h (1 Bft) 100,00 %
08.11.2015 21:54 9,6 C 99 % 1025,8 hPa 0,0 l/m 2,8 km/h (1 Bft) SW 227 0 min 0,000 mm 0,0 UV-I 0 W/m 9,5 C 9,6 C 4,8 km/h (1 Bft) 100,00 %
08.11.2015 21:55 9,7 C 99 % 1025,8 hPa 0,0 l/m 2,7 km/h (1 Bft) W-SW 242 0 min 0,000 mm 0,0 UV-I 0 W/m 9,6 C 9,7 C 4,8 km/h (1 Bft) 100,00 %
08.11.2015 21:56 9,7 C 98 % 1025,9 hPa 0,0 l/m 2,8 km/h (1 Bft) SW 215 0 min 0,000 mm 0,0 UV-I 0 W/m 9,4 C 9,7 C 4,8 km/h (1 Bft) 100,00 %
08.11.2015 21:57 9,7 C 98 % 1025,9 hPa 0,0 l/m 2,5 km/h (1 Bft) SW 226 0 min 0,000 mm 0,0 UV-I 0 W/m 9,4 C 9,7 C 3,2 km/h (1 Bft) 100,00 %
08.11.2015 21:58 9,7 C 98 % 1025,8 hPa 0,0 l/m 1,1 km/h (1 Bft) SW 226 0 min 0,000 mm 0,0 UV-I 0 W/m 9,4 C 9,7 C 3,2 km/h (1 Bft) 96,15 %
08.11.2015 21:59 9,7 C 98 % 1025,8 hPa 0,0 l/m 1,7 km/h (1 Bft) S-SW 213 0 min 0,000 mm 0,0 UV-I 0 W/m 9,4 C 9,7 C 3,2 km/h (1 Bft) 100,00 %
08.11.2015 22:00 9,7 C 98 % 1025,8 hPa 0,0 l/m 2,3 km/h (1 Bft) S-SW 213 0 min 0,000 mm 0,0 UV-I 0 W/m 9,4 C 9,7 C 3,2 km/h (1 Bft) 100,00 %
08.11.2015 22:01 9,7 C 98 % 1025,8 hPa 0,0 l/m 1,3 km/h (1 Bft) S-SW 213 0 min 0,000 mm 0,0 UV-I 0 W/m 9,4 C 9,7 C 3,2 km/h (1 Bft) 100,00 %
08.11.2015 22:02 9,7 C 98 % 1025,8 hPa 0,0 l/m 0,1 km/h (0 Bft) S-SW 213 0 min 0,000 mm 0,0 UV-I 0 W/m 9,4 C 9,7 C 1,6 km/h (1 Bft) 100,00 %
08.11.2015 22:03 9,7 C 99 % 1025,7 hPa 0,0 l/m 0,9 km/h (0 Bft) S-SW 213 0 min 0,000 mm 0,0 UV-I 0 W/m 9,6 C 9,7 C 1,6 km/h (1 Bft) 100,00 %
08.11.2015 22:04 9,7 C 99 % 1025,8 hPa 0,0 l/m 0,9 km/h (0 Bft) S-SW 213 0 min 0,000 mm 0,0 UV-I 0 W/m 9,6 C 9,7 C 1,6 km/h (1 Bft) 94,29 %
08.11.2015 22:05 9,7 C 99 % 1025,8 hPa 0,0 l/m 2,0 km/h (1 Bft) SW 229 0 min 0,000 mm 0,0 UV-I 0 W/m 9,6 C 9,7 C 3,2 km/h (1 Bft) 100,00 %
08.11.2015 22:06 9,7 C 98 % 1025,8 hPa 0,0 l/m 1,9 km/h (1 Bft) S-SW 213 0 min 0,000 mm 0,0 UV-I 0 W/m 9,4 C 9,7 C 3,2 km/h (1 Bft) 95,83 %
08.11.2015 22:07 9,7 C 99 % 1025,8 hPa 0,0 l/m 1,5 km/h (1 Bft) SW 215 0 min 0,000 mm 0,0 UV-I 0 W/m 9,6 C 9,7 C 4,8 km/h (1 Bft) 100,00 %
08.11.2015 22:08 9,7 C 98 % 1025,8 hPa 0,0 l/m 1,4 km/h (1 Bft) SW 215 0 min 0,000 mm 0,0 UV-I 0 W/m 9,4 C 9,7 C 1,6 km/h (1 Bft) 100,00 %
08.11.2015 22:09 9,7 C 98 % 1025,8 hPa 0,0 l/m 1,9 km/h (1 Bft) SW 215 0 min 0,000 mm 0,0 UV-I 0 W/m 9,4 C 9,7 C 3,2 km/h (1 Bft) 100,00 %
08.11.2015 22:10 9,7 C 98 % 1025,8 hPa 0,0 l/m 1,4 km/h (1 Bft) SW 215 0 min 0,000 mm 0,0 UV-I 0 W/m 9,4 C 9,7 C 3,2 km/h (1 Bft) 100,00 %
08.11.2015 22:11 9,7 C 98 % 1025,8 hPa 0,0 l/m 1,9 km/h (1 Bft) SW 215 0 min 0,000 mm 0,0 UV-I 0 W/m 9,4 C 9,7 C 3,2 km/h (1 Bft) 95,83 %
08.11.2015 22:12 9,8 C 98 % 1025,8 hPa 0,0 l/m 0,9 km/h (0 Bft) SW 215 0 min 0,000 mm 0,0 UV-I 0 W/m 9,5 C 9,8 C 1,6 km/h (1 Bft) 100,00 %
08.11.2015 22:13 9,8 C 98 % 1025,8 hPa 0,0 l/m 0,3 km/h (0 Bft) SW 215 0 min 0,000 mm 0,0 UV-I 0 W/m 9,5 C 9,8 C 1,6 km/h (1 Bft) 100,00 %
08.11.2015 22:14 9,8 C 99 % 1025,7 hPa 0,0 l/m 0,4 km/h (0 Bft) SW 215 0 min 0,000 mm 0,0 UV-I 0 W/m 9,7 C 9,8 C 1,6 km/h (1 Bft) 100,00 %
08.11.2015 22:15 9,8 C 98 % 1025,7 hPa 0,0 l/m 0,4 km/h (0 Bft) SW 215 0 min 0,000 mm 0,0 UV-I 0 W/m 9,5 C 9,8 C 1,6 km/h (1 Bft) 100,00 %
08.11.2015 22:16 9,8 C 99 % 1025,7 hPa 0,0 l/m 0,4 km/h (0 Bft) SW 215 0 min 0,000 mm 0,0 UV-I 0 W/m 9,7 C 9,8 C 1,6 km/h (1 Bft) 100,00 %
08.11.2015 22:17 9,8 C 99 % 1025,7 hPa 0,0 l/m 1,2 km/h (1 Bft) SW 215 0 min 0,000 mm 0,0 UV-I 0 W/m 9,7 C 9,8 C 1,6 km/h (1 Bft) 95,65 %
08.11.2015 22:18 9,8 C 99 % 1025,7 hPa 0,0 l/m 0,8 km/h (0 Bft) SW 215 0 min 0,000 mm 0,0 UV-I 0 W/m 9,7 C 9,8 C 1,6 km/h (1 Bft) 100,00 %
08.11.2015 22:19 9,8 C 99 % 1025,7 hPa 0,0 l/m 0,9 km/h (0 Bft) SW 215 0 min 0,000 mm 0,0 UV-I 0 W/m 9,7 C 9,8 C 1,6 km/h (1 Bft) 100,00 %
08.11.2015 22:20 9,8 C 99 % 1025,7 hPa 0,0 l/m 0,1 km/h (0 Bft) SW 215 0 min 0,000 mm 0,0 UV-I 0 W/m 9,7 C 9,8 C 1,6 km/h (1 Bft) 100,00 %
08.11.2015 22:21 9,8 C 99 % 1025,7 hPa 0,0 l/m 0,9 km/h (0 Bft) SW 215 0 min 0,000 mm 0,0 UV-I 0 W/m 9,7 C 9,8 C 1,6 km/h (1 Bft) 100,00 %
08.11.2015 22:22 9,9 C 99 % 1025,7 hPa 0,0 l/m 0,5 km/h (0 Bft) SW 215 0 min 0,000 mm 0,0 UV-I 0 W/m 9,8 C 9,9 C 1,6 km/h (1 Bft) 100,00 %
08.11.2015 22:23 9,9 C 99 % 1025,7 hPa 0,0 l/m 0,0 km/h (0 Bft) SW 215 0 min 0,000 mm 0,0 UV-I 0 W/m 9,8 C 9,9 C 0,0 km/h (0 Bft) 95,65 %
08.11.2015 22:24 9,9 C 99 % 1025,7 hPa 0,0 l/m 0,0 km/h (0 Bft) SW 215 0 min 0,000 mm 0,0 UV-I 0 W/m 9,8 C 9,9 C 0,0 km/h (0 Bft) 100,00 %
08.11.2015 22:25 9,9 C 99 % 1025,7 hPa 0,0 l/m 0,0 km/h (0 Bft) SW 215 0 min 0,000 mm 0,0 UV-I 0 W/m 9,8 C 9,9 C 0,0 km/h (0 Bft) 95,65 %
08.11.2015 22:26 9,9 C 99 % 1025,7 hPa 0,0 l/m 0,8 km/h (0 Bft) SW 215 0 min 0,000 mm 0,0 UV-I 0 W/m 9,8 C 9,9 C 1,6 km/h (1 Bft) 100,00 %
08.11.2015 22:27 9,9 C 99 % 1025,7 hPa 0,0 l/m 0,1 km/h (0 Bft) SW 215 0 min 0,000 mm 0,0 UV-I 0 W/m 9,8 C 9,9 C 1,6 km/h (1 Bft) 100,00 %
08.11.2015 22:28 9,9 C 99 % 1025,7 hPa 0,0 l/m 0,1 km/h (0 Bft) SW 215 0 min 0,000 mm 0,0 UV-I 0 W/m 9,8 C 9,9 C 1,6 km/h (1 Bft) 100,00 %
08.11.2015 22:29 10,0 C 99 % 1025,7 hPa 0,0 l/m 0,1 km/h (0 Bft) SW 215 0 min 0,000 mm 0,0 UV-I 0 W/m 9,8 C 10,0 C 1,6 km/h (1 Bft) 95,65 %
08.11.2015 22:30 10,0 C 99 % 1025,7 hPa 0,0 l/m 0,5 km/h (0 Bft) SW 215 0 min 0,000 mm 0,0 UV-I 0 W/m 9,8 C 10,0 C 1,6 km/h (1 Bft) 100,00 %
08.11.2015 22:31 10,0 C 99 % 1025,7 hPa 0,0 l/m 0,1 km/h (0 Bft) SW 215 0 min 0,000 mm 0,0 UV-I 0 W/m 9,8 C 10,0 C 1,6 km/h (1 Bft) 95,83 %
08.11.2015 22:32 10,1 C 99 % 1025,7 hPa 0,0 l/m 0,0 km/h (0 Bft) SW 215 0 min 0,000 mm 0,0 UV-I 0 W/m 9,9 C 10,1 C 0,0 km/h (0 Bft) 100,00 %
08.11.2015 22:33 10,1 C 99 % 1025,7 hPa 0,0 l/m 0,0 km/h (0 Bft) SW 215 0 min 0,000 mm 0,0 UV-I 0 W/m 9,9 C 10,1 C 0,0 km/h (0 Bft) 100,00 %
08.11.2015 22:34 10,1 C 99 % 1025,7 hPa 0,0 l/m 0,0 km/h (0 Bft) SW 215 0 min 0,000 mm 0,0 UV-I 0 W/m 9,9 C 10,1 C 0,0 km/h (0 Bft) 96,15 %
08.11.2015 22:35 10,1 C 99 % 1025,7 hPa 0,0 l/m 0,0 km/h (0 Bft) SW 215 0 min 0,000 mm 0,0 UV-I 0 W/m 9,9 C 10,1 C 0,0 km/h (0 Bft) 100,00 %
08.11.2015 22:36 10,1 C 99 % 1025,7 hPa 0,0 l/m 0,0 km/h (0 Bft) SW 215 0 min 0,000 mm 0,0 UV-I 0 W/m 9,9 C 10,1 C 0,0 km/h (0 Bft) 100,00 %
08.11.2015 22:37 10,1 C 99 % 1025,7 hPa 0,0 l/m 0,0 km/h (0 Bft) SW 215 0 min 0,000 mm 0,0 UV-I 0 W/m 9,9 C 10,1 C 0,0 km/h (0 Bft) 100,00 %
08.11.2015 22:38 10,1 C 99 % 1025,7 hPa 0,0 l/m 0,7 km/h (0 Bft) SW 215 0 min 0,000 mm 0,0 UV-I 0 W/m 9,9 C 10,1 C 1,6 km/h (1 Bft) 100,00 %
08.11.2015 22:39 10,1 C 99 % 1025,6 hPa 0,0 l/m 1,0 km/h (0 Bft) SW 215 0 min 0,000 mm 0,0 UV-I 0 W/m 9,9 C 10,1 C 1,6 km/h (1 Bft) 100,00 %
08.11.2015 22:40 10,1 C 99 % 1025,7 hPa 0,0 l/m 0,2 km/h (0 Bft) SW 215 0 min 0,000 mm 0,0 UV-I 0 W/m 9,9 C 10,1 C 1,6 km/h (1 Bft) 100,00 %
08.11.2015 22:41 10,1 C 99 % 1025,6 hPa 0,0 l/m 0,0 km/h (0 Bft) SW 215 0 min 0,000 mm 0,0 UV-I 0 W/m 9,9 C 10,1 C 0,0 km/h (0 Bft) 100,00 %
08.11.2015 22:42 10,1 C 99 % 1025,6 hPa 0,0 l/m 0,0 km/h (0 Bft) SW 215 0 min 0,000 mm 0,0 UV-I 0 W/m 9,9 C 10,1 C 0,0 km/h (0 Bft) 100,00 %
08.11.2015 22:43 10,1 C 99 % 1025,6 hPa 0,0 l/m 0,2 km/h (0 Bft) SW 215 0 min 0,000 mm 0,0 UV-I 0 W/m 9,9 C 10,1 C 1,6 km/h (1 Bft) 100,00 %
08.11.2015 22:44 10,1 C 99 % 1025,6 hPa 0,0 l/m 0,9 km/h (0 Bft) SW 215 0 min 0,000 mm 0,0 UV-I 0 W/m 9,9 C 10,1 C 1,6 km/h (1 Bft) 100,00 %
08.11.2015 22:45 10,1 C 99 % 1025,6 hPa 0,0 l/m 1,2 km/h (1 Bft) SW 215 0 min 0,000 mm 0,0 UV-I 0 W/m 9,9 C 10,1 C 1,6 km/h (1 Bft) 100,00 %
08.11.2015 22:46 10,1 C 99 % 1025,5 hPa 0,0 l/m 1,0 km/h (0 Bft) SW 215 0 min 0,000 mm 0,0 UV-I 0 W/m 9,9 C 10,1 C 1,6 km/h (1 Bft) 100,00 %
08.11.2015 22:47 10,1 C 99 % 1025,6 hPa 0,0 l/m 0,7 km/h (0 Bft) SW 215 0 min 0,000 mm 0,0 UV-I 0 W/m 9,9 C 10,1 C 1,6 km/h (1 Bft) 97,37 %
08.11.2015 22:48 10,1 C 99 % 1025,5 hPa 0,0 l/m 1,0 km/h (0 Bft) S-SW 204 0 min 0,000 mm 0,0 UV-I 0 W/m 9,9 C 10,1 C 3,2 km/h (1 Bft) 100,00 %
08.11.2015 22:49 10,2 C 99 % 1025,5 hPa 0,0 l/m 0,1 km/h (0 Bft) S-SW 204 0 min 0,000 mm 0,0 UV-I 0 W/m 10,0 C 10,2 C 1,6 km/h (1 Bft) 100,00 %
08.11.2015 22:50 10,2 C 99 % 1025,5 hPa 0,0 l/m 0,0 km/h (0 Bft) S-SW 204 0 min 0,000 mm 0,0 UV-I 0 W/m 10,0 C 10,2 C 0,0 km/h (0 Bft) 100,00 %
08.11.2015 22:51 10,2 C 99 % 1025,5 hPa 0,0 l/m 0,0 km/h (0 Bft) S-SW 204 0 min 0,000 mm 0,0 UV-I 0 W/m 10,0 C 10,2 C 0,0 km/h (0 Bft) 100,00 %
08.11.2015 22:52 10,2 C 99 % 1025,5 hPa 0,0 l/m 0,0 km/h (0 Bft) S-SW 204 0 min 0,000 mm 0,0 UV-I 0 W/m 10,0 C 10,2 C 0,0 km/h (0 Bft) 100,00 %
08.11.2015 22:53 10,2 C 99 % 1025,5 hPa 0,0 l/m 0,0 km/h (0 Bft) S-SW 204 0 min 0,000 mm 0,0 UV-I 0 W/m 10,0 C 10,2 C 0,0 km/h (0 Bft) 100,00 %
08.11.2015 22:54 10,2 C 99 % 1025,5 hPa 0,0 l/m 0,0 km/h (0 Bft) S-SW 204 0 min 0,000 mm 0,0 UV-I 0 W/m 10,0 C 10,2 C 0,0 km/h (0 Bft) 100,00 %
08.11.2015 22:55 10,2 C 99 % 1025,5 hPa 0,0 l/m 0,0 km/h (0 Bft) S-SW 204 0 min 0,000 mm 0,0 UV-I 0 W/m 10,0 C 10,2 C 0,0 km/h (0 Bft) 100,00 %
08.11.2015 22:56 10,2 C 99 % 1025,5 hPa 0,0 l/m 0,0 km/h (0 Bft) S-SW 204 0 min 0,000 mm 0,0 UV-I 0 W/m 10,0 C 10,2 C 0,0 km/h (0 Bft) 100,00 %
08.11.2015 22:57 10,2 C 99 % 1025,5 hPa 0,0 l/m 0,0 km/h (0 Bft) S-SW 204 0 min 0,000 mm 0,0 UV-I 0 W/m 10,0 C 10,2 C 0,0 km/h (0 Bft) 100,00 %
08.11.2015 22:58 10,3 C 99 % 1025,5 hPa 0,0 l/m 0,0 km/h (0 Bft) S-SW 204 0 min 0,000 mm 0,0 UV-I 0 W/m 10,1 C 10,3 C 0,0 km/h (0 Bft) 100,00 %
08.11.2015 22:59 10,3 C 99 % 1025,5 hPa 0,0 l/m 0,0 km/h (0 Bft) S-SW 204 0 min 0,000 mm 0,0 UV-I 0 W/m 10,1 C 10,3 C 0,0 km/h (0 Bft) 100,00 %
08.11.2015 23:00 10,3 C 99 % 1025,4 hPa 0,0 l/m 0,1 km/h (0 Bft) S-SW 204 0 min 0,000 mm 0,0 UV-I 0 W/m 10,1 C 10,3 C 1,6 km/h (1 Bft) 100,00 %
08.11.2015 23:01 10,3 C 99 % 1025,4 hPa 0,0 l/m 1,0 km/h (0 Bft) S-SW 204 0 min 0,000 mm 0,0 UV-I 0 W/m 10,1 C 10,3 C 3,2 km/h (1 Bft) 96,15 %
08.11.2015 23:02 10,3 C 99 % 1025,4 hPa 0,0 l/m 0,3 km/h (0 Bft) S-SW 204 0 min 0,000 mm 0,0 UV-I 0 W/m 10,1 C 10,3 C 1,6 km/h (1 Bft) 100,00 %
08.11.2015 23:03 10,3 C 99 % 1025,4 hPa 0,0 l/m 0,1 km/h (0 Bft) S-SW 204 0 min 0,000 mm 0,0 UV-I 0 W/m 10,1 C 10,3 C 1,6 km/h (1 Bft) 100,00 %
08.11.2015 23:04 10,3 C 99 % 1025,4 hPa 0,0 l/m 0,5 km/h (0 Bft) S-SW 204 0 min 0,000 mm 0,0 UV-I 0 W/m 10,1 C 10,3 C 1,6 km/h (1 Bft) 100,00 %
08.11.2015 23:05 10,3 C 99 % 1025,4 hPa 0,0 l/m 1,0 km/h (0 Bft) S-SW 204 0 min 0,000 mm 0,0 UV-I 0 W/m 10,1 C 10,3 C 1,6 km/h (1 Bft) 96,15 %
08.11.2015 23:06 10,3 C 99 % 1025,4 hPa 0,0 l/m 1,1 km/h (1 Bft) S-SW 204 0 min 0,000 mm 0,0 UV-I 0 W/m 10,1 C 10,3 C 1,6 km/h (1 Bft) 100,00 %
08.11.2015 23:07 10,3 C 99 % 1025,4 hPa 0,0 l/m 0,1 km/h (0 Bft) S-SW 204 0 min 0,000 mm 0,0 UV-I 0 W/m 10,1 C 10,3 C 1,6 km/h (1 Bft) 100,00 %
08.11.2015 23:08 10,3 C 99 % 1025,4 hPa 0,0 l/m 0,0 km/h (0 Bft) S-SW 204 0 min 0,000 mm 0,0 UV-I 0 W/m 10,1 C 10,3 C 0,0 km/h (0 Bft) 100,00 %
08.11.2015 23:09 10,3 C 99 % 1025,4 hPa 0,0 l/m 0,0 km/h (0 Bft) S-SW 204 0 min 0,000 mm 0,0 UV-I 0 W/m 10,1 C 10,3 C 0,0 km/h (0 Bft) 100,00 %
08.11.2015 23:10 10,3 C 99 % 1025,4 hPa 0,0 l/m 0,0 km/h (0 Bft) S-SW 204 0 min 0,000 mm 0,0 UV-I 0 W/m 10,1 C 10,3 C 0,0 km/h (0 Bft) 95,65 %
08.11.2015 23:11 10,3 C 99 % 1025,4 hPa 0,0 l/m 0,0 km/h (0 Bft) S-SW 204 0 min 0,000 mm 0,0 UV-I 0 W/m 10,1 C 10,3 C 0,0 km/h (0 Bft) 100,00 %
08.11.2015 23:12 10,3 C 99 % 1025,4 hPa 0,0 l/m 0,1 km/h (0 Bft) S-SW 204 0 min 0,000 mm 0,0 UV-I 0 W/m 10,1 C 10,3 C 1,6 km/h (1 Bft) 100,00 %
08.11.2015 23:13 10,3 C 99 % 1025,4 hPa 0,0 l/m 0,8 km/h (0 Bft) S-SW 204 0 min 0,000 mm 0,0 UV-I 0 W/m 10,1 C 10,3 C 1,6 km/h (1 Bft) 100,00 %
08.11.2015 23:14 10,3 C 99 % 1025,4 hPa 0,0 l/m 0,2 km/h (0 Bft) S-SW 204 0 min 0,000 mm 0,0 UV-I 0 W/m 10,1 C 10,3 C 1,6 km/h (1 Bft) 100,00 %
08.11.2015 23:15 10,4 C 99 % 1025,3 hPa 0,0 l/m 0,8 km/h (0 Bft) S-SW 204 0 min 0,000 mm 0,0 UV-I 0 W/m 10,2 C 10,4 C 1,6 km/h (1 Bft) 96,30 %
08.11.2015 23:16 10,4 C 99 % 1025,3 hPa 0,0 l/m 0,9 km/h (0 Bft) S-SW 204 0 min 0,000 mm 0,0 UV-I 0 W/m 10,2 C 10,4 C 1,6 km/h (1 Bft) 100,00 %
08.11.2015 23:17 10,4 C 99 % 1025,3 hPa 0,0 l/m 0,8 km/h (0 Bft) S-SW 204 0 min 0,000 mm 0,0 UV-I 0 W/m 10,2 C 10,4 C 1,6 km/h (1 Bft) 100,00 %
08.11.2015 23:18 10,4 C 99 % 1025,3 hPa 0,0 l/m 1,1 km/h (1 Bft) S-SW 204 0 min 0,000 mm 0,0 UV-I 0 W/m 10,2 C 10,4 C 1,6 km/h (1 Bft) 100,00 %
08.11.2015 23:19 10,4 C 99 % 1025,3 hPa 0,0 l/m 0,5 km/h (0 Bft) S-SW 204 0 min 0,000 mm 0,0 UV-I 0 W/m 10,2 C 10,4 C 1,6 km/h (1 Bft) 100,00 %
08.11.2015 23:20 10,4 C 99 % 1025,3 hPa 0,0 l/m 0,0 km/h (0 Bft) S-SW 204 0 min 0,000 mm 0,0 UV-I 0 W/m 10,2 C 10,4 C 0,0 km/h (0 Bft) 95,65 %
08.11.2015 23:21 10,5 C 99 % 1025,3 hPa 0,0 l/m 0,0 km/h (0 Bft) S-SW 204 0 min 0,000 mm 0,0 UV-I 0 W/m 10,3 C 10,5 C 0,0 km/h (0 Bft) 100,00 %
08.11.2015 23:22 10,4 C 99 % 1025,3 hPa 0,0 l/m 0,1 km/h (0 Bft) S-SW 204 0 min 0,000 mm 0,0 UV-I 0 W/m 10,2 C 10,4 C 1,6 km/h (1 Bft) 100,00 %
08.11.2015 23:23 10,5 C 99 % 1025,3 hPa 0,0 l/m 0,3 km/h (0 Bft) S-SW 204 0 min 0,000 mm 0,0 UV-I 0 W/m 10,3 C 10,5 C 1,6 km/h (1 Bft) 100,00 %
08.11.2015 23:24 10,5 C 99 % 1025,3 hPa 0,0 l/m 0,5 km/h (0 Bft) S-SW 204 0 min 0,000 mm 0,0 UV-I 0 W/m 10,3 C 10,5 C 1,6 km/h (1 Bft) 100,00 %
08.11.2015 23:25 10,6 C 99 % 1025,3 hPa 0,0 l/m 0,1 km/h (0 Bft) S-SW 204 0 min 0,000 mm 0,0 UV-I 0 W/m 10,4 C 10,6 C 1,6 km/h (1 Bft) 100,00 %
08.11.2015 23:26 10,6 C 99 % 1025,2 hPa 0,0 l/m 0,0 km/h (0 Bft) S-SW 204 0 min 0,000 mm 0,0 UV-I 0 W/m 10,4 C 10,6 C 0,0 km/h (0 Bft) 100,00 %
08.11.2015 23:27 10,6 C 99 % 1025,2 hPa 0,0 l/m 0,0 km/h (0 Bft) S-SW 204 0 min 0,000 mm 0,0 UV-I 0 W/m 10,4 C 10,6 C 0,0 km/h (0 Bft) 95,65 %
08.11.2015 23:28 10,7 C 99 % 1025,2 hPa 0,0 l/m 1,0 km/h (0 Bft) S-SW 204 0 min 0,000 mm 0,0 UV-I 0 W/m 10,5 C 10,7 C 1,6 km/h (1 Bft) 100,00 %
08.11.2015 23:29 10,7 C 99 % 1025,2 hPa 0,0 l/m 0,7 km/h (0 Bft) S-SW 204 0 min 0,000 mm 0,0 UV-I 0 W/m 10,5 C 10,7 C 1,6 km/h (1 Bft) 96,55 %
08.11.2015 23:30 10,8 C 99 % 1025,2 hPa 0,0 l/m 0,3 km/h (0 Bft) S-SW 204 0 min 0,000 mm 0,0 UV-I 0 W/m 10,6 C 10,8 C 1,6 km/h (1 Bft) 100,00 %
08.11.2015 23:31 10,8 C 99 % 1025,1 hPa 0,0 l/m 0,4 km/h (0 Bft) S-SW 204 0 min 0,000 mm 0,0 UV-I 0 W/m 10,6 C 10,8 C 1,6 km/h (1 Bft) 92,31 %
08.11.2015 23:32 10,8 C 99 % 1025,1 hPa 0,0 l/m 1,3 km/h (1 Bft) S-SW 204 0 min 0,000 mm 0,0 UV-I 0 W/m 10,6 C 10,8 C 1,6 km/h (1 Bft) 100,00 %
08.11.2015 23:33 10,8 C 99 % 1025,1 hPa 0,0 l/m 0,7 km/h (0 Bft) S-SW 204 0 min 0,000 mm 0,0 UV-I 0 W/m 10,6 C 10,8 C 1,6 km/h (1 Bft) 100,00 %
08.11.2015 23:34 10,8 C 99 % 1025,1 hPa 0,0 l/m 0,9 km/h (0 Bft) S-SW 204 0 min 0,000 mm 0,0 UV-I 0 W/m 10,6 C 10,8 C 1,6 km/h (1 Bft) 100,00 %
08.11.2015 23:35 10,8 C 99 % 1025,1 hPa 0,0 l/m 0,3 km/h (0 Bft) S-SW 204 0 min 0,000 mm 0,0 UV-I 0 W/m 10,6 C 10,8 C 1,6 km/h (1 Bft) 100,00 %
08.11.2015 23:36 10,8 C 99 % 1025,1 hPa 0,0 l/m 0,0 km/h (0 Bft) S-SW 204 0 min 0,000 mm 0,0 UV-I 0 W/m 10,6 C 10,8 C 0,0 km/h (0 Bft) 100,00 %
08.11.2015 23:37 10,9 C 99 % 1025,1 hPa 0,0 l/m 0,0 km/h (0 Bft) S-SW 204 0 min 0,000 mm 0,0 UV-I 0 W/m 10,7 C 10,9 C 0,0 km/h (0 Bft) 100,00 %
08.11.2015 23:38 10,8 C 99 % 1025,1 hPa 0,0 l/m 0,0 km/h (0 Bft) S-SW 204 0 min 0,000 mm 0,0 UV-I 0 W/m 10,6 C 10,8 C 0,0 km/h (0 Bft) 100,00 %
08.11.2015 23:39 10,8 C 99 % 1025,1 hPa 0,0 l/m 0,0 km/h (0 Bft) S-SW 204 0 min 0,000 mm 0,0 UV-I 0 W/m 10,6 C 10,8 C 0,0 km/h (0 Bft) 96,15 %
08.11.2015 23:40 10,9 C 99 % 1025,0 hPa 0,0 l/m 0,3 km/h (0 Bft) S-SW 204 0 min 0,000 mm 0,0 UV-I 0 W/m 10,7 C 10,9 C 1,6 km/h (1 Bft) 100,00 %
08.11.2015 23:41 10,9 C 99 % 1025,0 hPa 0,0 l/m 0,3 km/h (0 Bft) S-SW 204 0 min 0,000 mm 0,0 UV-I 0 W/m 10,7 C 10,9 C 1,6 km/h (1 Bft) 100,00 %
08.11.2015 23:42 10,9 C 99 % 1025,0 hPa 0,0 l/m 0,7 km/h (0 Bft) S-SW 204 0 min 0,000 mm 0,0 UV-I 0 W/m 10,7 C 10,9 C 1,6 km/h (1 Bft) 100,00 %
08.11.2015 23:43 10,9 C 99 % 1025,0 hPa 0,0 l/m 1,1 km/h (1 Bft) S-SW 204 0 min 0,000 mm 0,0 UV-I 0 W/m 10,7 C 10,9 C 3,2 km/h (1 Bft) 100,00 %
08.11.2015 23:44 10,8 C 99 % 1025,0 hPa 0,0 l/m 1,5 km/h (1 Bft) S-SW 204 0 min 0,000 mm 0,0 UV-I 0 W/m 10,6 C 10,8 C 3,2 km/h (1 Bft) 100,00 %
08.11.2015 23:45 10,8 C 99 % 1024,9 hPa 0,0 l/m 1,9 km/h (1 Bft) S-SW 198 0 min 0,000 mm 0,0 UV-I 0 W/m 10,6 C 10,8 C 3,2 km/h (1 Bft) 100,00 %
08.11.2015 23:46 10,9 C 99 % 1024,9 hPa 0,0 l/m 1,9 km/h (1 Bft) S-SW 198 0 min 0,000 mm 0,0 UV-I 0 W/m 10,7 C 10,9 C 3,2 km/h (1 Bft) 100,00 %
08.11.2015 23:47 10,9 C 99 % 1025,0 hPa 0,0 l/m 1,8 km/h (1 Bft) S-SW 198 0 min 0,000 mm 0,0 UV-I 0 W/m 10,7 C 10,9 C 3,2 km/h (1 Bft) 100,00 %
08.11.2015 23:48 10,9 C 99 % 1024,9 hPa 0,0 l/m 1,3 km/h (1 Bft) S-SW 198 0 min 0,000 mm 0,0 UV-I 0 W/m 10,7 C 10,9 C 1,6 km/h (1 Bft) 96,15 %
08.11.2015 23:49 10,9 C 99 % 1024,9 hPa 0,0 l/m 1,0 km/h (0 Bft) S-SW 198 0 min 0,000 mm 0,0 UV-I 0 W/m 10,7 C 10,9 C 1,6 km/h (1 Bft) 100,00 %
08.11.2015 23:50 10,9 C 99 % 1025,0 hPa 0,0 l/m 1,0 km/h (0 Bft) S-SW 198 0 min 0,000 mm 0,0 UV-I 0 W/m 10,7 C 10,9 C 1,6 km/h (1 Bft) 100,00 %
08.11.2015 23:51 10,9 C 99 % 1025,0 hPa 0,0 l/m 0,8 km/h (0 Bft) S-SW 198 0 min 0,000 mm 0,0 UV-I 0 W/m 10,7 C 10,9 C 1,6 km/h (1 Bft) 100,00 %
08.11.2015 23:52 10,9 C 99 % 1025,0 hPa 0,0 l/m 0,1 km/h (0 Bft) S-SW 198 0 min 0,000 mm 0,0 UV-I 0 W/m 10,7 C 10,9 C 1,6 km/h (1 Bft) 100,00 %
08.11.2015 23:53 11,0 C 99 % 1025,0 hPa 0,0 l/m 0,1 km/h (0 Bft) S-SW 198 0 min 0,000 mm 0,0 UV-I 0 W/m 10,8 C 11,0 C 1,6 km/h (1 Bft) 100,00 %
08.11.2015 23:54 11,0 C 99 % 1025,0 hPa 0,0 l/m 0,9 km/h (0 Bft) S-SW 198 0 min 0,000 mm 0,0 UV-I 0 W/m 10,8 C 11,0 C 3,2 km/h (1 Bft) 100,00 %
08.11.2015 23:55 10,9 C 99 % 1025,0 hPa 0,0 l/m 1,3 km/h (1 Bft) S-SW 205 0 min 0,000 mm 0,0 UV-I 0 W/m 10,7 C 10,9 C 3,2 km/h (1 Bft) 100,00 %
08.11.2015 23:56 11,0 C 99 % 1025,0 hPa 0,0 l/m 1,7 km/h (1 Bft) S-SW 209 0 min 0,000 mm 0,0 UV-I 0 W/m 10,8 C 11,0 C 3,2 km/h (1 Bft) 95,65 %
08.11.2015 23:57 10,9 C 99 % 1025,0 hPa 0,0 l/m 1,5 km/h (1 Bft) S-SW 209 0 min 0,000 mm 0,0 UV-I 0 W/m 10,7 C 10,9 C 3,2 km/h (1 Bft) 100,00 %
08.11.2015 23:58 10,9 C 99 % 1025,0 hPa 0,0 l/m 1,5 km/h (1 Bft) SW 227 0 min 0,000 mm 0,0 UV-I 0 W/m 10,7 C 10,9 C 3,2 km/h (1 Bft) 100,00 %
08.11.2015 23:59 10,9 C 99 % 1025,0 hPa 0,0 l/m 1,0 km/h (0 Bft) SW 227 0 min 0,000 mm 0,0 UV-I 0 W/m 10,7 C 10,9 C 3,2 km/h (1 Bft) 100,00 %
_ Min-Zeit 20:33 13:11 23:45 - 00:36 - - - - - - 20:33 20:33 00:36 18:35
Minimum _ 9,3 C 83 % 1024,9 hPa - 0,0 km/h (0 Bft) - - - - - - 9,0 C 9,3 C 0,0 km/h (0 Bft) 50,00 %
_ Max-Zeit 13:17 20:59 10:29 00:00 04:16 - - 12:02 13:00 12:06 12:04 13:17 13:17 04:16 00:00
Maximum _ 17,1 C 99 % 1030,8 hPa 0,0 l/m 8,2 km/h
S-SW (2 Bft)
- - 2 min 0,203 mm 1,6 UV-I 446 W/m 14,7 C 17,1 C 12,9 km/h
S-SW (3 Bft)
100,00 %
Durchschnitt _ 12,3 C 93 % 1028,0 hPa #0,0 l/m 1,6 km/h (1 Bft) SW - #3:53 h #0,838 mm 1,0 UV-I 159 W/m 11,2 C 12,3 C 2,8 km/h (1 Bft) 99,14 %